Date StartTime U_cm/s V_cm/s W_cm/s Ustd_cm/s Vstd_cm/s Wstd_cm/s Uvar_(cm/s)^2 Vvar_(cm/s)^2 Wvar_(cm/s)^2 KE_(m/s)^2 TurbulentKE_(m/s)^2 HorizWindSpeed_cm/s FrictionSpeec_cm/s DragCoef SpeedOfSound_m/s SonicTemperature_C Pressure_mb 
05/12/2013  00:00:00     -120.070      -53.640       -8.321       36.865       28.381       17.498     1358.997      805.489      306.180        0.992        0.124      131.507       19.299        0.022      343.855       20.260      867.543
05/12/2013  00:01:00      -96.572       -7.245       -4.167       21.199       23.722       12.747      449.377      562.755      162.482        0.529        0.059       96.843        9.684        0.010      344.059       20.609      867.543
05/12/2013  00:02:00     -113.022      -29.282      -11.990       34.566       32.933       16.775     1194.825     1084.588      281.415        0.817        0.128      116.753       15.925        0.019      344.068       20.625      867.562
05/12/2013  00:03:00      -53.231      -61.223       -3.975       69.144       35.829       28.273     4780.961     1283.707      799.361        0.673        0.343       81.128       21.088        0.068      343.960       20.440      867.580
05/12/2013  00:04:00     -135.351      -90.145       -2.009       61.876       43.350       30.761     3828.684     1879.221      946.212        1.655        0.333      162.622       32.678        0.040      343.967       20.451      867.602
05/12/2013  00:05:00     -123.435      -85.460        3.180       57.266       46.845       31.762     3279.350     2194.413     1008.817        1.452        0.324      150.132       27.769        0.034      343.931       20.389      867.608
05/12/2013  00:06:00     -119.171      -61.303       -0.370       63.848       41.068       29.199     4076.505     1686.617      852.566        1.229        0.331      134.015       32.614        0.059      343.935       20.398      867.599
05/12/2013  00:07:00     -132.671      -85.318      -11.459       39.121       29.218       24.365     1530.433      853.665      593.640        1.399        0.149      157.737       19.591        0.015      343.952       20.426      867.607
05/12/2013  00:08:00     -123.216      -79.042       -9.322       27.214       31.774       21.335      740.575     1009.616      455.174        1.186        0.110      146.390       15.666        0.011      343.947       20.417      867.606
05/12/2013  00:09:00      -95.923      -63.958       -2.190       40.627       35.715       17.599     1650.536     1275.565      309.732        0.827        0.162      115.291       14.616        0.016      343.962       20.443      867.598
05/12/2013  00:10:00      -98.857       -9.035       -5.922       49.641       28.714       20.187     2464.202      824.492      407.512        0.679        0.185       99.269       21.259        0.046      343.975       20.466      867.592
05/12/2013  00:11:00      -72.648      -28.092       -3.408       20.632       26.128       16.820      425.695      682.664      282.908        0.373        0.070       77.890        7.965        0.010      343.981       20.476      867.600
05/12/2013  00:12:00     -111.238       -2.115       -7.538       16.696       17.240       11.432      278.742      297.232      130.687        0.657        0.035      111.258       10.060        0.008      344.034       20.565      867.602
05/12/2013  00:13:00      -88.622      -11.043       -4.411       26.411       19.620       12.417      697.536      384.954      154.185        0.462        0.062       89.307       13.484        0.023      344.037       20.572      867.601
05/12/2013  00:14:00      -57.075      -15.045       -2.065       19.402       13.083        9.534      376.440      171.159       90.899        0.206        0.032       59.025        9.095        0.024      343.976       20.468      867.610
05/12/2013  00:15:00      -98.288      -16.946       -4.182       22.415       11.161       12.557      502.432      124.571      157.682        0.537        0.039       99.738       11.958        0.014      343.878       20.299      867.617
05/12/2013  00:16:00     -111.514       -2.220      -12.889       36.611       18.677       16.511     1340.330      348.831      272.605        0.728        0.098      111.536       15.640        0.020      343.780       20.133      867.632
05/12/2013  00:17:00     -155.169      -31.041      -15.349       23.751       19.954       16.398      564.098      398.169      268.905        1.325        0.062      158.243       12.881        0.007      343.692       19.982      867.656
05/12/2013  00:18:00     -134.768      -45.422       -1.889       38.957       28.348       21.565     1517.672      803.626      465.039        1.151        0.139      142.217       19.696        0.019      343.975       20.467      867.677
05/12/2013  00:19:00     -111.591      -41.782        6.003       47.864       28.002       19.105     2290.975      784.139      365.004        0.884        0.172      119.156       19.485        0.027      344.039       20.575      867.675
05/12/2013  00:20:00      -85.426      -57.902        0.084       39.578       33.210       17.872     1566.434     1102.884      319.405        0.682        0.149      103.200       16.007        0.024      344.069       20.626      867.689
05/12/2013  00:21:00      -41.485      -44.178        7.564       31.833       27.017       20.812     1013.317      729.902      433.135        0.295        0.109       60.603       23.258        0.147      344.017       20.538      867.688
05/12/2013  00:22:00      -57.002      -27.465       -0.778       28.206       18.481       11.370      795.591      341.533      129.266        0.264        0.063       63.273        8.226        0.017      343.965       20.448      867.683
05/12/2013  00:23:00      -78.907      -23.463       -0.469       36.258       18.512       11.091     1314.612      342.703      123.004        0.428        0.089       82.321        6.480        0.006      343.921       20.373      867.672
05/12/2013  00:24:00     -110.590      -37.574       -1.958       25.428       27.388       11.729      646.575      750.078      137.558        0.759        0.077      116.799       10.225        0.008      343.925       20.380      867.677
05/12/2013  00:25:00     -106.818      -35.009       -2.120       24.017       30.622       15.098      576.816      937.689      227.959        0.719        0.087      112.409       10.777        0.009      343.892       20.323      867.690
05/12/2013  00:26:00      -91.757      -12.204       -1.814       26.504       18.803       17.855      702.439      353.571      318.812        0.497        0.069       92.565       17.439        0.035      343.811       20.186      867.693
05/12/2013  00:27:00      -94.843        6.003       -5.057       36.582       26.674       18.364     1338.260      711.486      337.221        0.572        0.119       95.033       17.272        0.033      343.825       20.209      867.685
05/12/2013  00:28:00     -102.119       59.342      -14.002       30.710       23.965       21.026      943.088      574.304      442.105        0.805        0.098      118.109       15.286        0.017      343.995       20.499      867.695
05/12/2013  00:29:00      -96.683       53.225      -12.724       21.450       19.249       14.430      460.102      370.506      208.223        0.669        0.052      110.365       13.249        0.014      344.176       20.809      867.686
05/12/2013  00:30:00      -96.067       58.806      -18.447       24.210       18.743       15.931      586.139      351.307      253.812        0.711        0.060      112.637       10.890        0.009      344.075       20.636      867.672
05/12/2013  00:31:00      -84.806       54.202      -12.103       32.694       27.203       22.992     1068.891      739.990      528.644        0.631        0.117      100.647       21.882        0.047      343.871       20.288      867.666
05/12/2013  00:32:00     -117.278       52.043      -23.640       20.769       24.657       16.122      431.332      607.964      259.903        0.916        0.065      128.306       11.568        0.008      343.826       20.211      867.661
05/12/2013  00:33:00      -98.287        5.528       -8.953       42.790       32.328       22.739     1830.960     1045.092      517.081        0.658        0.170       98.442       22.765        0.053      343.724       20.039      867.659
05/12/2013  00:34:00      -87.878      -39.606       -1.695       46.524       26.537       19.774     2164.491      704.208      391.030        0.628        0.163       96.391       22.268        0.053      343.612       19.844      867.660
05/12/2013  00:35:00     -106.191      -51.709        0.972       49.395       29.658       18.910     2439.905      879.623      357.591        0.881        0.184      118.112       19.988        0.029      343.513       19.676      867.665
05/12/2013  00:36:00      -42.533      -28.814        7.992       40.582       22.657       19.689     1646.866      513.346      387.640        0.263        0.127       51.374       21.011        0.167      343.402       19.489      867.669
05/12/2013  00:37:00      -87.068      -63.098       -1.874       36.223       26.748       26.447     1312.104      715.468      699.419        0.715        0.136      107.528       22.617        0.044      343.586       19.801      867.677
05/12/2013  00:38:00     -112.879      -64.417       -5.266       24.872       26.990       13.132      618.635      728.457      172.460        0.922        0.076      129.966       11.240        0.007      343.543       19.730      867.682
05/12/2013  00:39:00     -123.046       -0.830       -5.679       30.652       34.828       20.403      939.531     1212.957      416.292        0.887        0.128      123.048       18.574        0.023      343.544       19.729      867.684
05/12/2013  00:40:00     -108.340      -32.533       -5.833       33.052       25.987       17.868     1092.464      675.342      319.263        0.746        0.104      113.119       15.751        0.019      343.448       19.566      867.692
05/12/2013  00:41:00      -67.925        0.842       -2.053       22.380       20.027       11.479      500.847      401.090      131.773        0.283        0.052       67.930        6.677        0.010      343.507       19.669      867.683
05/12/2013  00:42:00      -43.841       15.626       -7.400       14.683       25.365       13.842      215.598      643.392      191.608        0.164        0.053       46.542        9.076        0.038      343.467       19.599      867.658
05/12/2013  00:43:00      -62.430       18.353      -14.264       23.706       14.137       16.832      561.990      199.865      283.332        0.274        0.052       65.072       15.201        0.055      343.535       19.715      867.643
05/12/2013  00:44:00      -78.538      -12.714      -13.879       11.142       13.642       10.051      124.144      186.097      101.032        0.347        0.021       79.560        8.355        0.011      343.669       19.944      867.645
05/12/2013  00:45:00      -59.544       -9.931       -5.075       27.183       21.258       13.263      738.936      451.916      175.910        0.252        0.068       60.367       12.189        0.041      343.436       19.545      867.654
05/12/2013  00:46:00      -59.574       -9.954       -1.439       29.355       22.452       13.766      861.722      504.082      189.496        0.260        0.078       60.400       12.409        0.042      343.208       19.157      867.657
05/12/2013  00:47:00      -47.287       -4.697       -2.114       27.487       17.033       14.359      755.527      290.115      206.189        0.176        0.063       47.520       13.460        0.080      343.217       19.172      867.643
05/12/2013  00:48:00      -43.537      -11.134       -5.051       15.130       11.063        7.224      228.913      122.390       52.184        0.122        0.020       44.938        6.826        0.023      343.267       19.259      867.641
05/12/2013  00:49:00      -58.043      -13.126       -2.770       12.917       18.218        9.241      166.840      331.904       85.391        0.207        0.029       59.509        2.980        0.003      343.243       19.219      867.637
05/12/2013  00:50:00      -72.602      -36.528       -8.880       14.609       19.218        9.786      213.427      369.332       95.764        0.368        0.034       81.274        4.595        0.003      343.115       19.001      867.639
05/12/2013  00:51:00      -63.222      -40.879       -6.817       26.142       19.376       11.633      683.392      375.425      135.320        0.345        0.060       75.287       11.064        0.022      343.081       18.942      867.644
05/12/2013  00:52:00      -78.929      -49.485      -12.989       12.256       14.752        9.293      150.207      217.608       86.358        0.465        0.023       93.159        5.001        0.003      343.042       18.875      867.653
05/12/2013  00:53:00      -89.014      -38.312      -15.335       11.957       10.813        7.568      142.962      116.913       57.279        0.497        0.016       96.909        4.607        0.002      343.042       18.877      867.657
05/12/2013  00:54:00      -76.215      -13.073       -6.196       11.219       11.938        8.068      125.859      142.518       65.095        0.318        0.017       77.328        3.326        0.002      343.056       18.899      867.664
05/12/2013  00:55:00      -98.636      -16.896      -13.638       17.937       17.534       11.463      321.748      307.428      131.389        0.548        0.038      100.073        9.917        0.010      342.896       18.624      867.672
05/12/2013  00:56:00      -52.590      -27.304       -3.924       27.610       31.446       14.034      762.311      988.873      196.960        0.274        0.097       59.256       11.311        0.036      342.777       18.423      867.678
05/12/2013  00:57:00      -80.941      -41.108       -6.798       16.420       13.968       10.759      269.607      195.098      115.765        0.443        0.029       90.782        9.058        0.010      342.838       18.530      867.668
05/12/2013  00:58:00      -48.322       -3.793        3.965       27.927       17.501       12.692      779.930      306.269      161.096        0.181        0.062       48.470       13.151        0.074      342.849       18.547      867.661
05/12/2013  00:59:00      -91.414      -27.277       -9.743       15.689        9.746        7.689      246.149       94.991       59.125        0.480        0.020       95.396        6.582        0.005      342.962       18.740      867.671
05/12/2013  01:00:00      -84.505      -16.537       -7.220       29.529       20.310       14.549      871.990      412.502      211.681        0.448        0.075       86.107       12.492        0.021      342.910       18.650      867.659
05/12/2013  01:01:00      -50.252        3.061       -4.264       41.332       19.361       17.393     1708.316      374.858      302.503        0.247        0.119       50.345       18.129        0.130      342.748       18.374      867.648
05/12/2013  01:02:00     -141.142       44.082       -5.404       67.433       39.188       34.160     4547.155     1535.682     1166.877        1.457        0.362      147.866       26.644        0.032      342.649       18.206      867.653
05/12/2013  01:03:00     -120.712       32.274      -13.391       32.878       26.813       18.922     1080.986      718.921      358.046        0.897        0.108      124.952       10.840        0.008      342.628       18.170      867.657
05/12/2013  01:04:00     -100.781       16.400       -3.809       35.950       26.807       19.420     1292.369      718.633      377.150        0.641        0.119      102.107       17.984        0.031      342.779       18.427      867.645
05/12/2013  01:05:00      -88.229      -28.120       -9.461       40.875       39.367       22.813     1670.773     1549.737      520.426        0.620        0.187       92.602        7.676        0.007      342.729       18.343      867.655
05/12/2013  01:06:00      -28.000       -7.721       -1.133       30.123       21.900       13.817      907.371      479.590      190.897        0.121        0.079       29.045       11.137        0.147      342.647       18.203      867.649
05/12/2013  01:07:00     -110.642      -47.558       -2.788       67.714       24.352       24.949     4585.244      593.028      622.464        1.016        0.290      120.430       28.054        0.054      342.624       18.163      867.642
05/12/2013  01:08:00      -43.514      -29.867        4.112       47.575       19.699       20.721     2263.402      388.040      429.359        0.294        0.154       52.778       28.746        0.297      342.554       18.045      867.653
05/12/2013  01:09:00      -88.850      -23.774       -5.372       27.125       27.422       16.106      735.755      751.992      259.396        0.512        0.087       91.976       14.109        0.024      342.561       18.056      867.660
05/12/2013  01:10:00      -96.652      -48.506       -5.129       26.228       26.188       16.550      687.905      685.830      273.901        0.668        0.082      108.141       15.739        0.021      342.580       18.090      867.655
05/12/2013  01:11:00      -88.917      -26.058       -7.595       17.696       23.304       11.766      313.144      543.056      138.434        0.482        0.050       92.656        6.894        0.006      342.582       18.094      867.657
05/12/2013  01:12:00     -107.397        7.138      -15.817       17.177       15.812       10.910      295.052      250.027      119.032        0.625        0.033      107.634        9.962        0.009      342.582       18.092      867.646
05/12/2013  01:13:00     -119.287        6.322      -12.653        9.274       10.120        8.490       86.005      102.413       72.077        0.734        0.013      119.455        5.474        0.002      342.609       18.139      867.631
05/12/2013  01:14:00      -79.682      -11.778       -9.017       16.469       19.611        8.903      271.226      384.601       79.256        0.365        0.037       80.548        7.077        0.008      342.652       18.211      867.623
05/12/2013  01:15:00      -96.042      -50.164       -9.161       21.194       12.749        8.469      449.202      162.526       71.728        0.625        0.034      108.354        7.175        0.004      342.563       18.061      867.618
05/12/2013  01:16:00      -25.155      -34.433        6.513       28.051       21.783       18.166      786.859      474.513      330.018        0.173        0.080       42.643       14.128        0.110      342.485       17.930      867.610
05/12/2013  01:17:00      -93.274      -53.200       -3.230       30.623       21.822       16.292      937.743      476.219      265.420        0.661        0.084      107.379       16.116        0.023      342.432       17.837      867.617
05/12/2013  01:18:00      -94.971      -49.833       -9.211       20.285       20.934       15.086      411.495      438.234      227.590        0.633        0.054      107.251        5.092        0.002      342.430       17.836      867.605
05/12/2013  01:19:00     -100.176      -23.753      -10.015       16.757       12.084        9.820      280.808      146.012       96.430        0.561        0.026      102.953        8.503        0.007      342.403       17.789      867.598
05/12/2013  01:20:00     -116.168      -29.235       -4.563       20.667       18.557       13.705      427.109      344.372      187.823        0.766        0.048      119.790       12.915        0.012      342.393       17.771      867.594
05/12/2013  01:21:00     -118.823      -37.207       -9.285       11.944       13.418        8.070      142.651      180.044       65.120        0.799        0.019      124.513        5.054        0.002      342.453       17.873      867.581
05/12/2013  01:22:00     -129.821      -29.885      -12.133       29.979       21.964       16.114      898.765      482.396      259.669        0.977        0.082      133.217       14.532        0.012      342.374       17.740      867.578
05/12/2013  01:23:00     -131.336      -37.711      -12.311       31.699       29.376       23.867     1004.818      862.952      569.645        1.063        0.122      136.643       18.849        0.019      342.297       17.607      867.573
05/12/2013  01:24:00     -114.260      -25.476       -2.993       51.206       27.639       18.509     2622.041      763.938      342.583        0.872        0.186      117.066       24.770        0.045      342.257       17.540      867.555
05/12/2013  01:25:00     -111.544      -15.156       -6.728       31.388       15.765       15.313      985.213      248.545      234.477        0.709        0.073      112.569       16.650        0.022      342.263       17.550      867.551
05/12/2013  01:26:00     -118.366       -1.602      -12.315       16.809       14.423        9.067      282.548      208.035       82.208        0.737        0.029      118.376        5.293        0.002      342.310       17.629      867.549
05/12/2013  01:27:00     -117.963        3.138       -8.595       25.190       20.500       18.491      634.541      420.242      341.919        0.770        0.070      118.004       16.181        0.019      342.314       17.638      867.536
05/12/2013  01:28:00      -99.167      -24.367       -7.683        9.876       14.578        9.213       97.539      212.527       84.876        0.544        0.020      102.116        5.567        0.003      342.491       17.938      867.542
05/12/2013  01:29:00      -76.646      -37.337        0.193       23.506       17.390       12.264      552.524      302.409      150.402        0.414        0.050       85.256       13.083        0.024      342.388       17.762      867.540
05/12/2013  01:30:00      -46.068      -28.948        0.849       32.784       14.530       18.713     1074.787      211.134      350.166        0.230        0.082       54.408       19.235        0.125      342.344       17.686      867.535
05/12/2013  01:31:00      -92.076      -22.983       -8.233       24.685       24.070       13.649      609.356      579.359      186.291        0.522        0.069       94.901       10.911        0.013      342.452       17.872      867.528
05/12/2013  01:32:00      -92.944        1.249      -10.198       21.375       15.753       14.551      456.888      248.168      211.742        0.483        0.046       92.953       13.157        0.020      342.389       17.764      867.518
05/12/2013  01:33:00     -100.304      -29.727      -11.077       18.606       17.836       10.629      346.182      318.118      112.970        0.592        0.039      104.617        6.165        0.003      342.356       17.709      867.508
05/12/2013  01:34:00     -129.657      -21.558      -10.174       44.563       21.856       17.953     1985.903      477.687      322.294        1.008        0.139      131.437       21.904        0.028      342.270       17.562      867.517
05/12/2013  01:35:00     -104.953      -32.742       -7.588       16.069       23.405       12.311      258.224      547.790      151.551        0.655        0.048      109.942        9.557        0.008      342.288       17.593      867.509
05/12/2013  01:36:00     -105.448      -30.235      -14.687       11.249       12.224        8.334      126.539      149.416       69.451        0.630        0.017      109.698        4.952        0.002      342.238       17.509      867.500
05/12/2013  01:37:00      -90.536      -30.362       -7.152       18.919       19.709       13.316      357.923      388.427      177.303        0.505        0.046       95.491       14.119        0.022      342.251       17.529      867.502
05/12/2013  01:38:00     -111.124      -19.014       -3.414       29.049       15.100       15.691      843.864      228.017      246.214        0.702        0.066      112.739       15.840        0.020      342.260       17.546      867.494
05/12/2013  01:39:00     -111.027      -34.488       -3.651       33.817       27.307       14.271     1143.587      745.692      203.663        0.781        0.105      116.260       18.687        0.026      342.270       17.560      867.482
05/12/2013  01:40:00     -112.584      -37.378       -9.024       16.887       15.893       11.466      285.166      252.585      131.468        0.741        0.033      118.627        7.305        0.004      342.221       17.480      867.483
05/12/2013  01:41:00     -104.998      -37.722       -8.138       26.087       19.660       12.873      680.545      386.519      165.711        0.687        0.062      111.569       13.515        0.015      342.272       17.565      867.482
05/12/2013  01:42:00     -107.397      -36.811       -4.121       30.060       26.060       18.092      903.596      679.100      327.332        0.741        0.096      113.531       16.604        0.021      342.253       17.533      867.483
05/12/2013  01:43:00     -105.025       -8.015       -0.147       30.031       20.851       18.064      901.848      434.757      326.295        0.638        0.083      105.331       12.643        0.014      342.154       17.366      867.502
05/12/2013  01:44:00      -73.787      -22.136        3.260       32.829       31.075       16.573     1077.763      965.625      274.655        0.413        0.116       77.036       14.699        0.036      342.170       17.393      867.502
05/12/2013  01:45:00      -74.761      -33.863        4.719       39.692       27.174       22.919     1575.488      738.404      525.259        0.480        0.142       82.073       20.690        0.064      342.267       17.557      867.499
05/12/2013  01:46:00      -48.448      -38.462       10.241       39.778       28.090       21.651     1582.275      789.072      468.782        0.339        0.142       61.859       20.449        0.109      342.314       17.636      867.511
05/12/2013  01:47:00     -109.500      -35.999        1.586       23.081       23.875       15.173      532.755      570.026      230.231        0.731        0.067      115.266       12.739        0.012      342.279       17.577      867.512
05/12/2013  01:48:00      -96.925      -35.786        5.800       36.577       25.425       14.965     1337.902      646.430      223.949        0.646        0.110      103.321       14.825        0.021      342.223       17.482      867.510
05/12/2013  01:49:00      -68.639      -36.422        2.499       26.590       20.399       12.910      707.013      416.126      166.661        0.367        0.064       77.704       11.757        0.023      342.235       17.502      867.519
05/12/2013  01:50:00      -68.366      -17.411        5.065       30.774       28.068       14.603      947.018      787.811      213.242        0.348        0.097       70.548       12.988        0.034      342.090       17.256      867.523
05/12/2013  01:51:00     -101.785      -16.177       -9.536       21.732       25.125       15.956      472.269      631.286      254.606        0.604        0.068      103.063       11.683        0.013      341.965       17.045      867.522
05/12/2013  01:52:00      -90.485      -23.553       -3.490       36.494       23.094       18.177     1331.782      533.314      330.405        0.547        0.110       93.501       18.413        0.039      341.946       17.012      867.543
05/12/2013  01:53:00      -65.374      -25.004       -0.379       36.469       19.815       14.666     1329.980      392.650      215.087        0.342        0.097       69.993       14.639        0.044      341.934       16.990      867.544
05/12/2013  01:54:00      -80.513      -26.093       -1.204       28.605       24.869       15.641      818.223      618.466      244.638        0.442        0.084       84.636        8.431        0.010      341.956       17.029      867.548
05/12/2013  01:55:00     -110.315      -28.154       -1.412       27.728       27.271       17.897      768.820      743.708      320.311        0.740        0.092      113.851       14.209        0.016      342.058       17.202      867.555
05/12/2013  01:56:00      -80.716      -50.267       -1.213       31.097       23.766       15.231      967.024      564.803      231.990        0.540        0.088       95.088       15.593        0.027      342.160       17.377      867.558
05/12/2013  01:57:00      -84.337      -53.862        3.191       37.847       20.556       21.324     1432.358      422.563      454.704        0.617        0.115      100.069       21.963        0.048      342.180       17.408      867.557
05/12/2013  01:58:00      -82.902      -62.611        5.776       44.153       32.054       22.206     1949.528     1027.430      493.127        0.715        0.174      103.889       18.981        0.033      342.275       17.569      867.555
05/12/2013  01:59:00     -119.187      -31.455       -2.406       43.671       42.188       18.276     1907.145     1779.800      334.025        0.961        0.201      123.268       17.306        0.020      342.192       17.430      867.560
05/12/2013  02:00:00     -128.890      -31.068       -1.141       40.979       29.097       20.888     1679.253      846.655      436.321        1.027        0.148      132.582       21.029        0.025      342.149       17.356      867.552
05/12/2013  02:01:00      -78.444      -12.540        3.030       33.480       28.769       17.764     1120.892      827.653      315.571        0.429        0.113       79.440       17.525        0.049      342.017       17.134      867.536
05/12/2013  02:02:00      -67.627      -25.766        5.529       38.244       23.429       17.690     1462.589      548.907      312.941        0.380        0.116       72.369       18.072        0.062      342.132       17.329      867.535
05/12/2013  02:03:00      -38.967      -15.704        2.226       20.003       19.600       16.025      400.134      384.141      256.805        0.141        0.052       42.013       14.065        0.112      342.172       17.396      867.521
05/12/2013  02:04:00     -130.951       23.601       -6.855       36.776       22.511       14.380     1352.443      506.731      206.774        0.991        0.103      133.061       15.903        0.014      342.008       17.117      867.510
05/12/2013  02:05:00     -110.467      -21.720       -4.367       32.109       36.215       14.081     1030.987     1311.539      198.281        0.762        0.127      112.582       17.727        0.025      342.118       17.304      867.512
05/12/2013  02:06:00      -98.473      -52.131        4.628       37.272       23.215       15.590     1389.191      538.943      243.060        0.730        0.109      111.421       16.859        0.023      342.114       17.297      867.504
05/12/2013  02:07:00      -56.964      -54.217        6.638       36.228       33.287       16.898     1312.453     1108.004      285.552        0.447        0.135       78.641       16.929        0.046      342.219       17.475      867.504
05/12/2013  02:08:00      -76.399      -66.672       -5.707       17.418       24.520       12.597      303.377      601.230      158.686        0.569        0.053      101.400        8.334        0.007      342.305       17.622      867.509
05/12/2013  02:09:00      -84.481      -25.971       -3.186       43.685       24.609       19.600     1908.412      605.627      384.176        0.536        0.145       88.383       19.753        0.050      342.126       17.317      867.509
05/12/2013  02:10:00      -53.603      -33.812       10.730       44.652       20.652       20.826     1993.773      426.514      433.734        0.349        0.143       63.376       24.697        0.152      341.944       17.009      867.505
05/12/2013  02:11:00      -80.402      -26.895        1.315       45.395       26.134       13.839     2060.710      682.995      191.516        0.506        0.147       84.782       16.695        0.039      341.948       17.017      867.494
05/12/2013  02:12:00      -24.425      -32.675        6.838       32.528       26.024       14.471     1058.087      677.246      209.416        0.183        0.097       40.795       15.452        0.143      341.959       17.035      867.503
05/12/2013  02:13:00      -81.345      -37.048       -4.007       40.295       22.048       18.131     1623.690      486.122      328.743        0.522        0.122       89.384       20.328        0.052      342.033       17.160      867.490
05/12/2013  02:14:00      -87.981       -1.855       -4.556       40.941       32.929       23.366     1676.135     1084.348      545.965        0.554        0.165       88.000       24.635        0.078      341.755       16.688      867.498
05/12/2013  02:15:00     -147.019       -8.550       -9.257       39.385       33.028       19.614     1551.200     1090.874      384.720        1.240        0.151      147.267       17.349        0.014      341.973       17.058      867.506
05/12/2013  02:16:00      -81.961      -28.476        1.968       36.218       23.937       18.543     1311.732      572.973      343.860        0.488        0.111       86.766       14.301        0.027      341.925       16.976      867.506
05/12/2013  02:17:00      -78.567       -5.395        2.798       50.626       24.995       22.971     2563.020      624.772      527.671        0.496        0.186       78.752       26.874        0.116      341.934       16.991      867.504
05/12/2013  02:18:00      -85.981      -19.509       -0.162       38.259       25.168       22.294     1463.722      633.429      497.028        0.518        0.130       88.167       22.457        0.065      341.820       16.798      867.513
05/12/2013  02:19:00     -134.822      -50.307       -1.293       58.429       27.565       17.554     3413.939      759.839      308.131        1.259        0.224      143.902       15.837        0.012      341.899       16.932      867.504
05/12/2013  02:20:00     -145.316      -57.338        1.749       72.178       41.458       19.464     5209.694     1718.725      378.842        1.586        0.365      156.219       24.923        0.025      341.952       17.021      867.515
05/12/2013  02:21:00      -56.955      -41.223        1.782       38.772       23.916       19.595     1503.285      571.994      383.981        0.370        0.123       70.308       15.820        0.051      342.232       17.496      867.502
05/12/2013  02:22:00      -56.670      -25.825       -2.764       18.840       20.557       12.820      354.941      422.583      164.351        0.241        0.047       62.277       10.234        0.027      342.136       17.334      867.498
05/12/2013  02:23:00      -94.551      -28.577       -1.962       41.739       23.341       16.610     1742.164      544.800      275.896        0.616        0.128       98.775       17.142        0.030      342.039       17.170      867.489
05/12/2013  02:24:00     -110.984      -18.160       -2.975       34.299       16.349       15.355     1176.408      267.303      235.768        0.717        0.084      112.460       16.311        0.021      341.871       16.886      867.477
05/12/2013  02:25:00     -114.634      -15.134       -3.437       40.338       26.347       21.797     1627.121      694.190      475.106        0.809        0.140      115.628       22.337        0.037      341.846       16.842      867.478
05/12/2013  02:26:00     -102.173      -40.918        1.440       23.852       29.514       14.615      568.937      871.088      213.599        0.688        0.083      110.062       11.564        0.011      341.799       16.762      867.476
05/12/2013  02:27:00      -85.926      -15.421       -5.046       34.558       31.534       18.316     1194.247      994.396      335.491        0.508        0.126       87.299       17.408        0.040      341.707       16.607      867.465
05/12/2013  02:28:00      -77.414      -22.818        2.621       33.479       28.282       21.919     1120.869      799.861      480.421        0.446        0.120       80.707       17.975        0.050      341.657       16.523      867.453
05/12/2013  02:29:00      -98.451      -35.564        2.947       33.967       32.481       19.145     1153.776     1054.990      366.516        0.677        0.129      104.678       15.065        0.021      341.841       16.835      867.452
05/12/2013  02:30:00      -69.758      -24.024        8.412       40.032       31.578       22.141     1602.600      997.171      490.226        0.430        0.154       73.779       16.564        0.050      341.732       16.649      867.438
05/12/2013  02:31:00      -81.751      -21.035        7.669       48.768       37.273       19.093     2378.325     1389.284      364.538        0.566        0.207       84.414       19.781        0.055      341.861       16.868      867.429
05/12/2013  02:32:00     -153.749       35.647      -12.885       72.871       22.668       19.964     5310.124      513.838      398.558        1.565        0.311      157.828       18.233        0.013      341.769       16.711      867.430
05/12/2013  02:33:00     -156.151       -5.710      -19.041       50.908       34.551       23.424     2591.578     1193.783      548.696        1.456        0.217      156.255       15.290        0.010      341.803       16.770      867.429
05/12/2013  02:34:00     -179.991      -12.020      -18.445       36.122       40.706       20.213     1304.815     1656.970      408.556        1.813        0.169      180.392       14.427        0.006      341.794       16.755      867.430
05/12/2013  02:35:00     -118.345      -19.446       -3.705       40.057       29.571       21.731     1604.567      874.450      472.257        0.867        0.148      119.932       22.390        0.035      341.777       16.725      867.431
05/12/2013  02:36:00     -143.676      -33.685       -8.662       36.712       37.463       20.691     1347.787     1403.506      428.117        1.252        0.159      147.572       18.284        0.015      341.732       16.650      867.434
05/12/2013  02:37:00     -117.053      -36.952       -3.379       35.427       32.231       20.373     1255.058     1038.850      415.048        0.889        0.135      122.747       17.863        0.021      341.732       16.648      867.436
05/12/2013  02:38:00     -140.853      -59.342       -9.376       20.843       21.162       14.500      434.441      447.819      210.250        1.227        0.055      152.843       11.468        0.006      341.827       16.810      867.429
05/12/2013  02:39:00     -135.224      -41.317       -1.458       31.096       24.495       19.080      966.973      600.010      364.047        1.096        0.097      141.395       17.615        0.016      341.907       16.946      867.435
05/12/2013  02:40:00     -104.050      -28.217        2.895       42.952       24.423       18.939     1844.869      596.494      358.681        0.722        0.140      107.808       22.425        0.043      341.864       16.871      867.437
05/12/2013  02:41:00     -105.555      -58.496       -6.629       39.563       22.566       15.340     1565.205      509.245      235.326        0.846        0.115      120.680       14.141        0.014      341.769       16.711      867.437
05/12/2013  02:42:00      -70.375      -12.997       -3.407       40.337       45.224       18.915     1627.087     2045.182      357.778        0.458        0.202       71.565       10.716        0.022      341.875       16.891      867.432
05/12/2013  02:43:00        1.067       88.256        3.314       44.447       54.740       25.366     1975.572     2996.436      643.411        0.671        0.281       88.262       27.246        0.095      342.574       18.079      867.431
05/12/2013  02:44:00     -104.394      -26.730        4.370       86.802       60.736       33.085     7534.651     3688.818     1094.644        1.197        0.616      107.761       41.658        0.149      342.010       17.120      867.428
05/12/2013  02:45:00      -54.808      -39.532        0.999       51.397       46.533       24.154     2641.657     2165.282      583.424        0.498        0.270       67.577       21.866        0.105      341.830       16.815      867.431
05/12/2013  02:46:00     -113.110      -45.002      -16.055       62.699       66.899       33.233     3931.133     4475.455     1104.442        1.229        0.476      121.733       28.609        0.055      342.399       17.781      867.438
05/12/2013  02:47:00      -49.686      100.693      -14.266       23.280       47.143       22.359      541.980     2222.436      499.922        0.804        0.163      112.285       16.731        0.022      343.050       18.888      867.412
05/12/2013  02:48:00      -66.176       28.922       -9.833       35.139       29.593       23.347     1234.770      875.745      545.106        0.398        0.133       72.221       19.871        0.076      342.468       17.897      867.406
05/12/2013  02:49:00      -96.421      -32.071      -19.273       61.458       28.911       19.755     3777.092      835.859      390.273        0.785        0.250      101.614       24.037        0.056      342.119       17.306      867.408
05/12/2013  02:50:00     -104.877      -91.765       -8.195       44.493       32.202       28.345     1979.612     1036.985      803.467        1.165        0.191      139.355        8.431        0.004      342.087       17.252      867.419
05/12/2013  02:51:00      -95.564      -66.195       -2.416       32.318       35.211       23.173     1044.455     1239.811      536.976        0.817        0.141      116.251       17.673        0.023      342.135       17.332      867.411
05/12/2013  02:52:00     -173.357      -74.015        0.332       47.994       35.350       28.137     2303.456     1249.622      791.673        1.994        0.217      188.497       27.165        0.021      341.904       16.941      867.403
05/12/2013  02:53:00     -193.446      -56.215       -3.748       64.827       62.757       33.009     4202.518     3938.392     1089.570        2.491        0.462      201.448       32.733        0.026      341.729       16.640      867.403
05/12/2013  02:54:00     -165.410      -33.793       -6.523       64.187       43.790       34.138     4119.908     1917.534     1165.417        1.787        0.360      168.826       34.648        0.042      341.792       16.751      867.410
05/12/2013  02:55:00     -199.778       -8.012      -15.638       40.180       35.581       22.289     1614.443     1265.991      496.813        2.180        0.169      199.939       15.676        0.006      341.659       16.524      867.411
05/12/2013  02:56:00     -174.760       -7.176      -17.268       40.980       37.896       25.260     1679.379     1436.091      638.089        1.732        0.188      174.907       24.181        0.019      341.623       16.465      867.410
05/12/2013  02:57:00     -174.096       -1.091      -15.275       30.522       35.020       22.110      931.577     1226.432      488.832        1.659        0.132      174.099       17.900        0.011      341.658       16.525      867.402
05/12/2013  02:58:00     -136.521       21.337      -10.797       43.681       28.230       25.650     1908.037      796.906      657.918        1.129        0.168      138.178       22.556        0.027      341.704       16.602      867.401
05/12/2013  02:59:00      -77.919      -20.958       -3.463       33.546       33.853       25.901     1125.347     1146.010      670.857        0.473        0.147       80.688       22.549        0.078      341.707       16.608      867.396
05/12/2013  03:00:00      -87.908      -41.018       -3.954       37.771       32.328       24.388     1426.619     1045.128      594.751        0.625        0.153       97.006        5.664        0.003      341.675       16.552      867.374
05/12/2013  03:01:00     -151.397      -56.099      -11.847       35.856       42.205       22.788     1285.622     1781.279      519.298        1.490        0.179      161.456        7.655        0.002      341.624       16.465      867.382
05/12/2013  03:02:00     -173.331      -62.474      -23.532       26.769       36.320       22.697      716.587     1319.130      515.144        1.853        0.128      184.246       14.297        0.006      341.619       16.456      867.392
05/12/2013  03:03:00     -144.826      -11.904       -1.155       56.701       40.796       35.196     3215.021     1664.353     1238.763        1.362        0.306      145.315       34.375        0.056      341.715       16.621      867.401
05/12/2013  03:04:00     -141.704       51.317      -15.533       39.655       42.056       27.199     1572.527     1768.713      739.773        1.352        0.204      150.710       22.091        0.021      341.784       16.739      867.390
05/12/2013  03:05:00     -161.497       51.382       -9.669       43.947       32.766       27.717     1931.342     1073.608      768.221        1.629        0.189      169.474       22.251        0.017      341.825       16.806      867.394
05/12/2013  03:06:00     -169.741       22.859      -20.561       43.700       31.221       19.959     1909.658      974.748      398.369        1.652        0.164      171.273       15.661        0.008      341.740       16.662      867.388
05/12/2013  03:07:00     -134.248      -14.700      -17.346       33.873       37.912       18.527     1147.376     1437.310      343.237        1.073        0.146      135.051       12.736        0.009      341.734       16.652      867.387
05/12/2013  03:08:00     -148.415      -24.903      -13.701       46.289       28.167       25.572     2142.687      793.381      653.910        1.321        0.179      150.490       20.033        0.018      341.692       16.581      867.377
05/12/2013  03:09:00     -148.142      -15.075      -20.417       28.918       24.824       17.551      836.245      616.244      308.047        1.218        0.088      148.907       10.959        0.005      341.672       16.547      867.377
05/12/2013  03:10:00     -132.530      -24.078      -15.247       31.395       23.098       17.760      985.652      533.509      315.405        1.011        0.092      134.700       13.526        0.010      341.665       16.536      867.389
05/12/2013  03:11:00     -137.683      -19.030      -13.295       39.053       37.907       21.653     1525.118     1436.923      468.864        1.146        0.172      138.992       22.043        0.025      341.644       16.502      867.404
05/12/2013  03:12:00     -150.488      -22.347      -16.538       47.649       42.178       23.119     2270.455     1778.985      534.497        1.400        0.229      152.138       21.451        0.020      341.618       16.455      867.405
05/12/2013  03:13:00     -144.531      -16.909       -8.587       34.766       34.396       20.779     1208.683     1183.115      431.779        1.204        0.141      145.517       19.390        0.018      341.670       16.544      867.419
05/12/2013  03:14:00     -126.424       11.755      -11.392       20.908       26.409       15.296      437.137      697.438      233.957        0.881        0.068      126.969        9.853        0.006      341.627       16.472      867.425
05/12/2013  03:15:00     -131.503       21.518      -22.154       41.910       56.376       20.083     1756.476     3178.214      403.329        1.179        0.267      133.252       15.636        0.014      341.735       16.655      867.418
05/12/2013  03:16:00      -95.932       24.745      -10.778       38.547       46.267       17.887     1485.886     2140.637      319.954        0.694        0.197       99.072       16.927        0.029      342.065       17.215      867.419
05/12/2013  03:17:00      -71.250        7.977       -9.965       31.648       17.921       10.109     1001.575      321.165      102.186        0.333        0.071       71.695       11.420        0.025      341.779       16.728      867.411
05/12/2013  03:18:00      -31.361       -3.426       -0.279       25.010       13.475       11.786      625.490      181.572      138.908        0.097        0.047       31.548       10.480        0.110      341.688       16.576      867.389
05/12/2013  03:19:00      -76.156      -35.165      -11.196       25.447       18.870       10.471      647.565      356.090      109.637        0.414        0.056       83.883        5.757        0.005      341.668       16.541      867.398
05/12/2013  03:20:00      -87.237      -46.503       -9.177       21.680       15.821       11.363      470.022      250.292      129.118        0.535        0.042       98.858        7.110        0.005      341.707       16.607      867.407
05/12/2013  03:21:00      -35.987      -19.784       -3.751       28.485       17.639        9.092      811.392      311.123       82.668        0.145        0.060       41.066        7.864        0.037      341.746       16.674      867.403
05/12/2013  03:22:00     -174.320      -55.744       -9.096       36.867       26.062       17.983     1359.155      679.208      323.375        1.797        0.118      183.016       10.069        0.003      341.667       16.537      867.407
05/12/2013  03:23:00     -132.573      -25.825       -4.625       47.872       31.379       22.997     2291.713      984.619      528.846        1.103        0.190      135.065       21.898        0.026      341.620       16.458      867.417
05/12/2013  03:24:00     -156.239       -7.414      -13.558       26.504       20.646       16.319      702.479      426.267      266.298        1.302        0.070      156.415       15.210        0.009      341.671       16.546      867.422
05/12/2013  03:25:00     -186.412      -13.624      -21.116       17.987       19.960       12.999      323.516      398.413      168.979        1.814        0.045      186.910        9.843        0.003      341.566       16.367      867.423
05/12/2013  03:26:00     -115.765       -7.687      -16.782       41.679       28.626       16.776     1737.120      819.463      281.444        0.829        0.142      116.020       14.844        0.016      341.518       16.286      867.410
05/12/2013  03:27:00      -75.333      -25.197        1.342       37.870       27.598       17.782     1434.173      761.637      316.183        0.441        0.126       79.435       19.390        0.060      341.563       16.362      867.398
05/12/2013  03:28:00     -171.065      -81.952       -0.867       80.307       39.433       28.150     6449.151     1554.993      792.395        2.239        0.440      189.682       35.344        0.035      341.550       16.337      867.416
05/12/2013  03:29:00     -164.864      -37.501       -7.481       39.438       40.836       23.175     1555.321     1667.586      537.074        1.620        0.188      169.075       19.627        0.013      341.500       16.256      867.442
05/12/2013  03:30:00     -126.010      -23.487      -10.885       30.338       21.421       16.993      920.399      458.846      288.749        0.911        0.083      128.180       15.764        0.015      341.373       16.040      867.446
05/12/2013  03:31:00     -159.159        0.712      -17.955       29.480       28.904       16.734      869.097      835.431      280.023        1.382        0.099      159.161       13.736        0.007      341.386       16.062      867.439
05/12/2013  03:32:00     -137.918       25.902       -9.809       40.901       34.703       20.082     1672.862     1204.281      403.305        1.153        0.164      140.329       17.353        0.015      341.540       16.323      867.446
05/12/2013  03:33:00     -150.833       19.347       -9.613       28.958       24.472       14.926      838.568      598.895      222.792        1.244        0.083      152.069       11.973        0.006      341.568       16.369      867.446
05/12/2013  03:34:00     -124.421       11.336       -5.040       42.395       44.562       30.022     1797.306     1985.747      901.294        1.016        0.234      124.937       24.409        0.038      341.491       16.241      867.454
05/12/2013  03:35:00     -125.699       22.315      -19.507       25.502       30.406       15.122      650.342      924.515      228.679        0.924        0.090      127.665       13.311        0.011      341.707       16.605      867.453
05/12/2013  03:36:00     -132.591      -54.640        1.258       60.000       45.247       21.044     3599.958     2047.283      442.832        1.333        0.305      143.409       17.101        0.014      341.571       16.375      867.438
05/12/2013  03:37:00      -73.332      -25.923       -3.749       42.263       43.363       22.328     1786.160     1880.307      498.551        0.511        0.208       77.779       13.487        0.030      341.526       16.298      867.446
05/12/2013  03:38:00      -36.134        6.717       -5.159       28.085       12.997       11.717      788.793      168.913      137.288        0.124        0.055       36.753       14.426        0.154      341.514       16.278      867.444
05/12/2013  03:39:00      -74.708      -14.403       -8.062       50.419       46.492       18.008     2542.071     2161.528      324.289        0.544        0.251       76.083       14.864        0.038      341.612       16.447      867.444
05/12/2013  03:40:00     -136.254      -34.291       -4.364       51.813       37.530       23.812     2684.596     1408.466      567.005        1.221        0.233      140.503       28.620        0.041      341.403       16.091      867.451
05/12/2013  03:41:00      -53.341       11.548       -3.805       34.926       20.293       14.523     1219.811      411.786      210.919        0.242        0.092       54.577        9.166        0.028      341.477       16.217      867.445
05/12/2013  03:42:00      -26.411      -15.992       -7.359       33.302       21.606       11.091     1109.038      466.800      123.008        0.135        0.085       30.875       10.358        0.113      341.602       16.428      867.450
05/12/2013  03:43:00      -80.496      -35.605       -2.955       39.474       31.024       14.179     1558.230      962.492      201.034        0.524        0.136       88.019        7.211        0.007      341.767       16.707      867.471
05/12/2013  03:44:00     -112.467      -36.049       -5.949       33.805       28.066       15.041     1142.778      787.703      226.226        0.807        0.108      118.103       12.167        0.011      341.516       16.283      867.476
05/12/2013  03:45:00     -101.667      -29.718       -3.004       27.120       16.728       11.410      735.470      279.823      130.193        0.619        0.057      105.921        7.749        0.005      341.448       16.166      867.471
05/12/2013  03:46:00      -76.282      -48.089        2.396       37.599       24.742       17.035     1413.717      612.186      290.198        0.523        0.116       90.175       14.522        0.026      341.490       16.237      867.458
05/12/2013  03:47:00      -51.029      -26.175        6.923       37.839       22.272       18.106     1431.798      496.028      327.830        0.280        0.113       57.351       18.006        0.099      341.567       16.368      867.450
05/12/2013  03:48:00      -11.081      -37.118        8.924       22.796       22.404       16.970      519.649      501.924      287.969        0.144        0.065       38.737       10.962        0.080      341.622       16.462      867.445
05/12/2013  03:49:00      -23.561      -30.931       -1.862       27.193       26.021       14.777      739.481      677.110      218.353        0.157        0.082       38.882       12.010        0.095      341.771       16.714      867.434
05/12/2013  03:50:00      -76.069      -65.018       -3.235       38.375       28.863       17.727     1472.659      833.091      314.238        0.632        0.131      100.069        6.647        0.004      341.635       16.484      867.434
05/12/2013  03:51:00      -51.471      -77.171        4.194       41.193       39.222       22.504     1696.879     1538.392      506.432        0.618        0.187       92.761       25.464        0.075      341.535       16.315      867.434
05/12/2013  03:52:00      -90.386      -48.976       -4.607       40.192       27.028       25.703     1615.390      730.509      660.630        0.680        0.150      102.802        8.178        0.006      341.510       16.272      867.431
05/12/2013  03:53:00      -92.371      -49.517        6.399       58.679       44.423       29.388     3443.202     1973.439      863.628        0.865        0.314      104.806       30.110        0.083      341.396       16.079      867.437
05/12/2013  03:54:00      -81.009      -60.456       -0.262       44.177       40.091       20.691     1951.606     1607.312      428.118        0.710        0.199      101.081       21.662        0.046      341.418       16.117      867.448
05/12/2013  03:55:00      -45.803      -54.498       13.007       58.646       34.839       31.200     3439.375     1213.740      973.456        0.543        0.281       71.190       35.415        0.247      341.417       16.115      867.458
05/12/2013  03:56:00      -80.520     -107.392       -3.108       31.505       49.912       20.210      992.555     2491.177      408.460        1.096        0.195      134.226       14.692        0.012      341.451       16.172      867.455
05/12/2013  03:57:00      -72.274      -60.571        0.544       43.506       40.766       25.336     1892.750     1661.855      641.900        0.654        0.210       94.299       25.609        0.074      341.481       16.223      867.442
05/12/2013  03:58:00     -133.302      -96.662       -6.420       40.917       48.834       20.620     1674.238     2384.781      425.198        1.582        0.224      164.660       16.216        0.010      341.456       16.181      867.446
05/12/2013  03:59:00      -60.306      -56.523        6.911       38.812       30.934       23.205     1506.371      956.903      538.452        0.494        0.150       82.654       17.517        0.045      341.394       16.075      867.449
05/12/2013  04:00:00      -65.589      -80.581       -6.312       33.973       37.622       17.829     1154.179     1415.446      317.858        0.686        0.144      103.900       11.455        0.012      341.517       16.285      867.429
05/12/2013  04:01:00     -104.313      -69.369       -1.901       31.525       31.716       19.298      993.805     1005.879      372.430        0.903        0.119      125.272       16.078        0.016      341.492       16.240      867.418
05/12/2013  04:02:00     -109.346      -60.340        2.868       49.849       30.073       26.112     2484.964      904.397      681.849        0.984        0.204      124.890       21.676        0.030      341.383       16.058      867.432
05/12/2013  04:03:00      -60.721      -70.658        2.088       49.577       40.343       21.349     2457.859     1627.531      455.777        0.661        0.227       93.165       23.922        0.066      341.407       16.098      867.438
05/12/2013  04:04:00      -74.827      -74.102        8.902       41.812       40.776       27.631     1748.250     1662.659      763.475        0.767        0.209      105.310       23.436        0.050      341.401       16.087      867.441
05/12/2013  04:05:00      -81.443      -95.993       -1.539       43.931       36.712       22.383     1929.914     1347.739      501.005        0.981        0.189      125.888       25.457        0.041      341.387       16.065      867.439
05/12/2013  04:06:00      -85.006      -76.019      -10.930       41.021       37.289       21.364     1682.753     1390.476      456.421        0.833        0.176      114.039       26.824        0.055      341.389       16.067      867.429
05/12/2013  04:07:00      -93.694      -62.717       -3.708       38.751       28.590       16.022     1501.617      817.409      256.715        0.765        0.129      112.747        9.458        0.007      341.365       16.027      867.427
05/12/2013  04:08:00      -92.637      -52.221       -4.741       33.871       18.021       18.044     1147.276      324.766      325.591        0.656        0.090      106.342        3.104        0.001      341.293       15.905      867.431
05/12/2013  04:09:00      -69.737      -47.713       -3.380       28.601       14.935       10.597      818.042      223.048      112.300        0.415        0.058       84.498        6.136        0.005      341.296       15.911      867.434
05/12/2013  04:10:00      -78.464      -35.235        4.842       37.498       24.924       17.090     1406.101      621.196      292.060        0.487        0.116       86.012       18.302        0.045      341.250       15.831      867.435
05/12/2013  04:11:00      -76.393      -40.833        1.537       34.170       15.963       17.346     1167.601      254.814      300.872        0.461        0.086       86.621       17.264        0.040      341.253       15.837      867.429
05/12/2013  04:12:00      -57.606      -59.467        0.238       42.923       30.863       21.279     1842.376      952.541      452.790        0.505        0.162       82.793       15.039        0.033      341.280       15.883      867.422
05/12/2013  04:13:00      -64.843      -56.159        1.630       44.091       40.517       26.565     1944.023     1641.603      705.674        0.583        0.215       85.781       21.418        0.062      341.235       15.807      867.429
05/12/2013  04:14:00     -114.874      -87.721       -0.116       40.114       36.848       26.281     1609.126     1357.781      690.692        1.227        0.183      144.537       24.070        0.028      341.255       15.840      867.424
05/12/2013  04:15:00      -97.341      -54.755        6.843       53.529       30.871       23.547     2865.342      953.034      554.481        0.845        0.219      111.684       29.620        0.070      341.284       15.890      867.409
05/12/2013  04:16:00      -73.210      -55.449        1.001       49.516       38.496       22.512     2451.841     1481.971      506.777        0.644        0.222       91.838       24.863        0.073      341.176       15.707      867.401
05/12/2013  04:17:00     -100.223      -65.424       -2.676       26.296       24.402       18.911      691.474      595.470      357.638        0.799        0.082      119.687       14.266        0.014      341.230       15.799      867.397
05/12/2013  04:18:00      -89.246      -52.442       -1.427       33.051       25.296       18.494     1092.401      639.900      342.039        0.640        0.104      103.513       15.918        0.024      341.223       15.787      867.399
05/12/2013  04:19:00      -58.997      -32.859        0.970       39.676       28.483       23.079     1574.177      811.263      532.634        0.374        0.146       67.530       15.867        0.055      341.145       15.654      867.399
05/12/2013  04:20:00      -56.121      -40.682        6.463       26.752       19.718       15.417      715.644      388.795      237.684        0.309        0.067       69.315       12.982        0.035      341.121       15.613      867.395
05/12/2013  04:21:00      -24.158      -46.756       -6.116       23.685       19.602       14.530      560.968      384.256      211.135        0.198        0.058       52.629        8.196        0.024      341.192       15.733      867.387
05/12/2013  04:22:00      -16.428      -44.837       -4.183       20.504       23.351       17.461      420.412      545.279      304.891        0.178        0.064       47.752       11.421        0.057      341.245       15.823      867.395
05/12/2013  04:23:00      -12.800      -22.443        4.788       19.743       20.417       17.655      389.805      416.870      311.708        0.090        0.056       25.837       11.308        0.192      341.217       15.776      867.388
05/12/2013  04:24:00      -57.203      -59.935        0.896       29.922       24.947       19.454      895.299      622.361      378.461        0.438        0.095       82.852       15.908        0.037      341.127       15.625      867.378
05/12/2013  04:25:00     -111.663      -61.278       -2.692       45.432       25.981       19.552     2064.042      675.001      382.274        0.968        0.156      127.371       12.869        0.010      341.044       15.483      867.377
05/12/2013  04:26:00      -94.699      -61.427       -2.221       53.621       31.468       24.870     2875.179      990.211      618.530        0.861        0.224      112.877       28.801        0.065      340.925       15.281      867.385
05/12/2013  04:27:00     -111.956      -54.585       -8.256       22.271       28.554       18.824      495.983      815.308      354.351        0.862        0.083      124.554       12.895        0.011      340.929       15.289      867.386
05/12/2013  04:28:00      -74.950      -33.868        2.789       34.028       18.388       14.939     1157.878      338.133      223.183        0.425        0.086       82.247       18.308        0.050      340.908       15.254      867.375
05/12/2013  04:29:00     -134.918      -23.082       -4.171       37.664       22.494       19.676     1418.541      505.966      387.134        1.053        0.116      136.878       19.993        0.021      340.750       14.986      867.387
05/12/2013  04:30:00     -101.005      -13.939       -0.859       55.984       35.325       30.111     3134.246     1247.851      906.701        0.784        0.264      101.963       32.008        0.099      340.578       14.695      867.419
05/12/2013  04:31:00     -127.237      -10.301       -4.156       46.834       35.207       26.559     2193.441     1239.500      705.394        1.022        0.207      127.654       25.266        0.039      340.560       14.665      867.435
05/12/2013  04:32:00     -133.118      -25.448       -7.755       50.455       26.718       19.505     2545.716      713.829      380.441        1.103        0.182      135.529       22.738        0.028      340.617       14.761      867.437
05/12/2013  04:33:00     -114.189      -46.892        0.766       33.603       25.690       18.039     1129.159      659.989      325.417        0.868        0.106      123.442       13.985        0.013      340.596       14.726      867.435
05/12/2013  04:34:00     -118.354      -37.531       -2.873       23.844       25.993       14.658      568.520      675.634      214.847        0.844        0.073      124.162        8.989        0.005      340.824       15.113      867.435
05/12/2013  04:35:00     -108.392      -44.112       -1.891       22.885       20.734       15.581      523.717      429.886      242.753        0.745        0.060      117.025        6.130        0.003      340.856       15.165      867.442
05/12/2013  04:36:00      -50.224      -36.527       -0.489       36.047       19.155       15.427     1299.410      366.929      237.984        0.288        0.095       62.102       17.165        0.076      340.844       15.144      867.447
05/12/2013  04:37:00      -55.830      -32.199        3.366       29.311       23.571       16.468      859.134      555.609      271.199        0.293        0.084       64.450       16.210        0.063      340.941       15.310      867.440
05/12/2013  04:38:00      -93.128      -39.340      -11.825       16.128       16.919        9.726      260.098      286.256       94.590        0.550        0.032      101.096        5.468        0.003      340.951       15.326      867.438
05/12/2013  04:39:00     -102.200      -47.494       -7.705       29.683       15.790       13.265      881.088      249.330      175.972        0.703        0.065      112.696       10.774        0.009      340.911       15.258      867.445
05/12/2013  04:40:00      -93.965      -12.997        1.605       50.735       28.741       22.693     2574.085      826.039      514.956        0.646        0.196       94.859       24.599        0.067      340.655       14.827      867.455
05/12/2013  04:41:00     -101.331        1.731       -5.289       35.417       21.767       17.130     1254.378      473.808      293.437        0.616        0.101      101.345       16.373        0.026      340.605       14.741      867.456
05/12/2013  04:42:00      -91.110        1.213       -5.049       31.877       22.203       18.147     1016.157      492.989      329.322        0.508        0.092       91.118       16.019        0.031      340.648       14.813      867.448
05/12/2013  04:43:00      -75.390      -16.419       -2.308       32.721       38.919       20.366     1070.694     1514.723      414.793        0.448        0.150       77.158       16.606        0.046      340.648       14.815      867.448
05/12/2013  04:44:00      -94.666      -16.946       -3.934       57.578       45.963       24.369     3315.170     2112.614      593.842        0.764        0.301       96.170       23.329        0.059      340.624       14.775      867.456
05/12/2013  04:45:00     -125.581       -6.708       -9.741       48.769       55.448       27.109     2378.388     3074.520      734.877        1.105        0.309      125.760       25.092        0.040      340.498       14.560      867.448
05/12/2013  04:46:00     -136.280       18.802       -8.970       64.379       39.498       26.274     4144.655     1560.054      690.324        1.270        0.320      137.571       26.698        0.038      340.486       14.537      867.461
05/12/2013  04:47:00     -104.760      -15.030       -8.216       51.645       39.689       22.458     2667.212     1575.192      504.352        0.801        0.237      105.832       20.226        0.037      340.498       14.559      867.470
05/12/2013  04:48:00      -40.186      -17.059        6.065       41.285       47.434       17.953     1704.411     2249.981      322.293        0.311        0.214       43.657       12.397        0.081      340.468       14.510      867.472
05/12/2013  04:49:00      -68.903      -14.802        2.718       35.070       29.028       18.599     1229.908      842.653      345.922        0.370        0.121       70.475        8.945        0.016      340.386       14.371      867.478
05/12/2013  04:50:00     -123.069      -36.899      -14.997       20.183       23.029       12.235      407.339      530.332      149.685        0.891        0.054      128.481        8.649        0.005      340.355       14.318      867.479
05/12/2013  04:51:00      -72.612      -58.923       -7.590       24.999       28.306       15.209      624.938      801.214      231.327        0.523        0.083       93.512       10.824        0.013      340.399       14.392      867.481
05/12/2013  04:52:00      -21.334      -59.710        2.314       20.290       11.376       19.130      411.701      129.420      365.964        0.247        0.045       63.407       11.063        0.030      340.449       14.478      867.466
05/12/2013  04:53:00      -46.922      -43.726       -2.423       34.715       18.071       21.741     1205.120      326.568      472.652        0.306        0.100       64.138       19.918        0.096      340.525       14.606      867.456
05/12/2013  04:54:00     -144.553      -44.263      -14.960       17.197       14.740       14.642      295.743      217.276      214.374        1.190        0.036      151.178        7.346        0.002      340.499       14.561      867.462
05/12/2013  04:55:00     -117.876      -19.244      -17.453       26.813       30.444       13.757      718.939      926.820      189.260        0.820        0.092      119.436        7.064        0.003      340.454       14.485      867.477
05/12/2013  04:56:00      -54.412       -7.016       -8.205       15.451       15.564       12.338      238.742      242.225      152.216        0.186        0.032       54.862       10.413        0.036      340.797       15.065      867.485
05/12/2013  04:57:00      -81.648      -38.414      -10.529       22.326       17.530       14.726      498.460      307.311      216.852        0.464        0.051       90.234        8.747        0.009      340.768       15.017      867.481
05/12/2013  04:58:00      -79.285      -48.467      -15.064       33.513       21.160       25.105     1123.099      447.726      630.286        0.553        0.110       92.925       20.887        0.051      340.372       14.348      867.489
05/12/2013  04:59:00      -90.531      -39.219       -4.642       36.496       23.569       18.099     1331.989      555.517      327.586        0.598        0.111       98.661       16.299        0.027      340.382       14.362      867.491
05/12/2013  05:00:00      -65.830      -38.890       -1.214       22.464       20.352       14.593      504.643      414.196      212.957        0.349        0.057       76.459       11.415        0.022      340.431       14.447      867.490
05/12/2013  05:01:00      -92.035      -22.993      -10.470       10.972       11.926        9.262      120.393      142.240       85.792        0.473        0.017       94.864        5.741        0.004      340.464       14.503      867.489
05/12/2013  05:02:00      -92.968      -26.242      -11.315       15.370       17.909       10.783      236.225      320.731      116.264        0.507        0.034       96.600        7.409        0.006      340.432       14.447      867.488
05/12/2013  05:03:00      -92.332      -34.894       -8.410       21.021       22.853       12.895      441.870      522.261      166.290        0.547        0.057       98.706        9.271        0.009      340.373       14.349      867.489
05/12/2013  05:04:00      -91.716      -69.292       -7.601       37.775       30.047       25.105     1426.973      902.840      630.241        0.812        0.148      114.949       21.069        0.034      340.418       14.425      867.491
05/12/2013  05:05:00      -93.760      -50.773       -8.745       46.579       19.872       20.575     2169.606      394.915      423.327        0.722        0.149      106.624       16.927        0.025      340.386       14.371      867.482
05/12/2013  05:06:00     -111.954      -20.629      -12.672       15.667       19.317       13.971      245.462      373.159      195.185        0.697        0.041      113.839        9.476        0.007      340.390       14.378      867.483
05/12/2013  05:07:00      -93.170      -26.441       -2.026       41.213       31.423       19.869     1698.550      987.385      394.790        0.623        0.154       96.850       18.794        0.038      340.382       14.363      867.503
05/12/2013  05:08:00      -85.351      -39.977       -6.157       30.512       24.260       17.064      930.973      588.565      291.171        0.537        0.091       94.249        6.298        0.004      340.394       14.385      867.504
05/12/2013  05:09:00     -115.210      -60.174      -13.811       20.690       27.164       17.401      428.085      737.894      302.784        0.928        0.073      129.977       11.614        0.008      340.352       14.315      867.506
05/12/2013  05:10:00      -98.637      -58.678       -1.770       44.455       27.583       22.434     1976.209      760.841      503.292        0.821        0.162      114.771       22.367        0.038      340.401       14.394      867.514
05/12/2013  05:11:00      -74.947      -42.906       -2.972       26.501       29.036       16.063      702.310      843.104      258.035        0.463        0.090       86.360       14.369        0.028      340.408       14.409      867.523
05/12/2013  05:12:00      -99.098        5.985       -7.641       44.191       41.003       23.335     1952.807     1681.258      544.540        0.705        0.209       99.279       21.102        0.045      340.339       14.290      867.513
05/12/2013  05:13:00     -110.517      -16.772       -6.862       42.799       27.311       21.433     1831.751      745.891      459.378        0.779        0.152      111.782       19.354        0.030      340.364       14.333      867.505
05/12/2013  05:14:00      -71.252      -43.387       -1.655       41.290       36.153       17.387     1704.837     1307.066      302.323        0.514        0.166       83.422       16.155        0.038      340.328       14.273      867.491
05/12/2013  05:15:00     -146.865      -55.087       -6.895       23.118       27.171       18.860      534.426      738.283      355.705        1.314        0.081      156.856       14.065        0.008      340.331       14.278      867.506
05/12/2013  05:16:00     -164.236      -48.361      -10.889       18.928       22.138       12.715      358.255      490.074      161.680        1.522        0.051      171.209        5.798        0.001      340.334       14.283      867.517
05/12/2013  05:17:00     -127.624      -45.620       -2.300       27.235       23.812       15.788      741.764      567.007      249.261        0.997        0.078      135.532       13.881        0.010      340.331       14.277      867.518
05/12/2013  05:18:00     -162.421      -46.883       -9.508       24.776       28.837       21.505      613.849      831.585      462.472        1.529        0.095      169.052       16.387        0.009      340.460       14.496      867.525
05/12/2013  05:19:00     -125.446      -37.229       -9.536       31.849       23.740       18.387     1014.345      563.587      338.080        0.956        0.096      130.854       15.909        0.015      340.337       14.287      867.542
05/12/2013  05:20:00      -91.552      -36.624        0.545       30.322       32.828       15.171      919.410     1077.659      230.152        0.597        0.111       98.606       13.717        0.019      340.436       14.455      867.535
05/12/2013  05:21:00     -110.754      -51.620      -11.575       26.864       30.309       19.639      721.669      918.641      385.671        0.855        0.101      122.193       15.489        0.016      340.387       14.373      867.530
05/12/2013  05:22:00      -65.033      -40.405        5.239       35.273       25.707       21.120     1244.150      660.837      446.053        0.412        0.118       76.563       17.012        0.049      340.345       14.302      867.534
05/12/2013  05:23:00      -39.536      -37.392        7.248       48.166       27.494       23.611     2319.928      755.901      557.471        0.332        0.182       54.417       23.875        0.192      340.489       14.544      867.532
05/12/2013  05:24:00     -116.895      -64.950       -1.292       32.214       25.064       22.484     1037.756      628.209      505.531        1.003        0.109      133.727       13.538        0.010      340.485       14.537      867.523
05/12/2013  05:25:00     -115.434      -71.127       -8.272       34.398       24.840       15.559     1183.246      617.015      242.069        1.025        0.102      135.588        9.369        0.005      340.421       14.431      867.522
05/12/2013  05:26:00      -91.894      -69.269      -10.225       31.505       20.054       21.774      992.579      402.163      474.088        0.761        0.093      115.077       10.487        0.008      340.452       14.483      867.536
05/12/2013  05:27:00     -105.154      -38.694      -12.055       18.016       14.550       12.352      324.577      211.710      152.580        0.669        0.034      112.047        8.668        0.006      340.488       14.542      867.539
05/12/2013  05:28:00      -77.994      -23.862       -1.267       19.615       14.575        8.927      384.746      212.428       79.683        0.367        0.034       81.562        6.869        0.007      340.504       14.570      867.537
05/12/2013  05:29:00      -76.600      -44.849       -8.781       17.472       17.687       14.467      305.269      312.837      209.285        0.439        0.041       88.764       10.502        0.014      340.558       14.662      867.544
05/12/2013  05:30:00     -121.616      -47.371       -2.849       35.442       32.031       20.702     1256.153     1025.992      428.556        0.988        0.136      130.516       18.138        0.019      340.547       14.642      867.553
05/12/2013  05:31:00      -82.303      -31.313       -9.146       25.911       18.639       10.402      671.362      347.399      108.193        0.448        0.056       88.058        9.427        0.011      340.471       14.513      867.551
05/12/2013  05:32:00      -56.808      -27.552       -5.144       20.123       18.193       13.132      404.953      330.976      172.458        0.246        0.045       63.137       10.701        0.029      340.489       14.544      867.550
05/12/2013  05:33:00      -91.802      -42.676       -7.030       27.899       13.833       10.872      778.381      191.347      118.209        0.569        0.054      101.237       10.351        0.010      340.520       14.598      867.556
05/12/2013  05:34:00      -20.638      -19.547        6.479       28.509       22.286       13.691      812.754      496.684      187.438        0.117        0.075       28.425       13.427        0.223      340.486       14.539      867.548
05/12/2013  05:35:00      -28.458      -22.283        5.879       32.363       19.144       18.025     1047.337      366.490      324.905        0.154        0.087       36.144       20.590        0.325      340.478       14.526      867.541
05/12/2013  05:36:00      -73.438      -47.314        1.031       29.090       18.770       12.607      846.246      352.330      158.930        0.449        0.068       87.360        3.686        0.002      340.515       14.590      867.550
05/12/2013  05:37:00      -87.772      -64.575       -0.086       41.299       31.962       20.197     1705.622     1021.557      407.924        0.750        0.157      108.967       16.918        0.024      340.536       14.624      867.556
05/12/2013  05:38:00      -69.182      -63.909        4.308       57.161       31.816       21.711     3267.376     1012.272      471.389        0.682        0.238       94.184       16.019        0.029      340.530       14.615      867.568
05/12/2013  05:39:00      -90.370      -51.080        2.523       44.239       30.139       21.305     1957.073      908.355      453.885        0.705        0.166      103.807       20.861        0.040      340.667       14.846      867.579
05/12/2013  05:40:00      -64.417      -52.930       13.342       57.538       35.160       22.520     3310.622     1236.238      507.143        0.609        0.253       83.374       23.719        0.081      340.629       14.782      867.605
05/12/2013  05:41:00      -82.784      -59.075        2.782       55.114       36.698       30.190     3037.526     1346.721      911.452        0.782        0.265      101.701       26.786        0.069      340.552       14.651      867.636
05/12/2013  05:42:00      -86.110      -32.973       -7.509       23.440       25.005       18.766      549.416      625.257      352.164        0.504        0.076       92.207       13.146        0.020      340.648       14.814      867.631
05/12/2013  05:43:00      -76.640      -55.938        7.096       37.484       27.032       17.927     1405.070      730.708      321.369        0.575        0.123       94.883       17.261        0.033      340.688       14.881      867.632
05/12/2013  05:44:00      -21.473      -39.199       12.006       36.931       32.898       24.707     1363.925     1082.260      610.441        0.260        0.153       44.695       26.247        0.345      340.632       14.787      867.656
05/12/2013  05:45:00      -78.612      -71.710        4.456       40.633       31.209       20.445     1651.072      974.005      417.997        0.719        0.152      106.406       19.622        0.034      340.638       14.798      867.678
05/12/2013  05:46:00      -74.557      -47.611       -2.282       27.823       21.069       15.319      774.108      443.911      234.672        0.464        0.073       88.462       16.321        0.034      340.588       14.714      867.682
05/12/2013  05:47:00      -65.489      -59.874        1.197       32.827       16.641       17.670     1077.628      276.933      312.243        0.477        0.083       88.733       14.492        0.027      340.556       14.659      867.673
05/12/2013  05:48:00      -33.059      -44.349        2.073       30.744       29.225       16.788      945.220      854.099      281.830        0.257        0.104       55.315        9.059        0.027      340.612       14.753      867.671
05/12/2013  05:49:00      -39.078      -59.562        1.735       26.701       22.814       14.412      712.959      520.466      207.720        0.326        0.072       71.237       14.692        0.043      340.694       14.892      867.661
05/12/2013  05:50:00      -80.337      -19.336       -7.229       43.919       26.894       17.629     1928.864      723.305      310.765        0.492        0.148       82.631       23.386        0.080      340.553       14.653      867.659
05/12/2013  05:51:00     -120.434       -3.390       -6.890       59.099       37.189       27.357     3492.663     1383.003      748.388        1.009        0.281      120.481       24.434        0.041      340.220       14.090      867.679
05/12/2013  05:52:00     -109.108      -13.412        1.627       45.422       29.685       23.592     2063.148      881.178      556.584        0.779        0.175      109.930       24.330        0.049      340.155       13.982      867.695
05/12/2013  05:53:00      -81.770       11.896       -2.120       40.263       25.111       17.871     1621.080      630.540      319.368        0.470        0.129       82.631       20.065        0.059      340.329       14.274      867.679
05/12/2013  05:54:00     -121.277      -21.811       -4.761       33.803       24.688       16.812     1142.664      609.486      282.651        0.862        0.102      123.222       15.278        0.015      340.386       14.370      867.690
05/12/2013  05:55:00      -78.446      -25.429       -2.684       36.001       23.582       17.267     1296.061      556.117      298.152        0.448        0.108       82.464       18.347        0.050      340.261       14.159      867.700
05/12/2013  05:56:00      -75.953      -18.070        0.856       21.001       18.410       11.216      441.049      338.930      125.797        0.350        0.045       78.073        6.965        0.008      340.301       14.227      867.690
05/12/2013  05:57:00      -37.167      -32.405        1.404       32.218       22.360       19.234     1037.989      499.968      369.937        0.217        0.095       49.310       18.592        0.142      340.441       14.463      867.694
05/12/2013  05:58:00      -87.980      -75.405       -8.448       16.453       23.388       14.560      270.712      547.021      212.000        0.726        0.051      115.872        6.429        0.003      340.551       14.648      867.698
05/12/2013  05:59:00      -79.639      -33.304       -3.701       37.623       21.597       13.487     1415.523      466.439      181.887        0.476        0.103       86.322        9.680        0.013      340.496       14.558      867.704
05/12/2013  06:00:00      -65.899       -1.012        1.917       25.225       23.992       17.165      636.285      575.604      294.636        0.293        0.075       65.907       15.948        0.059      340.310       14.243      867.707
05/12/2013  06:01:00      -62.026       -0.603        2.715       37.190       23.159       16.975     1383.120      536.331      288.158        0.303        0.110       62.029       16.253        0.069      340.390       14.377      867.708
05/12/2013  06:02:00      -70.443      -42.753        0.474       27.908       15.085        8.914      778.853      227.550       79.462        0.394        0.054       82.402       10.312        0.016      340.479       14.529      867.715
05/12/2013  06:03:00      -73.532      -23.624        0.083       15.699       17.320        9.782      246.447      299.979       95.680        0.330        0.032       77.234        8.015        0.011      340.510       14.580      867.722
05/12/2013  06:04:00      -88.927      -10.437       -6.661        8.595       11.826        7.404       73.866      139.863       54.814        0.416        0.013       89.538        3.560        0.002      340.483       14.534      867.732
05/12/2013  06:05:00      -80.752       -2.141       -6.376       19.108       13.226       11.412      365.118      174.930      130.245        0.362        0.034       80.780       10.484        0.017      340.461       14.497      867.736
05/12/2013  06:06:00      -94.187       -7.393      -13.271       14.791       12.304        8.373      218.782      151.399       70.106        0.477        0.022       94.477        4.462        0.002      340.458       14.492      867.747
05/12/2013  06:07:00     -107.837      -10.369      -10.715       21.211       14.736       10.944      449.898      217.139      119.763        0.632        0.039      108.335        9.639        0.008      340.433       14.450      867.758
05/12/2013  06:08:00     -103.997      -36.346       -3.770       13.472       10.361        7.112      181.486      107.342       50.574        0.624        0.017      110.166        7.650        0.005      340.480       14.529      867.753
05/12/2013  06:09:00      -90.531       -7.655       -9.778       17.456       13.562        8.987      304.706      183.931       80.769        0.446        0.028       90.854        6.905        0.006      340.462       14.496      867.751
05/12/2013  06:10:00      -81.270      -10.956       -5.593       18.773       17.798       12.753      352.410      316.771      162.630        0.379        0.042       82.005        9.792        0.014      340.419       14.427      867.762
05/12/2013  06:11:00      -84.624      -32.601       -6.622       18.437       19.878       14.427      339.917      395.143      208.139        0.461        0.047       90.686        8.974        0.010      340.487       14.542      867.785
05/12/2013  06:12:00      -79.211      -11.373       -4.090       26.307       21.218       14.349      692.070      450.219      205.906        0.388        0.067       80.024       11.141        0.019      340.447       14.474      867.810
05/12/2013  06:13:00      -54.869      -20.885        2.931       21.705       13.147       11.977      471.104      172.838      143.459        0.212        0.039       58.709        9.443        0.026      340.429       14.444      867.820
05/12/2013  06:14:00      -50.708       -0.145        0.230       23.145       15.592       10.688      535.669      243.096      114.223        0.173        0.045       50.708       12.353        0.059      340.386       14.371      867.822
05/12/2013  06:15:00      -68.659        5.016       -5.070       22.902       13.913        8.263      524.480      193.560       68.279        0.278        0.039       68.842        7.488        0.012      340.279       14.188      867.834
05/12/2013  06:16:00      -60.078      -32.331       -9.395       30.449       22.989       11.004      927.112      528.505      121.089        0.316        0.079       68.225        8.799        0.017      340.373       14.350      867.825
05/12/2013  06:17:00      -28.885      -49.315       -4.074       25.565       11.021        9.071      653.552      121.460       82.283        0.207        0.043       57.151        9.033        0.025      340.500       14.562      867.819
05/12/2013  06:18:00     -109.115      -29.926       -5.444       19.018       15.845        8.943      361.686      251.053       79.972        0.676        0.035      113.145        6.606        0.003      340.445       14.471      867.832
05/12/2013  06:19:00      -95.691      -14.587       -3.080       32.546       20.693       16.063     1059.228      428.199      258.004        0.556        0.087       96.797       17.451        0.033      340.438       14.459      867.849
05/12/2013  06:20:00     -111.742       13.352      -10.709       16.726       18.965       14.300      279.774      359.655      204.494        0.681        0.042      112.537        8.118        0.005      340.253       14.145      867.867
05/12/2013  06:21:00     -102.894      -23.997       -7.326       25.087       18.133       11.304      629.349      328.810      127.773        0.615        0.054      105.655       11.719        0.012      340.323       14.265      867.878
05/12/2013  06:22:00      -96.376      -32.625       -7.640       18.472       19.788        8.066      341.199      391.558       65.060        0.560        0.040      101.749        6.340        0.004      340.452       14.482      867.874
05/12/2013  06:23:00      -71.534      -24.036        0.436       31.364       17.764       14.139      983.695      315.577      199.900        0.360        0.075       75.464       16.254        0.046      340.417       14.422      867.887
05/12/2013  06:24:00      -74.227       12.788       -8.052       13.409       12.303        9.150      179.808      151.358       83.731        0.308        0.021       75.321        5.816        0.006      340.284       14.199      867.894
05/12/2013  06:25:00      -75.238      -22.774       -3.787       20.125       15.453       11.879      405.020      238.793      141.110        0.349        0.039       78.609        7.172        0.008      340.338       14.289      867.907
05/12/2013  06:26:00     -104.289        0.564       -7.559       23.553       27.178       17.985      554.734      738.668      323.466        0.627        0.081      104.290       12.505        0.014      340.323       14.266      867.909
05/12/2013  06:27:00      -97.479      -33.294      -11.256       45.037       31.422       25.866     2028.313      987.339      669.035        0.721        0.184      103.008       27.110        0.069      340.335       14.283      867.915
05/12/2013  06:28:00      -79.874        9.775       -7.664       34.094       24.931       19.339     1162.394      621.536      374.010        0.435        0.108       80.470       18.741        0.054      340.362       14.329      867.922
05/12/2013  06:29:00      -96.879      -15.410       -9.074       19.933       15.688       13.315      397.310      246.099      177.280        0.526        0.041       98.097        9.007        0.008      340.354       14.318      867.933
05/12/2013  06:30:00     -109.314      -37.578       -8.667       15.202       16.191       11.102      231.107      262.161      123.248        0.703        0.031      115.593        7.606        0.004      340.373       14.350      867.944
05/12/2013  06:31:00      -96.700      -20.164        0.313       30.718       32.429       16.853      943.583     1051.671      284.035        0.602        0.114       98.780       17.887        0.033      340.401       14.395      867.934
05/12/2013  06:32:00      -97.849      -16.037       -5.795       49.174       23.080       16.838     2418.060      532.692      283.521        0.655        0.162       99.155       22.419        0.051      340.504       14.570      867.942
05/12/2013  06:33:00      -90.515      -20.601       -0.853       27.516       17.524       14.450      757.134      307.082      208.794        0.495        0.064       92.830       14.606        0.025      340.471       14.515      867.953
05/12/2013  06:34:00      -80.862      -23.897       -5.053       17.782       17.971       12.368      316.199      322.971      152.970        0.396        0.040       84.320        9.956        0.014      340.546       14.642      867.963
05/12/2013  06:35:00      -52.588      -25.438       -1.912       19.292       16.683        9.166      372.197      278.326       84.009        0.208        0.037       58.418        8.658        0.022      340.668       14.849      867.980
05/12/2013  06:36:00      -63.042       -7.894       -8.238       17.568       17.123        9.451      308.623      293.202       89.319        0.240        0.035       63.534        7.881        0.015      340.654       14.826      867.980
05/12/2013  06:37:00      -47.607      -18.735       -3.883       15.754       13.525        9.349      248.183      182.916       87.399        0.158        0.026       51.161        7.658        0.022      340.634       14.791      867.979
05/12/2013  06:38:00      -42.788      -15.936       -9.109        8.463        9.176       11.084       71.627       84.202      122.852        0.122        0.014       45.659        6.913        0.023      340.759       14.999      867.985
05/12/2013  06:39:00      -24.264      -13.419       -8.413       17.407       13.639       12.414      302.991      186.032      154.104        0.074        0.032       27.727        4.989        0.032      340.728       14.947      867.974
05/12/2013  06:40:00      -13.256      -21.900       -2.201       20.609       15.486        9.720      424.736      239.822       94.488        0.071        0.038       25.599        9.337        0.133      340.722       14.939      867.976
05/12/2013  06:41:00        2.799      -17.427        5.259       11.128       16.675       15.377      123.828      278.054      236.441        0.049        0.032       17.650       13.918        0.622      340.938       15.305      867.971
05/12/2013  06:42:00       -5.699      -11.193        3.577        8.952       10.980       11.377       80.133      120.560      129.441        0.025        0.017       12.560        6.950        0.306      341.119       15.610      867.976
05/12/2013  06:43:00      -42.921      -25.590       -1.574       13.276       12.326        6.227      176.262      151.934       38.777        0.143        0.018       49.971        5.189        0.011      340.904       15.247      867.979
05/12/2013  06:44:00      -20.825       -7.950        4.523       24.785       12.945       14.796      614.278      167.574      218.929        0.076        0.050       22.291       10.912        0.240      341.048       15.489      867.982
05/12/2013  06:45:00      -10.696      -17.785        5.255       23.044       20.531       15.147      531.036      421.524      229.446        0.082        0.059       20.753       13.082        0.397      341.059       15.509      867.995
05/12/2013  06:46:00       -9.393      -16.832       12.907       24.311       20.277       16.579      591.035      411.173      274.850        0.091        0.064       19.275       14.255        0.547      341.077       15.539      868.002
05/12/2013  06:47:00      -19.113      -12.170       13.957       18.736       20.055       13.159      351.032      402.217      173.153        0.082        0.046       22.659       11.814        0.272      341.014       15.434      868.018
05/12/2013  06:48:00      -29.134      -24.817        4.297       17.789       31.528       13.581      316.458      993.985      184.445        0.149        0.075       38.271       12.696        0.110      340.898       15.235      868.039
05/12/2013  06:49:00      -72.515      -19.374       -0.001       36.397       19.436       18.147     1324.738      377.768      329.322        0.383        0.102       75.059       15.362        0.042      340.877       15.201      868.057
05/12/2013  06:50:00      -56.691      -29.416        1.964       29.344       26.069       16.021      861.045      679.580      256.684        0.294        0.090       63.868       11.233        0.031      340.820       15.104      868.079
05/12/2013  06:51:00      -48.150      -33.758        1.294       23.971       25.360       12.932      574.593      643.137      167.247        0.242        0.069       58.805        8.191        0.019      340.809       15.087      868.089
05/12/2013  06:52:00      -21.897      -14.313        9.323       21.759       17.800       14.114      473.455      316.844      199.196        0.088        0.049       26.160       10.829        0.171      340.921       15.277      868.091
05/12/2013  06:53:00      -13.214      -27.322        6.737       24.378       17.545       19.049      594.305      307.812      362.870        0.112        0.063       30.349       14.188        0.219      340.902       15.242      868.109
05/12/2013  06:54:00      -36.994      -31.998       -2.911       34.964       21.778       21.550     1222.455      474.263      464.386        0.228        0.108       48.913       17.494        0.128      340.857       15.167      868.104
05/12/2013  06:55:00        6.001      -17.970        4.263       16.800       16.903       16.611      282.238      285.710      275.915        0.061        0.042       18.946        2.235        0.014      340.987       15.387      868.106
05/12/2013  06:56:00       -6.058      -19.767       12.388       28.200       21.478       19.675      795.228      461.284      387.105        0.111        0.082       20.675       12.814        0.384      340.815       15.095      868.095
05/12/2013  06:57:00      -52.210      -38.924       -3.855       30.328       20.179       12.627      919.786      407.177      159.434        0.287        0.074       65.122       12.180        0.035      340.837       15.133      868.112
05/12/2013  06:58:00      -17.241      -22.553        7.392       30.043       17.200       16.013      902.557      295.837      256.415        0.116        0.073       28.388       16.031        0.319      340.881       15.207      868.119
05/12/2013  06:59:00      -22.517      -22.852        7.752       35.590       19.783       18.720     1266.633      391.383      350.455        0.155        0.100       32.082       19.782        0.380      341.016       15.436      868.129
05/12/2013  07:00:00      -31.946      -28.306       -5.526       37.184       15.985       17.949     1382.639      255.521      322.154        0.191        0.098       42.682       16.319        0.146      340.936       15.302      868.130
05/12/2013  07:01:00      -22.148        0.228       10.787       28.212       13.934       16.474      795.933      194.160      271.406        0.093        0.063       22.149       17.066        0.594      341.194       15.737      868.131
05/12/2013  07:02:00      -40.024      -21.029       -0.289       21.728       18.493       14.094      472.106      341.998      198.641        0.153        0.051       45.212        9.588        0.045      340.916       15.267      868.135
05/12/2013  07:03:00      -34.685      -20.291        1.954       20.016       17.417       11.397      400.646      303.365      129.893        0.123        0.042       40.184        9.288        0.053      340.928       15.287      868.136
05/12/2013  07:04:00      -51.082      -29.345        4.018       24.136       26.795       14.748      582.566      717.951      217.494        0.250        0.076       58.911       13.982        0.056      340.922       15.278      868.148
05/12/2013  07:05:00      -45.596      -21.426       -1.414       18.774       16.661       12.572      352.481      277.574      158.068        0.166        0.039       50.379        6.586        0.017      340.956       15.334      868.160
05/12/2013  07:06:00      -59.746      -14.729       -2.533       21.476        9.654       10.996      461.209       93.209      120.923        0.223        0.034       61.535       12.156        0.039      340.967       15.353      868.179
05/12/2013  07:07:00      -52.997      -29.730      -10.571       18.737        7.616        6.965      351.062       58.006       48.505        0.213        0.023       60.766        3.855        0.004      340.977       15.369      868.196
05/12/2013  07:08:00      -41.688      -40.679       -7.850       31.221       14.799       15.997      974.762      219.003      255.890        0.245        0.072       58.247        5.679        0.010      341.018       15.440      868.194
05/12/2013  07:09:00      -29.472      -52.368        1.154       27.826       27.208       21.653      774.302      740.271      468.868        0.280        0.099       60.092       17.848        0.088      341.085       15.553      868.199
05/12/2013  07:10:00      -14.736        7.603        2.815       19.267       13.752       15.228      371.212      189.116      231.886        0.054        0.040       16.582        9.927        0.358      341.231       15.801      868.195
05/12/2013  07:11:00       -1.459        7.296       13.152       22.535       11.830       15.329      507.808      139.947      234.987        0.056        0.044        7.440        9.758        1.720      341.241       15.817      868.198
05/12/2013  07:12:00       12.113      -16.556       11.169       27.311       17.796       18.434      745.895      316.697      339.814        0.097        0.070       20.514       13.908        0.460      341.077       15.540      868.197
05/12/2013  07:13:00       34.116      -10.904        5.573       29.198       24.939       27.236      852.542      621.953      741.776        0.176        0.111       35.816       17.967        0.252      341.038       15.474      868.203
05/12/2013  07:14:00       10.950      -23.091       -3.248       25.855       16.134       13.947      668.456      260.312      194.523        0.089        0.056       25.555        6.879        0.072      340.863       15.177      868.200
05/12/2013  07:15:00        0.770       10.539        4.516       21.218       19.004       17.072      450.186      361.157      291.440        0.062        0.055       10.567        7.266        0.473      341.159       15.679      868.214
05/12/2013  07:16:00      -22.075      -19.841        3.005       20.067       22.994       11.833      402.697      528.725      140.027        0.098        0.054       29.681       12.869        0.188      341.208       15.762      868.215
05/12/2013  07:17:00      -13.169      -28.588       15.400       32.508       33.853       22.630     1056.795     1146.023      512.110        0.197        0.136       31.475       21.860        0.482      341.362       16.022      868.233
05/12/2013  07:18:00      -51.569      -79.574       -2.059       13.560       21.104       15.937      183.860      445.370      253.997        0.494        0.044       94.823        7.182        0.006      340.998       15.406      868.230
05/12/2013  07:19:00      -50.756      -55.754      -11.275       12.511       17.488        7.886      156.513      305.837       62.182        0.317        0.026       75.397        3.295        0.002      341.078       15.540      868.228
05/12/2013  07:20:00      -22.799      -28.207       -0.099       30.118       19.911       18.168      907.109      396.441      330.070        0.147        0.082       36.269       16.227        0.200      341.343       15.990      868.226
05/12/2013  07:21:00      -43.791      -49.435       -0.738       22.675       24.067       14.422      514.176      579.231      208.006        0.283        0.065       66.041       15.151        0.053      341.185       15.722      868.233
05/12/2013  07:22:00      -56.708      -62.291       -4.784       24.301       21.044       17.616      590.520      442.854      310.315        0.423        0.067       84.237       12.899        0.023      341.144       15.653      868.237
05/12/2013  07:23:00      -64.010      -77.438       -6.231       18.538       14.035       13.319      343.675      196.984      177.383        0.543        0.036      100.469       10.560        0.011      341.070       15.530      868.247
05/12/2013  07:24:00      -65.960      -46.839       -1.392       13.743       19.556       11.450      188.857      382.446      131.103        0.362        0.035       80.899        7.527        0.009      341.122       15.617      868.250
05/12/2013  07:25:00      -51.090      -20.464       -3.040       18.975       15.225        9.743      360.056      231.786       94.921        0.186        0.034       55.036        7.338        0.018      341.158       15.677      868.255
05/12/2013  07:26:00      -40.631      -41.060       -0.028       23.439       25.520       12.671      549.407      651.271      160.564        0.235        0.068       57.765       11.356        0.039      341.226       15.793      868.250
05/12/2013  07:27:00        2.197      -36.988      -14.764       17.673       16.206       22.013      312.328      262.642      484.587        0.133        0.053       37.053       10.542        0.081      341.268       15.863      868.250
05/12/2013  07:28:00       -5.596      -11.764        6.893       24.128       26.171       22.737      582.176      684.912      516.977        0.100        0.089       13.027       19.314        2.198      341.380       16.053      868.252
05/12/2013  07:29:00      -39.658       -4.729        6.218       15.298       18.496       13.925      234.043      342.117      193.919        0.120        0.039       39.939        5.589        0.020      341.424       16.127      868.243
05/12/2013  07:30:00      -17.585       -8.577       -2.093       14.799       16.262       16.237      219.019      264.450      263.655        0.057        0.037       19.565       11.497        0.345      341.468       16.201      868.251
05/12/2013  07:31:00       16.521      -13.411       12.585       25.925       24.260       17.876      672.102      588.554      319.563        0.110        0.079       21.279       12.212        0.329      341.564       16.364      868.250
05/12/2013  07:32:00       -7.712      -11.207       10.221       21.364       19.392       15.936      456.420      376.063      253.945        0.069        0.054       13.604       12.881        0.896      341.606       16.434      868.254
05/12/2013  07:33:00      -21.289       -2.037       13.103       12.347       14.780       14.638      152.455      218.445      214.271        0.061        0.029       21.387       12.418        0.337      341.587       16.403      868.266
05/12/2013  07:34:00      -20.464      -13.465        0.397       23.588       23.737       11.830      556.401      563.429      139.956        0.093        0.063       24.496       10.005        0.167      341.575       16.382      868.265
05/12/2013  07:35:00      -43.659       12.562       16.070       38.632       26.822       21.015     1492.422      719.396      441.648        0.249        0.133       45.430       10.994        0.059      341.601       16.427      868.259
05/12/2013  07:36:00      -45.257      -19.136        8.743       29.686       23.045       17.147      881.258      531.085      294.028        0.210        0.085       49.136       17.349        0.125      341.573       16.379      868.249
05/12/2013  07:37:00      -36.582      -38.105        4.464       21.881       28.457       14.476      478.797      809.792      209.564        0.215        0.075       52.823       13.304        0.063      341.531       16.308      868.252
05/12/2013  07:38:00      -23.149      -54.215        2.238       16.096       19.646       11.266      259.097      385.979      126.924        0.213        0.039       58.950        7.529        0.016      341.466       16.196      868.268
05/12/2013  07:39:00      -71.976      -69.202       -6.840       40.903       24.613       17.415     1673.085      605.802      303.274        0.630        0.129       99.847       22.433        0.050      341.470       16.205      868.282
05/12/2013  07:40:00      -71.451      -66.196       -0.234       33.444       29.587       19.838     1118.476      875.409      393.552        0.594        0.119       97.402       17.285        0.031      341.489       16.236      868.302
05/12/2013  07:41:00      -52.653      -37.876        1.748       49.281       35.455       24.519     2428.665     1257.026      601.163        0.425        0.214       64.861       26.672        0.169      341.669       16.542      868.319
05/12/2013  07:42:00      -79.640      -63.138       -1.924       34.787       38.748       19.817     1210.141     1501.374      392.721        0.672        0.155      101.632        7.421        0.005      341.517       16.284      868.333
05/12/2013  07:43:00      -44.033      -38.568       -7.224       38.504       30.039       14.068     1482.595      902.326      197.919        0.303        0.129       58.535       18.146        0.096      341.737       16.656      868.343
05/12/2013  07:44:00      -85.862      -37.880      -12.315       24.991       23.151       19.767      624.542      535.988      390.733        0.525        0.078       93.846       12.480        0.018      341.652       16.512      868.346
05/12/2013  07:45:00      -42.721      -37.431       -1.833       35.151       33.663       22.682     1235.604     1133.216      514.473        0.306        0.144       56.800       17.767        0.098      341.708       16.609      868.352
05/12/2013  07:46:00      -65.649      -45.398        1.558       31.003       24.898       15.509      961.188      619.903      240.524        0.410        0.091       79.817       12.303        0.024      341.659       16.525      868.351
05/12/2013  07:47:00      -56.464      -36.566        1.025       20.049       22.445       11.351      401.973      503.796      128.846        0.278        0.052       67.270        9.590        0.020      341.693       16.583      868.350
05/12/2013  07:48:00      -24.535      -10.341        4.192       21.227       15.791       15.342      450.606      249.361      235.379        0.083        0.047       26.625       14.922        0.314      342.089       17.255      868.356
05/12/2013  07:49:00       29.793        6.365        8.044       29.860       19.691       27.196      891.641      387.734      739.636        0.151        0.101       30.466       19.980        0.430      342.164       17.383      868.349
05/12/2013  07:50:00      -16.168       13.621       -4.255       16.901       18.821       23.091      285.656      354.234      533.174        0.082        0.059       21.141       10.469        0.245      341.961       17.038      868.350
05/12/2013  07:51:00       10.960       -4.712       18.092       21.789       18.531       20.711      474.780      343.401      428.954        0.086        0.062       11.930        7.963        0.446      342.139       17.340      868.342
05/12/2013  07:52:00       44.549       -6.384       -6.490       34.401       27.026       22.790     1183.425      730.386      519.391        0.225        0.122       45.004        7.906        0.031      341.599       16.423      868.333
05/12/2013  07:53:00       15.645      -28.706       -8.747       28.977       27.588       23.891      839.686      761.119      570.768        0.166        0.109       32.692       12.975        0.158      341.691       16.580      868.335
05/12/2013  07:54:00       27.448      -19.888        7.918       34.043       31.120       32.642     1158.897      968.438     1065.496        0.220        0.160       33.896       25.875        0.583      342.144       17.350      868.333
05/12/2013  07:55:00      -17.165        4.157       26.067       20.410       20.746       19.840      416.559      430.413      393.639        0.112        0.062       17.661       18.754        1.128      342.668       18.240      868.325
05/12/2013  07:56:00      -12.364      -16.414       -1.452       17.328       28.775       16.459      300.275      828.000      270.887        0.091        0.070       20.550        8.249        0.161      342.371       17.734      868.329
05/12/2013  07:57:00      -31.228       -4.252       17.781       22.550       15.410       13.899      508.493      237.476      193.184        0.112        0.047       31.516        9.153        0.084      342.291       17.598      868.333
05/12/2013  07:58:00      -47.124        7.322       -5.574       11.879       13.136       13.883      141.102      172.553      192.725        0.141        0.025       47.689        6.643        0.019      342.016       17.130      868.338
05/12/2013  07:59:00      -17.887       19.694       10.515       16.476       15.985       23.245      271.462      255.519      540.337        0.094        0.053       26.604       13.846        0.271      342.798       18.461      868.338
05/12/2013  08:00:00      -36.250        6.031        3.637       15.418       16.195       13.523      237.712      262.287      182.879        0.102        0.034       36.749        9.422        0.066      342.313       17.635      868.344
05/12/2013  08:01:00      -43.878       21.909        7.295       21.976       15.238       14.789      482.948      232.189      218.716        0.170        0.047       49.044        9.926        0.041      342.457       17.880      868.342
05/12/2013  08:02:00      -29.706       21.961       12.726       22.870       22.925       22.394      523.059      525.533      501.497        0.154        0.078       36.942       13.743        0.138      342.593       18.112      868.345
05/12/2013  08:03:00      -21.342        2.250        7.367       17.041       19.071       19.476      290.403      363.687      379.316        0.077        0.052       21.460        8.219        0.147      342.777       18.425      868.349
05/12/2013  08:04:00      -17.913       -9.842        9.676       24.657       17.008       20.841      607.987      289.282      434.358        0.092        0.067       20.439       16.125        0.622      343.135       19.035      868.343
05/12/2013  08:05:00      -48.878      -11.751       -8.450       29.967       35.073       24.232      898.025     1230.132      587.189        0.266        0.136       50.271       20.483        0.166      342.598       18.120      868.342
05/12/2013  08:06:00      -12.271      -10.577       -3.846       44.107       38.881       27.143     1945.396     1511.701      736.766        0.223        0.210       16.201       16.549        1.044      342.627       18.170      868.338
05/12/2013  08:07:00       -9.431      -14.123       -3.531       21.632       26.860       24.309      467.940      721.460      590.943        0.104        0.089       16.982       13.287        0.612      342.767       18.408      868.347
05/12/2013  08:08:00      -24.946      -14.569       10.286       34.274       21.268       20.100     1174.704      452.309      404.022        0.149        0.102       28.889       21.327        0.545      342.877       18.595      868.350
05/12/2013  08:09:00      -31.328        3.410       14.252       28.032       20.241       19.471      785.807      409.712      379.111        0.139        0.079       31.513       17.379        0.304      343.017       18.834      868.340
05/12/2013  08:10:00      -10.834      -18.241        2.799       27.648       22.516       19.327      764.406      506.987      373.537        0.105        0.082       21.216       14.778        0.485      342.827       18.510      868.347
05/12/2013  08:11:00        9.841      -39.284       -8.933       26.671       16.112       18.385      711.327      259.601      337.997        0.151        0.065       40.498       12.117        0.090      342.509       17.969      868.349
05/12/2013  08:12:00      -26.089      -30.619        5.174       31.598       26.839       13.082      998.453      720.314      171.144        0.177        0.094       40.226       10.901        0.073      342.907       18.645      868.353
05/12/2013  08:13:00      -29.854        0.078       12.083       27.179       17.592       16.011      738.708      309.466      256.365        0.117        0.065       29.854       16.456        0.304      343.098       18.971      868.358
05/12/2013  08:14:00      -30.199      -10.496       -7.200       21.270       11.615       13.902      452.428      134.904      193.268        0.093        0.039       31.971       12.644        0.156      342.711       18.311      868.367
05/12/2013  08:15:00      -26.252        4.031       -7.831       25.465       32.344       27.304      648.465     1046.116      745.531        0.160        0.122       26.560       24.222        0.832      342.604       18.129      868.367
05/12/2013  08:16:00       39.348        6.994       14.621       49.237       32.899       24.659     2424.275     1082.314      608.055        0.296        0.206       39.965       13.589        0.116      342.811       18.483      868.371
05/12/2013  08:17:00       44.907      -30.307       11.764       30.835       41.132       38.614      950.819     1691.873     1491.039        0.360        0.207       54.176       26.575        0.241      343.092       18.959      868.375
05/12/2013  08:18:00      -15.030      -27.134        4.268       28.615       37.010       22.386      818.813     1369.718      501.136        0.183        0.134       31.018       20.227        0.425      343.274       19.272      868.396
05/12/2013  08:19:00      -11.609        3.249       22.563       30.566       29.842       22.823      934.262      890.540      520.909        0.150        0.117       12.055       17.695        2.155      343.485       19.630      868.404
05/12/2013  08:20:00       -3.140        9.137       19.479       23.877       25.701       18.173      570.128      660.519      330.254        0.102        0.078        9.662        9.709        1.010      343.405       19.494      868.399
05/12/2013  08:21:00       49.505      -22.825       13.024       26.854       24.809       27.753      721.126      615.507      770.253        0.262        0.105       54.514        8.320        0.023      342.742       18.364      868.395
05/12/2013  08:22:00       -6.632       15.181       17.218       21.190       19.909       22.252      449.023      396.370      495.169        0.096        0.067       16.567       13.547        0.669      343.305       19.323      868.398
05/12/2013  08:23:00       -0.462        4.949       26.676       21.716       26.217       14.528      471.565      687.313      211.063        0.105        0.068        4.971        6.996        1.981      343.593       19.814      868.406
05/12/2013  08:24:00       12.002      -30.281       25.799       22.735       28.719       28.708      516.886      824.767      824.167        0.195        0.108       32.573       18.858        0.335      343.548       19.738      868.413
05/12/2013  08:25:00       20.162      -33.599       17.828       23.461       34.052       27.979      550.403     1159.529      782.799        0.217        0.125       39.184       22.014        0.316      342.988       18.784      868.419
05/12/2013  08:26:00        1.359       -0.562       26.989       17.569       36.504       21.624      308.656     1332.558      467.583        0.142        0.105        1.470       17.376      139.652      343.850       20.253      868.429
05/12/2013  08:27:00       33.267       23.102       19.558       39.616       51.980       19.481     1569.466     2701.957      379.502        0.334        0.233       40.502       14.261        0.124      343.195       19.137      868.439
05/12/2013  08:28:00       24.030      -41.039       15.991       40.234       49.476       35.550     1618.810     2447.874     1263.777        0.392        0.267       47.557       29.271        0.379      343.171       19.096      868.445
05/12/2013  08:29:00       12.246      -24.208       32.234       22.321       42.048       25.639      498.231     1768.042      657.338        0.235        0.146       27.129       26.438        0.950      343.408       19.499      868.434
05/12/2013  08:30:00       27.947       19.063       45.082       23.794       38.741       25.038      566.166     1500.851      626.901        0.293        0.135       33.830        4.742        0.020      343.340       19.383      868.418
05/12/2013  08:31:00       27.391        5.527       48.306       37.763       29.339       26.260     1426.076      860.771      689.609        0.304        0.149       27.943       25.193        0.813      343.414       19.508      868.407
05/12/2013  08:32:00       28.838      -26.297       18.818       38.617       48.136       32.450     1491.245     2317.074     1053.026        0.337        0.243       39.028       15.639        0.161      343.380       19.453      868.407
05/12/2013  08:33:00       43.586       18.056       33.565       43.453       43.154       27.112     1888.168     1862.301      735.045        0.392        0.224       47.178        6.571        0.019      343.273       19.269      868.417
05/12/2013  08:34:00       13.473      -16.609       33.224       23.363       27.107       17.947      545.837      734.780      322.082        0.158        0.080       21.386       15.372        0.517      343.374       19.440      868.422
05/12/2013  08:35:00       35.558       52.916       33.590       38.337       30.437       29.190     1469.730      926.409      852.074        0.422        0.162       63.753       25.958        0.166      343.552       19.746      868.424
05/12/2013  08:36:00       43.348       17.067       22.246       38.571       43.795       28.008     1487.690     1918.025      784.461        0.343        0.210       46.587       16.944        0.132      343.432       19.540      868.437
05/12/2013  08:37:00       17.508        3.842       16.690       24.890       32.053       32.968      619.498     1027.403     1086.884        0.167        0.137       17.925       21.524        1.442      343.648       19.907      868.444
05/12/2013  08:38:00       -3.843      -11.537       20.391       17.179       29.758       31.304      295.123      885.529      979.968        0.136        0.108       12.160       24.084        3.923      344.118       20.710      868.442
05/12/2013  08:39:00       13.828       -4.728       20.893       37.684       48.796       34.308     1420.077     2381.079     1177.020        0.281        0.249       14.614       30.269        4.290      343.693       19.985      868.439
05/12/2013  08:40:00       24.266       31.287       41.367       42.942       41.714       25.962     1844.046     1740.077      674.012        0.377        0.213       39.594       20.180        0.260      343.387       19.462      868.435
05/12/2013  08:41:00       28.363       24.371       37.677       34.311       41.844       24.730     1177.253     1750.906      611.573        0.318        0.177       37.396       14.286        0.146      343.462       19.590      868.437
05/12/2013  08:42:00       56.226      -44.337        3.598       52.592       52.671       34.833     2765.968     2774.241     1213.339        0.595        0.338       71.604       31.671        0.196      343.212       19.164      868.438
05/12/2013  08:43:00       41.682      -35.674        8.262       33.294       32.944       30.339     1108.474     1085.306      920.481        0.310        0.156       54.864       26.528        0.234      343.044       18.881      868.432
05/12/2013  08:44:00       11.980      -36.716        3.340       28.994       44.311       33.895      840.655     1963.435     1148.880        0.273        0.198       38.621       16.982        0.193      343.448       19.567      868.424
05/12/2013  08:45:00       18.522       -0.373       51.776       34.193       45.229       32.924     1169.181     2045.640     1084.003        0.366        0.215       18.525       11.584        0.391      344.219       20.882      868.419
05/12/2013  08:46:00       15.253       24.063       51.108       51.876       55.151       38.099     2691.087     3041.586     1451.535        0.530        0.359       28.490       41.176        2.089      343.692       19.983      868.419
05/12/2013  08:47:00       18.754      -17.388       36.029       31.357       57.000       35.530      983.272     3249.005     1262.356        0.372        0.275       25.575       32.789        1.644      343.859       20.268      868.416
05/12/2013  08:48:00        2.706       46.251       54.162       23.992       28.180       31.369      575.598      794.104      984.030        0.372        0.118       46.330       24.371        0.277      343.655       19.920      868.421
05/12/2013  08:49:00        2.553       22.902       20.757       41.560       24.118       23.476     1727.241      581.696      551.104        0.191        0.143       23.044       23.261        1.019      343.802       20.172      868.415
05/12/2013  08:50:00       53.288       29.871       35.062       23.805       21.561       19.048      566.682      464.866      362.836        0.318        0.070       61.089       13.651        0.050      343.535       19.714      868.413
05/12/2013  08:51:00       47.901        9.156       17.854       30.061       25.191       23.717      903.653      634.596      562.505        0.240        0.105       48.768       12.349        0.064      343.767       20.111      868.413
05/12/2013  08:52:00        6.997      -30.109       18.878       20.191       28.780       26.147      407.672      828.295      683.674        0.162        0.096       30.911       13.455        0.189      343.602       19.828      868.414
05/12/2013  08:53:00       16.990      -54.132       -6.277       23.070       23.430       20.049      532.211      548.973      401.966        0.237        0.074       56.736       10.355        0.033      343.077       18.934      868.415
05/12/2013  08:54:00        2.382       -4.666       32.237       15.060       22.162       18.146      226.808      491.147      329.269        0.106        0.052        5.239       13.935        7.074      344.132       20.734      868.412
05/12/2013  08:55:00       37.655       35.942       28.951       24.306       41.329       23.637      590.804     1708.105      558.723        0.320        0.143       52.055       10.809        0.043      343.837       20.230      868.414
05/12/2013  08:56:00       28.618       61.779       24.507       32.560       33.966       24.043     1060.157     1153.681      578.047        0.401        0.140       68.085       23.084        0.115      344.224       20.891      868.401
05/12/2013  08:57:00       10.424       37.367       61.600       37.817       38.192       31.588     1430.159     1458.644      997.779        0.459        0.194       38.794       27.475        0.502      344.622       21.572      868.398
05/12/2013  08:58:00       29.325       44.414       30.444       50.022       30.987       27.655     2502.197      960.166      764.818        0.399        0.211       53.222       26.262        0.243      344.266       20.963      868.387
05/12/2013  08:59:00       97.657       68.311        4.212       29.570       27.841       24.448      874.370      775.140      597.694        0.823        0.112      119.178       17.020        0.020      343.736       20.057      868.380
05/12/2013  09:00:00       82.237       45.145        9.200       15.312       19.749       15.667      234.460      390.023      245.440        0.488        0.043       93.814        5.061        0.003      343.604       19.834      868.375
05/12/2013  09:01:00       47.937       14.569        9.606       30.549       31.373       24.339      933.227      984.287      592.409        0.256        0.125       50.102       15.636        0.097      343.883       20.309      868.365
05/12/2013  09:02:00       43.185       26.603      -12.245       24.565       19.213       20.845      603.452      369.130      434.511        0.206        0.070       50.722        7.502        0.022      343.735       20.055      868.359
05/12/2013  09:03:00       14.187       -4.291       12.700       30.194       26.606       18.496      911.668      707.871      342.101        0.117        0.098       14.821       12.583        0.721      343.973       20.463      868.347
05/12/2013  09:04:00        8.683      -10.152       23.144       25.267       22.972       30.665      638.441      527.703      940.354        0.141        0.105       13.359       18.359        1.889      344.354       21.114      868.334
05/12/2013  09:05:00       14.391        9.218       20.159       27.177       19.813       21.725      738.605      392.536      471.978        0.115        0.080       17.091       15.375        0.809      344.446       21.270      868.317
05/12/2013  09:06:00       84.838       54.935       32.543       51.538       37.642       37.521     2656.163     1416.945     1407.799        0.838        0.274      101.071       22.870        0.051      344.205       20.857      868.295
05/12/2013  09:07:00       78.427       72.592       33.744       55.370       35.928       34.177     3065.877     1290.815     1168.092        0.904        0.276      106.866       20.170        0.036      343.941       20.409      868.283
05/12/2013  09:08:00       95.522       58.035       32.520       73.282       46.054       37.216     5370.263     2120.957     1384.996        1.121        0.444      111.770       34.074        0.093      343.923       20.377      868.280
05/12/2013  09:09:00      114.503       76.864       14.613       52.103       37.640       25.888     2714.722     1416.767      670.210        1.202        0.240      137.909       20.989        0.023      343.885       20.312      868.278
05/12/2013  09:10:00       31.061       70.164       16.418       37.078       38.465       33.384     1374.775     1479.575     1114.514        0.506        0.198       76.732       19.174        0.062      344.522       21.401      868.285
05/12/2013  09:11:00       10.094       29.712       13.147       29.865       32.716       24.758      891.931     1070.344      612.938        0.187        0.129       31.380       18.004        0.329      344.733       21.763      868.280
05/12/2013  09:12:00       13.329       12.396       23.329       34.142       27.344       28.801     1165.673      747.713      829.516        0.181        0.137       18.202       20.079        1.217      344.988       22.198      868.276
05/12/2013  09:13:00       52.571       59.562       10.061       59.448       25.515       26.696     3534.020      650.996      712.700        0.565        0.245       79.444       18.373        0.053      344.319       21.054      868.262
05/12/2013  09:14:00      143.668       81.901       10.156       37.623       32.293       33.682     1415.456     1042.863     1134.462        1.552        0.180      165.373       18.736        0.013      343.979       20.472      868.247
05/12/2013  09:15:00      102.235       85.184        4.265       45.737       34.159       31.788     2091.837     1166.812     1010.475        1.100        0.213      133.073       17.104        0.017      344.099       20.677      868.249
05/12/2013  09:16:00       67.262       57.803       16.088       38.415       23.753       29.404     1475.689      564.212      864.624        0.551        0.145       88.687       22.902        0.067      344.283       20.991      868.245
05/12/2013  09:17:00       67.403       66.468        8.153       48.624       36.378       36.321     2364.263     1323.335     1319.243        0.702        0.250       94.663       24.393        0.066      344.333       21.078      868.243
05/12/2013  09:18:00       54.564       12.024        5.872       40.973       31.265       27.511     1678.748      977.473      756.850        0.328        0.171       55.873       12.228        0.048      344.364       21.130      868.247
05/12/2013  09:19:00       52.696       32.067       16.676       32.371       33.140       27.940     1047.851     1098.291      780.619        0.350        0.146       61.686       21.851        0.125      344.554       21.456      868.242
05/12/2013  09:20:00       74.385       54.341       10.226       26.419       22.862       22.125      697.939      522.682      489.496        0.515        0.086       92.120       13.063        0.020      344.483       21.334      868.237
05/12/2013  09:21:00       37.156        0.209       35.749       49.444       55.468       37.694     2444.686     3076.654     1420.811        0.480        0.347       37.156       37.188        1.002      344.330       21.072      868.231
05/12/2013  09:22:00       -5.243       -5.943       12.116       47.263       43.815       35.976     2233.787     1919.791     1294.267        0.283        0.272        7.925       19.509        6.060      344.420       21.227      868.233
05/12/2013  09:23:00       12.477       18.360       55.519       33.935       33.838       26.434     1151.567     1144.998      698.781        0.328        0.150       22.198       16.463        0.550      345.401       22.906      868.225
05/12/2013  09:24:00        6.685       -3.770       45.551       24.471       38.516       23.236      598.813     1483.471      539.933        0.238        0.131        7.675       17.966        5.479      345.035       22.279      868.219
05/12/2013  09:25:00       14.522        5.304       29.936       22.388       27.636       23.159      501.216      763.747      536.343        0.147        0.090       15.460       19.562        1.601      344.880       22.014      868.226
05/12/2013  09:26:00        7.245       32.071       38.462       35.137       43.533       21.699     1234.593     1895.101      470.836        0.308        0.180       32.879       15.175        0.213      344.560       21.466      868.219
05/12/2013  09:27:00        8.208      -27.917       25.547       27.040       39.003       30.702      731.162     1521.198      942.589        0.235        0.160       29.099       10.232        0.124      344.534       21.422      868.204
05/12/2013  09:28:00       10.347       -4.404       33.596       32.851       49.911       30.582     1079.181     2491.071      935.280        0.288        0.225       11.245       25.687        5.218      345.132       22.444      868.206
05/12/2013  09:29:00       -1.459      -17.835       23.435       22.034       42.630       39.924      485.507     1817.299     1593.893        0.238        0.195       17.895       30.977        2.997      345.182       22.532      868.199
05/12/2013  09:30:00      -23.160        2.755        5.491       30.914       23.997       22.281      955.682      575.854      496.446        0.130        0.101       23.324        9.470        0.165      344.767       21.822      868.195
05/12/2013  09:31:00      -30.402        4.622        8.777       37.349       30.869       23.136     1394.937      952.924      535.262        0.195        0.144       30.751       23.625        0.590      344.806       21.887      868.183
05/12/2013  09:32:00      -57.002      -31.478      -10.700       31.799       51.958       16.449     1011.176     2699.587      270.555        0.417        0.199       65.116       15.639        0.058      344.280       20.986      868.178
05/12/2013  09:33:00      -61.861       16.817       -9.293       17.661       16.442       15.123      311.927      270.329      228.708        0.250        0.041       64.106        4.208        0.004      344.373       21.146      868.167
05/12/2013  09:34:00      -65.588       16.414       -5.204       21.760       28.119       15.484      473.496      790.699      239.769        0.305        0.075       67.611       12.003        0.032      344.393       21.179      868.162
05/12/2013  09:35:00      -26.351        6.533       -1.250       17.868       17.203       16.834      319.259      295.960      283.398        0.082        0.045       27.149        9.811        0.131      344.876       22.006      868.162
05/12/2013  09:36:00      -15.879       -4.423       24.886       13.994       19.867       21.117      195.842      394.717      445.922        0.096        0.052       16.483        6.102        0.137      345.370       22.853      868.164
05/12/2013  09:37:00       16.319       10.967       43.073       27.063       34.368       23.061      732.431     1181.192      531.826        0.234        0.122       19.662       12.854        0.427      345.578       23.209      868.152
05/12/2013  09:38:00       20.568      -39.832       34.912       36.401       97.491       40.828     1325.062     9504.532     1666.907        0.786        0.625       44.829       46.167        1.061      345.167       22.504      868.140
05/12/2013  09:39:00       26.083      -22.562       16.855       38.379       55.848       37.959     1472.909     3119.040     1440.915        0.375        0.302       34.487       26.155        0.575      344.899       22.047      868.129
05/12/2013  09:40:00       11.294       34.434       54.317       26.573       31.829       20.709      706.137     1013.081      428.869        0.321        0.107       36.239       10.326        0.081      345.411       22.922      868.122
05/12/2013  09:41:00       22.537      -17.620       16.730       43.765       58.116       40.278     1915.413     3377.477     1622.328        0.401        0.346       28.607       36.284        1.609      344.946       22.126      868.116
05/12/2013  09:42:00       19.508       15.804       42.905       43.715       42.941       41.145     1910.984     1843.962     1692.926        0.396        0.272       25.106       26.795        1.139      345.309       22.748      868.112
05/12/2013  09:43:00        7.390       24.525       46.137       32.724       37.046       31.093     1070.852     1372.441      966.791        0.310        0.171       25.614       15.555        0.369      345.174       22.516      868.120
05/12/2013  09:44:00       25.634        6.908       27.186       32.610       36.421       30.618     1063.423     1326.463      937.487        0.239        0.166       26.548       26.921        1.028      345.042       22.290      868.109
05/12/2013  09:45:00       21.938        0.083       20.151       32.073       25.308       23.584     1028.673      640.508      556.204        0.156        0.111       21.938       17.955        0.670      345.387       22.882      868.101
05/12/2013  09:46:00       12.715      -24.286      -12.043       23.244       17.328       12.974      540.291      300.255      168.334        0.095        0.050       27.413       10.052        0.134      344.664       21.642      868.097
05/12/2013  09:47:00       26.357      -17.404       -2.419       28.607       27.542       26.199      818.341      758.569      686.368        0.163        0.113       31.585       19.277        0.372      344.694       21.695      868.085
05/12/2013  09:48:00        5.971      -18.896       13.090       20.387       23.595       24.340      415.611      556.711      592.424        0.106        0.078       19.817       19.120        0.931      345.519       23.109      868.090
05/12/2013  09:49:00        8.298      -19.017       28.022       27.854       44.492       26.834      775.824     1979.496      720.062        0.234        0.174       20.749       19.330        0.868      345.791       23.576      868.085
05/12/2013  09:50:00       38.913       32.364       25.817       39.437       41.856       40.279     1555.252     1751.888     1622.375        0.408        0.246       50.613       29.230        0.334      345.426       22.948      868.094
05/12/2013  09:51:00       31.063       25.691       49.174       37.989       51.644       33.597     1443.151     2667.152     1128.764        0.464        0.262       40.311       23.177        0.331      345.548       23.159      868.089
05/12/2013  09:52:00        0.844        6.144       50.048       23.397       58.298       26.507      547.427     3398.706      702.622        0.360        0.232        6.202       20.390       10.811      345.746       23.497      868.089
05/12/2013  09:53:00       51.929       29.352       52.264       43.703       39.571       35.353     1909.928     1565.866     1249.849        0.551        0.236       59.651       17.358        0.085      345.794       23.578      868.088
05/12/2013  09:54:00       61.040       15.816       27.440       47.138       72.048       37.837     2222.034     5190.969     1431.628        0.679        0.442       63.056       25.949        0.169      345.441       22.974      868.087
05/12/2013  09:55:00       26.279       10.201       62.701       56.782       69.502       37.107     3224.161     4830.482     1376.946        0.708        0.472       28.190       35.481        1.584      345.838       23.656      868.079
05/12/2013  09:56:00       11.263       -1.525       41.148       37.905       55.392       31.900     1436.780     3068.279     1017.641        0.367        0.276       11.366       10.651        0.878      346.071       24.055      868.070
05/12/2013  09:57:00      -10.646       62.577       91.605       18.245       44.067       26.161      332.862     1941.876      684.403        0.769        0.148       63.476       25.011        0.155      345.802       23.595      868.070
05/12/2013  09:58:00       33.326       29.448       45.709       32.593       27.219       19.824     1062.331      740.875      392.990        0.313        0.110       44.472       16.022        0.130      345.632       23.301      868.057
05/12/2013  09:59:00       14.678       17.957       45.023       30.246       50.064       33.722      914.807     2506.423     1137.191        0.356        0.228       23.193       37.068        2.554      345.887       23.739      868.053
05/12/2013  10:00:00       92.456       90.667       80.306       66.249       49.990       52.746     4388.902     2499.007     2782.102        1.644        0.484      129.494       41.722        0.104      345.233       22.617      868.037
05/12/2013  10:01:00      101.267       61.405       42.573       60.684       41.750       42.547     3682.571     1743.048     1810.214        1.154        0.362      118.430       18.155        0.023      345.444       22.979      868.035
05/12/2013  10:02:00       10.751       19.936       40.056       27.658       35.104       31.745      764.963     1232.304     1007.726        0.256        0.150       22.650       15.378        0.461      346.109       24.121      868.026
05/12/2013  10:03:00       37.364       75.180       83.703       66.607       54.210       40.165     4436.438     2938.720     1613.221        1.152        0.449       83.953       30.287        0.130      345.652       23.334      868.015
05/12/2013  10:04:00       93.074      117.477      103.584       67.614       46.138       43.399     4571.704     2128.695     1883.499        2.089        0.429      149.878       29.139        0.038      345.326       22.774      868.005
05/12/2013  10:05:00       16.399      -18.720       50.337       57.700       74.961       43.357     3329.345     5619.080     1879.851        0.699        0.541       24.887       49.597        3.972      345.726       23.464      867.993
05/12/2013  10:06:00       11.906       48.220       60.703       47.296       40.205       25.723     2236.931     1616.417      661.665        0.533        0.226       49.668       19.637        0.156      346.082       24.075      867.991
05/12/2013  10:07:00       82.243       93.979       40.111       56.367       43.936       41.666     3177.257     1930.384     1736.026        1.202        0.342      124.884       21.453        0.030      345.506       23.085      867.987
05/12/2013  10:08:00       32.880       17.783       24.807       34.621       31.719       23.297     1198.604     1006.092      542.754        0.238        0.137       37.381       11.704        0.098      346.082       24.073      867.988
05/12/2013  10:09:00      102.415      103.012       81.955       78.105       56.120       71.626     6100.350     3149.479     5130.335        2.110        0.719      145.259       51.916        0.128      345.566       23.187      867.972
05/12/2013  10:10:00       39.452       38.478       57.307       51.320       72.668       38.676     2633.781     5280.698     1495.859        0.786        0.471       55.109       42.794        0.603      345.556       23.171      867.988
05/12/2013  10:11:00       44.357       44.603       31.069       46.066       49.920       33.562     2122.097     2492.000     1126.437        0.533        0.287       62.905       32.011        0.259      345.811       23.609      867.977
05/12/2013  10:12:00       29.133       59.649       66.665       55.117       43.284       29.816     3037.866     1873.530      889.004        0.732        0.290       66.384       23.533        0.126      345.938       23.826      867.974
05/12/2013  10:13:00      132.843       80.620        9.697       63.509       44.841       33.889     4033.366     2010.748     1148.439        1.572        0.360      155.393       33.577        0.047      345.480       23.040      867.976
05/12/2013  10:14:00       42.689       55.120       14.502       33.337       31.973       42.024     1111.360     1022.304     1765.988        0.448        0.195       69.718       26.967        0.150      345.390       22.886      867.976
05/12/2013  10:15:00       86.458       43.797        9.396       41.524       37.011       27.932     1724.213     1369.807      780.191        0.668        0.194       96.918       11.193        0.013      345.641       23.317      867.964
05/12/2013  10:16:00       31.728       61.124       54.388       41.397       50.980       56.591     1713.717     2598.986     3202.494        0.761        0.376       68.868       39.763        0.333      345.905       23.770      867.968
05/12/2013  10:17:00       38.177       19.912       61.957       55.448       71.270       34.860     3074.474     5079.397     1215.222        0.753        0.468       43.058       37.805        0.771      345.840       23.659      867.955
05/12/2013  10:18:00       28.471       25.005       83.855       56.539       88.107       53.157     3196.661     7762.780     2825.631        1.112        0.689       37.893       56.963        2.260      346.065       24.045      867.954
05/12/2013  10:19:00       76.794       26.376       77.757       53.386       50.881       38.021     2850.064     2588.867     1445.600        0.976        0.344       81.197       30.448        0.141      345.824       23.630      867.948
05/12/2013  10:20:00       39.394       -4.606       26.903       51.828       46.017       39.022     2686.110     2117.603     1522.742        0.431        0.316       39.663       25.489        0.413      346.020       23.967      867.943
05/12/2013  10:21:00       33.224       -1.753       48.682       46.887       80.818       60.764     2198.367     6531.565     3692.251        0.795        0.621       33.270       68.855        4.283      345.944       23.837      867.933
05/12/2013  10:22:00       -0.099      -60.874       32.710       24.325       62.776       33.626      591.704     3940.843     1130.693        0.522        0.283       60.874       33.340        0.300      346.136       24.167      867.926
05/12/2013  10:23:00       12.287       25.090       51.473       35.802       55.425       23.374     1281.756     3071.885      546.332        0.416        0.245       27.937        8.867        0.101      346.288       24.428      867.911
05/12/2013  10:24:00       40.394      -99.236        6.559       41.966       40.358       36.417     1761.107     1628.777     1326.168        0.812        0.236      107.142       28.311        0.070      345.998       23.928      867.914
05/12/2013  10:25:00        5.924        2.233       19.216       39.323       33.405       33.158     1546.303     1115.925     1099.455        0.208        0.188        6.331       23.365       13.621      346.496       24.787      867.908
05/12/2013  10:26:00       27.684       37.842       44.265       56.472       49.137       35.944     3189.096     2414.468     1291.938        0.553        0.345       46.887       17.412        0.138      346.168       24.220      867.912
05/12/2013  10:27:00       26.703       44.041       38.267       36.815       37.537       38.841     1355.346     1409.050     1508.634        0.419        0.214       51.504       17.087        0.110      346.376       24.581      867.904
05/12/2013  10:28:00       13.141       23.844       51.874       23.577       39.097       22.389      555.885     1528.576      501.270        0.301        0.129       27.225       20.778        0.582      346.623       25.005      867.918
05/12/2013  10:29:00        1.764      -29.858        2.905       55.919       40.134       29.848     3126.984     1610.740      890.916        0.326        0.281       29.910       20.806        0.484      346.113       24.127      867.913
05/12/2013  10:30:00      -41.581       -6.348        5.647       24.605       22.621       17.077      605.402      511.723      291.617        0.160        0.070       42.063       14.288        0.115      345.845       23.666      867.907
05/12/2013  10:31:00       -7.749       22.989       12.459       48.210       20.124       20.315     2324.235      404.961      412.699        0.194        0.157       24.260       16.290        0.451      346.148       24.188      867.891
05/12/2013  10:32:00       91.714       86.426       46.812       92.557       64.283       60.519     8566.761     4132.367     3662.591        1.721        0.818      126.020       44.545        0.125      346.436       24.681      867.867
05/12/2013  10:33:00      179.468       90.728       44.222       78.121       68.933       49.913     6102.854     4751.761     2491.289        2.787        0.667      201.098       41.447        0.042      345.676       23.374      867.847
05/12/2013  10:34:00      124.834       71.887       29.118       75.241       54.207       55.222     5661.197     2938.431     3049.419        1.662        0.582      144.053       46.691        0.105      345.848       23.670      867.845
05/12/2013  10:35:00       55.407       47.871       38.176       66.916       48.589       37.789     4477.807     2360.868     1427.984        0.754        0.413       73.223       18.911        0.067      346.161       24.209      867.847
05/12/2013  10:36:00      -14.255      -51.623        8.130       43.729       55.968       41.789     1912.187     3132.462     1746.285        0.486        0.340       53.555       25.034        0.219      346.398       24.617      867.834
05/12/2013  10:37:00       32.816       11.537       70.332       50.324       83.706       49.742     2532.500     7006.769     2474.312        0.908        0.601       34.784       50.273        2.089      346.583       24.936      867.808
05/12/2013  10:38:00       58.908     -127.917       -3.802       68.685       74.533       47.009     4717.643     5555.184     2209.855        1.616        0.624      140.829       41.631        0.087      346.278       24.409      867.793
05/12/2013  10:39:00        5.268      -78.910       30.973       78.696       79.122       56.966     6193.006     6260.323     3245.148        1.145        0.785       79.086       43.608        0.304      346.543       24.866      867.769
05/12/2013  10:40:00      104.225     -231.183      -32.436       76.369       39.828       38.228     5832.197     1586.238     1461.343        3.712        0.444      253.591       32.724        0.017      346.067       24.044      867.764
05/12/2013  10:41:00       86.704      -81.621       19.542       51.842       94.313       70.909     2687.601     8894.963     5028.026        1.558        0.831      119.078       70.974        0.355      346.527       24.837      867.756
05/12/2013  10:42:00       30.405       43.766       56.453       43.016       53.932       38.558     1850.363     2908.699     1486.719        0.614        0.312       53.291       37.995        0.508      346.190       24.261      867.753
05/12/2013  10:43:00      -70.935      -49.453       -3.054       40.713       38.388       25.310     1657.551     1473.655      640.598        0.563        0.189       86.472       20.472        0.056      346.398       24.617      867.739
05/12/2013  10:44:00       -6.669      -21.625       13.868       30.148       30.800       15.888      908.882      948.669      252.423        0.141        0.105       22.630       14.695        0.422      346.584       24.938      867.747
05/12/2013  10:45:00       31.542      -45.253       28.561       83.709       97.690       59.207     7007.232     9543.254     3505.455        1.195        1.003       55.161       58.691        1.132      346.892       25.467      867.732
05/12/2013  10:46:00       39.036       40.421       96.201       66.520      124.891       80.211     4424.889    15597.771     6433.870        1.943        1.323       56.193       90.679        2.604      346.543       24.866      867.730
05/12/2013  10:47:00       30.704       42.245       87.562       45.936       54.594       39.532     2110.099     2980.522     1562.760        0.852        0.333       52.224       37.960        0.528      346.666       25.079      867.725
05/12/2013  10:48:00       25.919       12.765       44.452       45.185       63.336       36.210     2041.699     4011.458     1311.132        0.509        0.368       28.892       37.562        1.690      346.516       24.819      867.723
05/12/2013  10:49:00       23.448       -4.820       42.142       35.667       48.675       37.611     1272.114     2369.235     1414.566        0.370        0.253       23.938       33.088        1.910      346.827       25.356      867.696
05/12/2013  10:50:00       26.821      -56.982        6.638       49.701       61.944       43.089     2470.216     3837.045     1856.639        0.609        0.408       62.979       40.922        0.422      346.640       25.034      867.695
05/12/2013  10:51:00       11.569       -2.997       34.390       37.765       46.282       34.772     1426.228     2142.051     1209.060        0.305        0.239       11.951       38.024       10.124      347.216       26.024      867.691
05/12/2013  10:52:00      -56.543       29.752       12.538       33.105       23.474       25.646     1095.966      551.026      657.710        0.327        0.115       63.893       16.082        0.063      346.538       24.857      867.685
05/12/2013  10:53:00        4.348       -3.234       41.930       33.277       75.443       39.448     1107.329     5691.618     1556.107        0.507        0.418        5.419       42.673       62.013      347.098       25.823      867.686
05/12/2013  10:54:00      135.105     -159.457      -45.626       63.034       81.614       41.552     3973.332     6660.873     1726.559        2.906        0.618      208.998       40.035        0.037      346.359       24.546      867.684
05/12/2013  10:55:00       34.376      -19.781       15.517       48.350       65.752       52.563     2337.748     4323.267     2762.866        0.562        0.471       39.660       38.118        0.924      346.928       25.528      867.687
05/12/2013  10:56:00       96.265      122.476      106.569       95.022       48.308       51.332     9029.093     2333.695     2634.993        2.481        0.700      155.780       51.376        0.109      346.412       24.640      867.685
05/12/2013  10:57:00       40.818       57.481       45.314       56.661       48.417       45.484     3210.518     2344.165     2068.749        0.732        0.381       70.499       42.105        0.357      346.833       25.365      867.671
05/12/2013  10:58:00       15.361       11.031       68.971       42.297       72.392       44.028     1789.003     5240.591     1938.446        0.704        0.448       18.911       44.159        5.453      347.051       25.741      867.660
05/12/2013  10:59:00       47.241       31.368       46.898       49.212       59.845       46.229     2421.861     3581.425     2137.103        0.678        0.407       56.707       34.330        0.367      347.166       25.938      867.651
05/12/2013  11:00:00       41.486       -6.991       58.391       86.655      126.983       94.910     7509.094    16124.754     9007.920        1.891        1.632       42.071       98.711        5.505      346.914       25.504      867.644
05/12/2013  11:01:00       24.425       39.082       93.984       47.154       74.073       43.857     2223.494     5486.777     1923.412        1.029        0.482       46.087       45.274        0.965      347.133       25.881      867.655
05/12/2013  11:02:00       67.348      -44.829       20.253       31.703       46.654       39.041     1005.110     2176.607     1524.212        0.583        0.235       80.904       25.480        0.099      346.395       24.612      867.646
05/12/2013  11:03:00        6.262        2.039       -5.984       41.140       70.093       28.565     1692.526     4913.039      815.944        0.375        0.371        6.586       17.215        6.832      346.510       24.809      867.644
05/12/2013  11:04:00       -3.746        1.703       -0.851       37.405       17.788       20.970     1399.104      316.409      439.749        0.109        0.108        4.115       11.132        7.318      346.778       25.270      867.625
05/12/2013  11:05:00        1.524      -16.309       33.206       27.196       39.645       23.768      739.623     1571.744      564.911        0.212        0.144       16.380       17.438        1.133      347.041       25.724      867.611
05/12/2013  11:06:00      111.948      -93.351        5.711      105.558      122.203       63.540    11142.417    14933.461     4037.388        2.569        1.506      145.762       76.571        0.276      346.939       25.545      867.608
05/12/2013  11:07:00       85.010     -110.177       -3.943       71.736       99.526       55.028     5146.078     9905.416     3028.092        1.873        0.904      139.161       54.176        0.152      346.833       25.363      867.604
05/12/2013  11:08:00       60.689      -57.682       16.347       49.611       92.934       44.743     2461.253     8636.698     2001.957        1.019        0.655       83.728       55.735        0.443      346.529       24.842      867.616
05/12/2013  11:09:00      -50.016       26.139       23.790       44.360       38.131       43.377     1967.784     1453.957     1881.603        0.453        0.265       56.434       31.597        0.313      346.750       25.223      867.616
05/12/2013  11:10:00        6.070      -16.904        8.843       38.407       48.006       34.393     1475.079     2304.536     1182.908        0.268        0.248       17.961       36.000        4.017      346.548       24.874      867.610
05/12/2013  11:11:00       29.923        6.891       33.080       47.337       44.447       46.013     2240.822     1975.532     2117.173        0.418        0.317       30.707       35.229        1.316      346.600       24.965      867.597
05/12/2013  11:12:00       58.944       95.778       98.052       77.554       81.098       66.047     6014.549     6576.829     4362.250        1.960        0.848      112.463       54.154        0.232      346.485       24.765      867.562
05/12/2013  11:13:00      189.160      135.455       72.267       96.127       64.105       59.874     9240.393     4109.440     3584.938        3.814        0.847      232.658       53.170        0.052      346.648       25.045      867.554
05/12/2013  11:14:00      231.717      143.788       22.427       58.255       65.985       48.541     3393.666     4354.043     2356.253        4.249        0.505      272.704       20.284        0.006      346.709       25.148      867.541
05/12/2013  11:15:00      176.299      128.671       41.880       72.881       53.520       51.479     5311.679     2864.367     2650.076        3.011        0.541      218.260       26.888        0.015      346.702       25.136      867.537
05/12/2013  11:16:00      136.736       96.845       40.148       90.845       68.825       54.479     8252.813     4736.909     2967.927        2.282        0.798      167.558       53.204        0.101      346.900       25.480      867.532
05/12/2013  11:17:00      119.826       48.373       40.348       93.845       49.505       49.211     8806.837     2450.738     2421.713        1.600        0.684      129.222       53.730        0.173      346.963       25.587      867.527
05/12/2013  11:18:00      133.178      101.384       10.585       48.244       36.286       40.518     2327.458     1316.668     1641.731        1.671        0.264      167.377       25.716        0.024      346.700       25.135      867.540
05/12/2013  11:19:00       57.740      -73.640        4.977       92.026      101.262       46.663     8468.760    10254.070     2177.419        1.484        1.045       93.578       41.290        0.195      346.803       25.313      867.545
05/12/2013  11:20:00       83.790       -9.225       60.270       78.223      109.788       68.861     6118.796    12053.355     4741.848        1.682        1.146       84.296       65.514        0.604      347.136       25.885      867.529
05/12/2013  11:21:00       96.085      -94.153       10.328       90.789      126.114       74.197     8242.692    15904.794     5505.124        2.392        1.483      134.526       82.728        0.378      346.831       25.360      867.530
05/12/2013  11:22:00       -6.568       21.471       68.250       73.274       69.517       47.858     5369.027     4832.663     2290.399        0.883        0.625       22.453       54.733        5.942      346.843       25.384      867.572
05/12/2013  11:23:00       -0.465      -15.285       27.134       20.313       30.844       28.873      412.624      951.330      833.643        0.158        0.110       15.292       22.489        2.163      347.135       25.886      867.566
05/12/2013  11:24:00       12.501       16.675       25.193       27.330       39.421       32.269      746.924     1554.048     1041.314        0.221        0.167       20.841       32.933        2.497      347.130       25.878      867.518
05/12/2013  11:25:00       27.015       42.826       51.347       39.577       54.837       52.047     1566.335     3007.044     2708.925        0.624        0.364       50.635       33.155        0.429      346.867       25.423      867.514
05/12/2013  11:26:00       75.285      -35.420       45.723       67.171       96.529       59.724     4511.967     9317.834     3566.946        1.320        0.870       83.201       65.807        0.626      347.081       25.792      867.502
05/12/2013  11:27:00      144.290     -125.237       -8.734       84.174      117.483       56.693     7085.232    13802.168     3214.072        3.034        1.205      191.060       63.370        0.110      347.246       26.076      867.491
05/12/2013  11:28:00      135.014     -176.366      -11.066       90.493      101.038       67.374     8189.073    10208.632     4539.295        3.619        1.147      222.112       56.812        0.065      347.101       25.823      867.482
05/12/2013  11:29:00      122.327     -139.094      -28.066       99.563      111.575       66.478     9912.771    12449.022     4419.342        3.094        1.339      185.232       80.422        0.189      347.133       25.880      867.493
05/12/2013  11:30:00       38.154     -172.540      -25.127       50.346       46.571       29.114     2534.681     2168.859      847.604        1.870        0.278      176.708       21.081        0.014      346.749       25.219      867.515
05/12/2013  11:31:00       29.371      -33.796       33.269       31.125       52.007       37.286      968.735     2704.715     1390.237        0.409        0.253       44.776       19.126        0.182      347.403       26.347      867.503
05/12/2013  11:32:00       10.839        5.295       20.633       41.369       32.807       32.262     1711.370     1076.304     1040.813        0.220        0.191       12.063       22.150        3.371      347.716       26.888      867.501
05/12/2013  11:33:00      -52.876       81.693        8.758       46.460       61.148       36.092     2158.492     3739.065     1302.641        0.837        0.360       97.312       32.899        0.114      347.134       25.883      867.454
05/12/2013  11:34:00      -12.812       88.514       10.130       34.983       52.713       34.607     1223.800     2778.659     1197.672        0.665        0.260       89.437       37.564        0.176      347.586       26.663      867.448
05/12/2013  11:35:00      -56.868       94.674       -0.756       44.879       49.767       40.396     2014.148     2476.759     1631.807        0.916        0.306      110.441       30.625        0.077      347.168       25.943      867.446
05/12/2013  11:36:00      -27.121      -10.800       18.741       56.266       77.482       29.125     3165.842     6003.386      848.266        0.561        0.501       29.193       29.128        0.996      347.372       26.295      867.436
05/12/2013  11:37:00      -22.107       -9.101       -3.951       44.017       44.399       27.202     1937.484     1971.304      739.969        0.262        0.232       23.907       23.676        0.981      347.496       26.509      867.433
05/12/2013  11:38:00        6.461       24.864       19.945       31.477       26.721       24.818      990.778      713.996      615.947        0.169        0.116       25.690       11.289        0.193      348.158       27.651      867.405
05/12/2013  11:39:00      109.709      -37.961       47.471      127.184      137.219       65.433    16175.892    18829.140     4281.511        2.750        1.964      116.091       67.886        0.342      347.715       26.884      867.362
05/12/2013  11:40:00      142.412      104.117       98.595      100.185       75.407       68.663    10037.028     5686.224     4714.564        3.064        1.022      176.413       66.626        0.143      347.386       26.315      867.345
05/12/2013  11:41:00       40.393     -153.225       22.651       90.159      131.575       69.600     8128.648    17311.904     4844.107        2.795        1.514      158.460       88.350        0.311      347.571       26.634      867.345
05/12/2013  11:42:00       21.044      -15.996       59.020       36.053       51.701       43.859     1299.797     2672.998     1923.631        0.504        0.295       26.433       36.336        1.890      348.083       27.521      867.348
05/12/2013  11:43:00       24.879       67.242      117.886       81.620      111.572       69.799     6661.836    12448.320     4871.943        2.151        1.199       71.697       75.437        1.107      347.900       27.202      867.330
05/12/2013  11:44:00       -2.523       55.448       82.290       47.604       70.230       47.954     2266.151     4932.197     2299.541        0.967        0.475       55.505       45.401        0.669      347.797       27.028      867.341
05/12/2013  11:45:00       48.581     -106.752        4.255       60.025       84.593       44.130     3603.047     7156.018     1947.482        1.324        0.635      117.286       37.862        0.104      347.508       26.526      867.338
05/12/2013  11:46:00      125.890     -116.559        5.963      100.178       92.630       66.068    10035.653     8580.292     4364.976        2.622        1.149      171.564       63.046        0.135      347.560       26.616      867.338
05/12/2013  11:47:00      137.520       -7.635       73.714       84.609      114.590       70.413     7158.599    13130.957     4957.930        2.482        1.262      137.732       77.609        0.318      347.442       26.412      867.322
05/12/2013  11:48:00       93.545       57.533       63.841       80.352       92.018       67.825     6456.478     8467.315     4600.262        1.783        0.976      109.821       54.503        0.246      347.679       26.822      867.303
05/12/2013  11:49:00      179.236      161.065       99.531       82.093       73.014       67.874     6739.329     5331.020     4606.831        4.232        0.834      240.972       40.993        0.029      347.356       26.261      867.298
05/12/2013  11:50:00      192.316      137.621       70.165       69.680       61.917       75.881     4855.265     3833.710     5757.983        3.765        0.722      236.485       55.722        0.056      346.982       25.617      867.291
05/12/2013  11:51:00      163.468      116.250       40.869       51.450       57.644       46.258     2647.063     3322.812     2139.843        2.501        0.405      200.589       18.725        0.009      347.093       25.810      867.290
05/12/2013  11:52:00      166.875      130.505       16.949       58.675       49.352       43.473     3442.725     2435.597     1889.929        2.647        0.388      211.846       28.682        0.018      347.252       26.084      867.260
05/12/2013  11:53:00       66.929       48.964       36.242       58.201       70.786       41.308     3387.322     5010.616     1706.329        0.915        0.505       82.927       36.867        0.198      347.489       26.496      867.252
05/12/2013  11:54:00       85.231       65.955       52.901       61.763       66.878       42.076     3814.724     4472.718     1770.350        1.223        0.503      107.770       28.408        0.069      347.316       26.197      867.247
05/12/2013  11:55:00      -53.897       -0.275       35.440      106.711       69.083       59.385    11387.299     4772.441     3526.573        1.192        0.984       53.898       68.763        1.628      347.740       26.926      867.212
05/12/2013  11:56:00        2.623       49.360       68.226       65.324       53.204       46.065     4267.264     2830.693     2121.975        0.816        0.461       49.430       34.673        0.492      348.104       27.558      867.187
05/12/2013  11:57:00       63.463       75.047       49.543       96.781       91.462       66.097     9366.549     8365.288     4368.770        1.710        1.105       98.284       20.522        0.044      347.925       27.248      867.180
05/12/2013  11:58:00      111.884      -67.309       33.632      105.186      135.537       62.465    11064.165    18370.360     3901.824        2.575        1.667      130.570       84.933        0.423      347.875       27.160      867.167
05/12/2013  11:59:00       53.276      -69.812       55.409       98.224      118.346       72.737     9647.994    14005.682     5290.653        1.986        1.447       87.819       79.372        0.817      347.947       27.283      867.155
05/12/2013  12:00:00       55.812      -58.227       40.562       74.666      111.704       68.221     5575.065    12477.737     4654.038        1.542        1.135       80.656       74.567        0.855      348.108       27.565      867.159
05/12/2013  12:01:00       67.504     -104.557       25.937       81.064      110.858       66.584     6571.342    12289.482     4433.402        1.972        1.165      124.455       67.869        0.297      348.013       27.397      867.161
05/12/2013  12:02:00      150.218     -148.770        8.555      119.623      114.936       95.883    14309.736    13210.208     9193.556        4.074        1.836      211.420       95.804        0.205      347.775       26.986      867.152
05/12/2013  12:03:00       69.564       -9.021       94.233       89.658      135.965      110.693     8038.573    18486.381    12252.907        2.628        1.939       70.147      107.295        2.340      347.925       27.246      867.150
05/12/2013  12:04:00       87.488     -135.470      -10.639       95.181      116.149       74.065     9059.435    13490.623     5485.613        2.707        1.402      161.265       62.374        0.150      347.634       26.744      867.150
05/12/2013  12:05:00      186.052     -274.352      -55.883       90.849       85.603       61.473     8253.470     7327.843     3778.983        6.618        0.968      331.488       39.794        0.014      347.242       26.064      867.141
05/12/2013  12:06:00       42.947      -93.110       12.828       86.650       90.664       73.487     7508.194     8219.985     5400.311        1.590        1.056      102.537       62.785        0.375      347.798       27.027      867.125
05/12/2013  12:07:00       36.068       82.710      100.998       56.629       88.399       81.716     3206.800     7814.377     6677.492        1.802        0.885       90.232       77.740        0.742      347.640       26.753      867.110
05/12/2013  12:08:00       74.046       -6.376       53.708      109.401      127.237       95.258    11968.652    16189.171     9074.034        2.281        1.862       74.320      106.022        2.035      347.586       26.661      867.110
05/12/2013  12:09:00       67.067      -11.650       47.684       59.986       81.087       59.719     3598.296     6575.152     3566.348        1.032        0.687       68.071       61.185        0.808      347.738       26.926      867.109
05/12/2013  12:10:00       53.850       -2.495       19.072       32.886       18.195       31.152     1081.501      331.048      970.431        0.283        0.119       53.908       17.103        0.101      347.610       26.704      867.094
05/12/2013  12:11:00      -18.091       -3.564       10.504       50.648       28.202       27.824     2565.244      795.329      774.170        0.229        0.207       18.438       24.229        1.727      347.837       27.097      867.080
05/12/2013  12:12:00     -115.168      -48.737       -3.432       48.221       43.362       34.372     2325.288     1880.303     1181.456        1.052        0.269      125.056       32.207        0.066      347.446       26.422      867.077
05/12/2013  12:13:00     -130.127      -19.486      -12.443       38.808       41.652       27.317     1506.065     1734.925      746.236        1.073        0.199      131.578       23.141        0.031      347.286       26.144      867.054
05/12/2013  12:14:00      -82.290      -79.977       15.743       83.554       70.886       45.569     6981.354     5024.886     2076.545        1.375        0.704      114.751       57.756        0.253      347.617       26.716      867.029
05/12/2013  12:15:00     -159.398      -86.805      -24.745       61.045       67.883       48.964     3726.529     4608.122     2397.501        2.214        0.537      181.501       22.907        0.016      347.459       26.443      867.053
05/12/2013  12:16:00     -264.677      -75.330      -11.402      104.420       60.200       43.961    10903.624     3624.100     1932.588        4.616        0.823      275.188       50.748        0.034      347.627       26.731      867.050
05/12/2013  12:17:00     -139.466        4.852      -21.306       40.355       27.256       28.181     1628.502      742.914      794.146        1.155        0.158      139.550       21.155        0.023      347.599       26.685      867.021
05/12/2013  12:18:00     -203.487     -146.957      -15.992       96.374      109.276       47.139     9287.874    11941.266     2222.124        4.335        1.173      251.004       41.121        0.027      347.697       26.853      867.007
05/12/2013  12:19:00      -80.796      -63.873       28.096      165.147      136.841       80.880    27273.469    18725.395     6541.532        3.196        2.627      102.994       99.270        0.929      348.135       27.609      866.974
05/12/2013  12:20:00     -175.412        0.638       -6.296      129.889       90.938       46.621    16871.276     8269.702     2173.511        2.906        1.366      175.413       40.062        0.052      347.815       27.056      866.982
05/12/2013  12:21:00     -200.335       18.263      -24.067       58.986       79.857       42.155     3479.349     6377.185     1777.077        2.634        0.582      201.166       39.352        0.038      347.499       26.508      866.952
05/12/2013  12:22:00     -272.301      -58.889      -20.476       88.852       79.371       36.149     7894.730     6299.745     1306.775        4.677        0.775      278.596       43.973        0.025      347.388       26.315      866.926
05/12/2013  12:23:00     -220.961       90.095      -17.563       89.145       46.451       35.899     7946.746     2157.670     1288.706        3.432        0.570      238.623       29.831        0.016      347.541       26.581      866.896
05/12/2013  12:24:00     -157.036      -68.753       23.233      111.653      100.549       62.624    12466.488    10110.096     3921.709        2.821        1.325      171.427       64.887        0.143      348.179       27.684      866.907
05/12/2013  12:25:00     -329.691     -246.646        5.409      216.470      167.734       98.492    46859.313    28134.733     9700.587       12.711        4.235      411.741      101.035        0.060      347.814       27.052      866.876
05/12/2013  12:26:00     -379.317     -201.594      -12.314      146.559      119.928       73.786    21479.455    14382.664     5444.320       11.298        2.065      429.559       63.160        0.022      347.751       26.943      866.886
05/12/2013  12:27:00     -182.322     -125.413        1.747       98.500       91.201       44.614     9702.179     8317.564     1990.441        3.449        1.001      221.291       51.876        0.055      347.871       27.151      866.837
05/12/2013  12:28:00     -212.461      -74.030       16.368      170.886      168.541       87.267    29202.165    28405.962     7615.478        5.804        3.261      224.989       84.130        0.140      348.270       27.841      866.829
05/12/2013  12:29:00     -556.306     -174.813      -24.918      156.385      143.015       78.993    24456.129    20453.264     6239.920       19.589        2.557      583.126       75.937        0.017      348.040       27.443      866.815
05/12/2013  12:30:00     -414.330     -125.630       10.076      248.512      134.459       98.508    61757.974    18079.285     9703.877       13.853        4.477      432.957      129.625        0.090      348.032       27.429      866.819
05/12/2013  12:31:00     -369.307     -169.837      -16.215      213.233      134.617       81.971    45468.108    18121.724     6719.164       11.789        3.515      406.488       96.598        0.056      347.828       27.077      866.824
05/12/2013  12:32:00     -458.911       89.382      -51.001      157.276      110.804       61.012    24735.592    12277.574     3722.423       13.096        2.037      467.534       68.653        0.022      347.768       26.973      866.808
05/12/2013  12:33:00     -209.539      -57.188      -10.627      168.100      122.946       61.837    28257.662    15115.633     3823.771        4.724        2.360      217.203       76.435        0.124      348.096       27.541      866.782
05/12/2013  12:34:00     -315.118      -54.867      -22.266      189.634      112.663       69.462    35961.040    12692.922     4824.943        7.813        2.674      319.859       79.873        0.062      348.119       27.579      866.791
05/12/2013  12:35:00     -464.013     -181.991       -9.947      243.433      195.630       99.028    59259.702    38271.236     9806.528       17.791        5.367      498.426      114.232        0.053      348.048       27.456      866.779
05/12/2013  12:36:00     -300.723      -91.185      -12.756      210.711      113.075       81.568    44398.989    12785.861     6653.372        8.136        3.192      314.244       86.797        0.076      348.001       27.375      866.798
05/12/2013  12:37:00     -164.086        7.420       -2.347      148.202       95.216       57.235    21963.921     9066.141     3275.792        3.064        1.715      164.254       59.230        0.130      348.143       27.622      866.806
05/12/2013  12:38:00     -144.290       71.208      -14.149       58.842       60.101       41.378     3462.342     3612.091     1712.119        1.744        0.439      160.905       28.958        0.032      348.013       27.399      866.746
05/12/2013  12:39:00     -214.194       51.924      -19.837      164.514       96.150       59.133    27064.982     9244.880     3496.751        4.438        1.990      220.398       73.897        0.112      348.000       27.375      866.685
05/12/2013  12:40:00     -262.821     -151.722       -6.941      184.761      114.623       67.387    34136.663    13138.330     4541.004        7.197        2.591      303.471       64.762        0.046      348.153       27.636      866.676
05/12/2013  12:41:00     -540.604     -148.240      -25.689      168.303      160.671       91.105    28325.984    25815.219     8300.196       18.865        3.122      560.560       81.616        0.021      347.970       27.321      866.671
05/12/2013  12:42:00     -225.585     -104.295        0.469      174.637      126.007       66.942    30497.964    15877.653     4481.167        5.630        2.543      248.527       77.245        0.097      348.142       27.620      866.714
05/12/2013  12:43:00     -315.244     -181.761        6.025      239.642      106.608       72.224    57428.456    11365.163     5216.285       10.322        3.700      363.890       73.189        0.040      347.857       27.127      866.689
05/12/2013  12:44:00     -488.561      -77.821      -23.870      145.940      143.240       71.571    21298.356    20517.599     5122.364       14.612        2.347      494.720       51.794        0.011      347.689       26.836      866.693
05/12/2013  12:45:00     -338.728     -124.049      -14.034      114.325       83.494       60.081    13070.149     6971.316     3609.747        7.698        1.183      360.728       52.401        0.021      347.552       26.598      866.712
05/12/2013  12:46:00     -249.837      -65.275       -6.279       83.377       75.160       39.260     6951.758     5648.951     1541.340        4.043        0.707      258.224       38.196        0.022      347.688       26.834      866.695
05/12/2013  12:47:00     -261.838      -69.784       -5.581       99.216       99.466       58.138     9843.796     9893.469     3380.074        4.828        1.156      270.977       49.345        0.033      347.799       27.026      866.665
05/12/2013  12:48:00     -338.979      -29.655      -26.455      158.744      105.273       70.407    25199.612    11082.489     4957.089        7.886        2.062      340.273       70.652        0.043      347.995       27.365      866.636
05/12/2013  12:49:00     -154.666      -13.284        3.547       80.107      100.361       51.241     6417.088    10072.311     2625.591        2.161        0.956      155.235       42.921        0.076      348.224       27.761      866.620
05/12/2013  12:50:00     -258.856     -135.049       10.568      239.312      134.096      101.011    57270.462    17981.865    10203.152        8.539        4.273      291.967      125.283        0.184      348.034       27.433      866.592
05/12/2013  12:51:00     -220.300      -74.383       -2.327      190.644      129.151       94.397    36345.270    16679.985     8910.819        5.799        3.097      232.519      108.064        0.216      348.136       27.609      866.560
05/12/2013  12:52:00     -377.354      -18.849      -29.543      168.337      173.041       75.932    28337.400    29943.354     5765.675       10.382        3.202      377.824       79.318        0.044      348.039       27.441      866.554
05/12/2013  12:53:00     -308.830      -33.950       -5.440      154.548      137.959       84.170    23885.043    19032.624     7084.553        7.327        2.500      310.690       72.920        0.055      348.247       27.799      866.538
05/12/2013  12:54:00     -418.058      -46.455      -23.529      207.413      196.712       87.701    43020.021    38695.440     7691.490       13.343        4.470      420.631       78.416        0.035      348.139       27.612      866.511
05/12/2013  12:55:00     -565.374     -189.881      -23.219      226.864      140.275       83.468    51467.276    19677.209     6966.978       21.716        3.906      596.408       92.887        0.024      347.937       27.265      866.530
05/12/2013  12:56:00     -257.862     -144.130       -0.221      168.452      180.568       83.179    28376.104    32604.881     6918.828        7.757        3.395      295.409       83.227        0.079      348.006       27.384      866.562
05/12/2013  12:57:00     -302.482     -156.163      -13.789      177.936      206.723       83.057    31661.216    42734.206     6898.496        9.867        4.065      340.415       93.965        0.076      347.900       27.201      866.520
05/12/2013  12:58:00     -254.848      -24.705      -18.619      187.140      110.055       76.409    35021.516    12112.073     5838.299        5.943        2.649      256.042       77.046        0.091      348.038       27.440      866.474
05/12/2013  12:59:00     -517.052       12.107      -23.786      244.170      193.554      101.735    59619.031    37463.013    10349.980       18.773        5.372      517.194      118.024        0.052      347.822       27.068      866.442
05/12/2013  13:00:00     -536.628     -102.782      -59.590      247.005      136.462       67.350    61011.577    18621.817     4535.997       19.311        4.208      546.383       59.512        0.012      347.932       27.255      866.418
05/12/2013  13:01:00     -439.753      -43.501      -38.344      186.330      191.014       88.069    34719.036    36486.258     7756.115       13.784        3.948      441.900       81.303        0.034      348.142       27.618      866.436
05/12/2013  13:02:00     -347.875     -117.681       -7.574      242.942      155.596       89.241    59020.607    24210.123     7963.937       11.304        4.560      367.241      102.589        0.078      348.208       27.732      866.471
05/12/2013  13:03:00     -344.113      -25.765        4.390      200.667      146.399       64.163    40267.223    21432.573     4116.952        9.245        3.291      345.076       81.059        0.055      348.111       27.566      866.491
05/12/2013  13:04:00     -387.779      -98.006      -20.052      225.826      149.629       80.560    50997.443    22388.715     6489.976       12.011        3.994      399.972      100.714        0.063      348.012       27.395      866.468
05/12/2013  13:05:00     -319.141      -97.804      -29.709      195.181      150.761       84.176    38095.639    22728.747     7085.578        9.009        3.395      333.791       87.661        0.069      348.021       27.411      866.435
05/12/2013  13:06:00     -263.804      -45.692      -24.650      103.304      101.698       54.275    10671.806    10342.394     2945.732        4.812        1.198      267.731       41.553        0.024      348.018       27.403      866.417
05/12/2013  13:07:00     -148.502      -50.561        3.525       86.872       76.348       48.254     7546.806     5829.004     2328.445        2.016        0.785      156.873       48.772        0.097      348.437       28.131      866.462
05/12/2013  13:08:00     -263.178      -74.772      -14.695      149.423       98.641       61.970    22327.157     9729.973     3840.337        5.548        1.795      273.594       68.554        0.063      348.262       27.828      866.451
05/12/2013  13:09:00     -253.933     -245.591      -10.155      213.114      142.435       90.056    45417.740    20287.745     8110.091        9.935        3.691      353.266      106.632        0.091      347.987       27.352      866.422
05/12/2013  13:10:00     -327.210     -218.269        2.663      201.761      116.473       73.134    40707.507    13566.062     5348.511       10.716        2.981      393.330       88.672        0.051      347.960       27.304      866.379
05/12/2013  13:11:00     -204.000     -172.573       11.049      133.455      145.198       71.458    17810.213    21082.353     5106.181        5.775        2.200      267.203       73.356        0.075      348.179       27.683      866.380
05/12/2013  13:12:00     -459.827     -104.011      -22.529      204.157      128.936       78.491    41680.258    16624.586     6160.897       14.361        3.223      471.444       76.524        0.026      347.951       27.289      866.379
05/12/2013  13:13:00     -403.887     -113.836      -17.261      196.577      136.036       67.209    38642.675    18505.781     4517.097       11.901        3.083      419.623       61.002        0.021      347.962       27.307      866.391
05/12/2013  13:14:00     -362.460      -79.386       -4.910      228.250      135.511       79.610    52098.047    18363.203     6337.822       10.724        3.840      371.051       99.682        0.072      348.122       27.585      866.386
05/12/2013  13:15:00      -43.119      -95.300       31.030      127.969      104.377       78.811    16376.050    10894.549     6211.195        2.269        1.674      104.601       83.143        0.632      348.390       28.050      866.359
05/12/2013  13:16:00     -264.262     -145.782       14.176      202.063      178.226       98.591    40829.455    31764.530     9720.245        8.679        4.116      301.806      114.327        0.143      348.309       27.907      866.322
05/12/2013  13:17:00     -300.525     -124.793        3.085      141.165      139.933       69.069    19927.677    19581.309     4770.460        7.508        2.214      325.405       70.167        0.046      348.278       27.853      866.315
05/12/2013  13:18:00     -269.651       39.876       -5.450      238.539      100.210       82.032    56900.958    10041.953     6729.291        7.399        3.684      272.583      112.386        0.170      348.572       28.364      866.320
05/12/2013  13:19:00     -591.302     -149.389      -19.343      239.621      171.127       93.851    57418.413    29284.436     8807.997       23.390        4.776      609.882      114.196        0.035      348.113       27.569      866.272
05/12/2013  13:20:00     -518.021      -88.427       -2.845      175.294      137.744       82.413    30728.031    18973.455     6791.898       16.632        2.825      525.514       92.270        0.031      347.899       27.199      866.266
05/12/2013  13:21:00     -237.068      -69.851       28.809      189.848      179.282       93.178    36042.203    32142.211     8682.066        6.938        3.843      247.144       81.491        0.109      348.320       27.928      866.295
05/12/2013  13:22:00     -206.149      -99.471       -6.989      159.699       82.296       59.354    25503.657     6772.568     3522.844        4.411        1.790      228.893       54.028        0.056      348.302       27.895      866.260
05/12/2013  13:23:00     -202.691     -114.193       -4.979      120.037       99.663       56.277    14408.794     9932.744     3167.152        4.082        1.375      232.645       41.566        0.032      348.563       28.349      866.253
05/12/2013  13:24:00     -472.387      -76.544      -18.403      161.718      149.360       76.825    26152.696    22308.406     5902.134       14.185        2.718      478.549       79.903        0.028      348.543       28.312      866.236
05/12/2013  13:25:00     -525.359     -195.106      -18.314      216.280      171.019       86.255    46777.191    29247.528     7440.003       19.892        4.173      560.418       76.377        0.019      348.315       27.918      866.217
05/12/2013  13:26:00     -498.637     -127.886      -42.667      184.889      123.345       65.587    34184.071    15214.093     4301.620       16.025        2.685      514.776       50.021        0.009      348.081       27.514      866.227
05/12/2013  13:27:00     -416.037      -51.670      -20.717      178.748      146.695       76.422    31950.954    21519.330     5840.376       11.774        2.966      419.234       85.988        0.042      348.166       27.660      866.222
05/12/2013  13:28:00     -189.987      -36.152        7.486      123.750      105.541       59.237    15314.069    11138.874     3509.062        3.371        1.498      193.396       51.979        0.072      348.485       28.213      866.174
05/12/2013  13:29:00     -369.476     -143.691      -21.928      159.871      155.482       74.531    25558.822    24174.611     5554.938       10.646        2.764      396.433       54.852        0.019      348.266       27.834      866.150
05/12/2013  13:30:00     -323.972     -146.391        3.910      274.893      172.378      103.677    75566.185    29714.049    10748.971       12.120        5.801      355.511      128.745        0.131      348.581       28.379      866.119
05/12/2013  13:31:00     -252.580      -51.023       21.132      256.373      139.608      101.762    65727.297    19490.387    10355.567        8.119        4.779      257.682       91.595        0.126      348.701       28.586      866.161
05/12/2013  13:32:00     -119.192     -118.422        9.565      120.603      108.064       56.469    14545.028    11677.796     3188.776        2.886        1.471      168.019       57.031        0.115      348.577       28.373      866.195
05/12/2013  13:33:00     -340.389     -130.336      -14.686      218.352      131.402       94.202    47677.720    17266.522     8873.927       10.343        3.691      364.489      109.259        0.090      348.363       28.001      866.147
05/12/2013  13:34:00     -526.830      -63.751      -39.414      216.537      203.826      100.346    46888.083    41545.034    10069.319       19.082        4.925      530.673       96.155        0.033      348.380       28.029      866.114
05/12/2013  13:35:00     -518.834     -112.261      -18.146      240.939      155.553       94.538    58051.661    24196.792     8937.366       18.664        4.559      530.840      111.526        0.044      348.198       27.716      866.105
05/12/2013  13:36:00     -456.099     -131.751      -20.864      228.835      212.529       91.106    52365.417    45168.676     8300.296       16.581        5.292      474.747      102.860        0.047      348.369       28.011      866.083
05/12/2013  13:37:00     -436.767      -24.833      -40.757      201.201      124.893       76.709    40481.790    15598.204     5884.344       12.749        3.098      437.472       79.816        0.033      348.464       28.175      866.117
05/12/2013  13:38:00     -280.072     -181.542       -7.094      172.335      115.796       84.100    29699.256    13408.705     7072.791        8.081        2.509      333.763       93.156        0.078      348.575       28.367      866.124
05/12/2013  13:39:00     -361.189     -219.237       -1.101      232.986      146.960       89.371    54282.559    21597.158     7987.140       13.118        4.193      422.519      109.687        0.067      348.550       28.325      866.119
05/12/2013  13:40:00     -444.281     -289.633      -24.378      169.565      129.665       78.407    28752.310    16812.958     6147.720       16.678        2.586      530.351       75.622        0.020      348.200       27.718      866.126
05/12/2013  13:41:00     -310.789     -132.440      -15.213      192.749      161.908       89.463    37152.326    26214.247     8003.566        9.285        3.569      337.831      100.784        0.089      348.392       28.052      866.110
05/12/2013  13:42:00     -343.013      -62.073       -7.319      170.190      124.232       67.468    28964.634    15433.696     4551.968        8.525        2.448      348.584       81.104        0.054      348.503       28.242      866.092
05/12/2013  13:43:00     -413.831     -212.594       -7.591      255.083      181.976       93.733    65067.206    33115.254     8785.942       16.172        5.348      465.244      104.223        0.050      348.495       28.229      866.094
05/12/2013  13:44:00     -557.012     -402.875      -35.523      256.052      171.171      111.086    65562.710    29299.634    12340.061       29.050        5.360      687.438      111.772        0.026      348.115       27.571      866.031
05/12/2013  13:45:00     -405.069     -209.750       -7.887      237.468      198.951      103.197    56390.985    39581.669    10649.594       15.736        5.331      456.154      116.540        0.065      348.308       27.905      866.050
05/12/2013  13:46:00     -275.215     -192.613       -5.949      225.455      160.418      108.740    50829.783    25733.994    11824.464       10.062        4.419      335.921      103.000        0.094      348.253       27.811      866.049
05/12/2013  13:47:00     -430.475     -253.889      -20.888      177.665      150.424       78.724    31565.002    22627.259     6197.409       15.529        3.019      499.768       80.854        0.026      348.145       27.625      866.065
05/12/2013  13:48:00     -297.755     -173.729        4.801      194.355      177.870      106.608    37773.838    31637.770    11365.314        9.981        4.039      344.732      115.489        0.112      348.325       27.936      866.042
05/12/2013  13:49:00     -218.014     -105.275        5.205      186.905      135.220       76.643    34933.648    18284.353     5874.188        5.886        2.955      242.101       93.958        0.151      348.549       28.324      866.049
05/12/2013  13:50:00     -258.413      -57.629       -0.813      170.887      116.064       76.743    29202.203    13470.910     5889.492        5.932        2.428      264.761       99.218        0.140      348.386       28.042      866.057
05/12/2013  13:51:00     -185.298     -183.578        0.917      149.721      139.571       67.472    22416.318    19480.114     4552.512        5.724        2.322      260.838       72.076        0.076      348.307       27.905      866.026
05/12/2013  13:52:00     -131.095     -126.493        3.577      103.995      121.521       58.743    10815.054    14767.330     3450.731        3.111        1.452      182.171       53.995        0.088      348.325       27.935      866.015
05/12/2013  13:53:00     -266.568       25.428      -11.173      149.346      132.628       75.154    22304.188    17590.242     5648.075        5.868        2.277      267.778       63.665        0.057      348.569       28.358      866.017
05/12/2013  13:54:00     -481.687      -30.828      -28.894      204.994      157.609       91.105    42022.618    24840.443     8300.049       15.447        3.758      482.672      102.393        0.045      348.321       27.927      865.967
05/12/2013  13:55:00     -472.464      -31.406      -26.279      212.790      179.108       80.137    45279.734    32079.611     6422.002       15.433        4.189      473.507       88.730        0.035      348.430       28.117      865.936
05/12/2013  13:56:00     -330.060     -134.400      -27.893      181.980      152.161       75.483    33116.650    23153.024     5697.694        9.486        3.098      356.375       84.099        0.056      348.395       28.056      865.964
05/12/2013  13:57:00     -419.638     -275.817       -5.769      283.214      225.413      104.495    80210.218    50810.828    10919.275       19.705        7.097      502.166      133.863        0.071      348.260       27.824      865.943
05/12/2013  13:58:00     -385.242     -185.615       -9.062      203.114      189.126       79.108    41255.119    35768.542     6258.051       13.310        4.164      427.626       92.771        0.047      348.505       28.246      865.911
05/12/2013  13:59:00     -364.240      -99.456        3.336      215.210      167.461      100.083    46315.184    28043.048    10016.667       11.346        4.219      377.574      124.379        0.109      348.407       28.078      865.949
05/12/2013  14:00:00     -238.799      -15.530        1.602      165.014      153.849       65.020    27229.672    23669.639     4227.556        5.619        2.756      239.303       69.539        0.084      348.616       28.440      865.955
05/12/2013  14:01:00     -330.993     -133.023       -7.529      219.363      127.457       77.205    48119.976    16245.399     5960.545        9.881        3.516      356.723       98.024        0.076      348.665       28.524      865.972
05/12/2013  14:02:00     -329.943     -283.499        6.156      204.264      164.059      109.026    41723.661    26915.361    11886.758       13.489        4.026      435.010      119.631        0.076      348.397       28.059      865.949
05/12/2013  14:03:00     -307.297     -187.536      -16.651      170.770      144.855       65.764    29162.228    20983.101     4324.869        9.217        2.724      360.002       38.070        0.011      348.548       28.320      865.959
05/12/2013  14:04:00     -382.278     -173.362      -14.133      235.647      136.080       72.739    55529.632    18517.783     5291.026       12.785        3.967      419.751       85.717        0.042      348.164       27.657      865.926
05/12/2013  14:05:00     -286.933     -243.510      -10.592      186.018      128.567       82.057    34602.848    16529.556     6733.299        9.979        2.893      376.335      100.734        0.072      348.117       27.578      865.853
05/12/2013  14:06:00     -245.163      -83.036       -1.403      187.751      142.753       74.383    35250.454    20378.525     5532.782        6.407        3.058      258.844       83.797        0.105      348.634       28.469      865.829
05/12/2013  14:07:00     -326.596       65.274      -21.639      219.613      165.856       79.003    48229.752    27508.233     6241.400        9.667        4.099      333.055       93.760        0.079      348.644       28.488      865.863
05/12/2013  14:08:00     -485.079       72.798      -42.981      251.613      146.510       90.307    63308.949    21465.157     8155.410       16.767        4.646      490.511      114.182        0.054      348.512       28.258      865.821
05/12/2013  14:09:00     -411.179     -180.911       -6.285      216.030      161.910       94.082    46668.772    26214.975     8851.480       14.177        4.087      449.218      101.189        0.051      348.425       28.108      865.820
05/12/2013  14:10:00     -514.142     -145.141       -3.286      163.292      164.808       82.661    26664.375    27161.600     6832.792       17.303        3.033      534.236       82.571        0.024      348.384       28.036      865.827
05/12/2013  14:11:00     -370.094     -127.698      -20.065      198.251      161.307       74.555    39303.522    26019.870     5558.373       11.227        3.544      391.506       83.261        0.045      348.389       28.043      865.817
05/12/2013  14:12:00     -533.976     -196.312      -25.467      201.016      248.332      109.985    40407.233    61668.632    12096.688       21.923        5.709      568.919      114.563        0.041      348.443       28.138      865.795
05/12/2013  14:13:00     -347.934     -210.437        1.034      216.961      179.694      101.623    47071.885    32289.767    10327.217       12.750        4.484      406.623      115.216        0.080      348.619       28.444      865.803
05/12/2013  14:14:00     -401.853     -225.271      -23.169      243.358      179.997       99.027    59223.158    32399.039     9806.274       15.708        5.071      460.687      114.158        0.061      348.705       28.592      865.825
05/12/2013  14:15:00     -231.368     -190.669        4.853      248.929      133.129       97.731    61965.842    17723.360     9551.425        8.956        4.462      299.810      112.237        0.140      348.364       28.003      865.851
05/12/2013  14:16:00     -488.942     -252.144       -0.518      310.841      220.815      118.841    96621.820    48759.355    14123.168       23.105        7.975      550.128      147.836        0.072      348.298       27.888      865.818
05/12/2013  14:17:00     -462.206     -177.098      -10.105      295.839      178.575      104.763    87520.676    31888.913    10975.359       18.772        6.519      494.973      128.685        0.068      348.359       27.994      865.833
05/12/2013  14:18:00     -445.466     -146.528      -39.088      183.282      182.845       92.217    33592.210    33432.239     8503.894       14.847        3.776      468.946       96.970        0.043      348.283       27.862      865.839
05/12/2013  14:19:00     -303.487     -232.197       -4.982      244.875      212.214       93.494    59963.793    45034.652     8741.080       12.987        5.687      382.125      125.339        0.108      348.351       27.982      865.845
05/12/2013  14:20:00     -220.514     -253.682        1.546      154.517      135.467       85.162    23875.636    18351.267     7252.520        8.122        2.474      336.126       82.635        0.060      348.248       27.801      865.795
05/12/2013  14:21:00     -236.277     -173.317       -0.108      179.874      171.554       88.095    32354.558    29430.758     7760.738        7.769        3.477      293.028       90.376        0.095      348.629       28.461      865.804
05/12/2013  14:22:00     -317.632      -21.154       -3.427      166.980      168.800       81.034    27882.465    28493.308     6566.536        8.214        3.147      318.336       92.721        0.085      348.739       28.652      865.794
05/12/2013  14:23:00     -630.470     -152.999      -20.322      288.042      188.715       95.734    82968.210    35613.435     9165.004       27.451        6.387      648.769      121.895        0.035      348.373       28.018      865.775
05/12/2013  14:24:00     -299.556     -159.566       -1.761      340.395      212.488      122.155   115868.776    45151.193    14921.897       14.554        8.797      339.404      154.792        0.208      348.334       27.952      865.783
05/12/2013  14:25:00     -383.455     -247.598      -18.756      284.434      189.190      116.861    80902.530    35792.802    13656.457       16.950        6.518      456.446      138.637        0.092      348.366       28.007      865.725
05/12/2013  14:26:00     -305.296     -105.570       -7.996      205.502      257.985      106.791    42231.176    66556.184    11404.239       11.228        6.010      323.034      117.895        0.133      348.556       28.335      865.739
05/12/2013  14:27:00     -419.919      -46.005       -2.138      267.481      176.626      106.223    71545.859    31196.866    11283.247       14.622        5.701      422.432      126.372        0.089      348.601       28.414      865.730
05/12/2013  14:28:00     -476.521      -38.636      -15.994      229.020      170.179      101.366    52450.223    28960.884    10275.016       16.024        4.584      478.085      105.836        0.049      348.564       28.349      865.719
05/12/2013  14:29:00     -367.158     -275.522       -1.405      264.344      176.134      115.352    69877.796    31023.031    13305.977       16.244        5.710      459.040      136.018        0.088      348.457       28.163      865.724
05/12/2013  14:30:00     -406.731     -310.630       18.834      313.580      209.428      132.502    98332.726    43860.290    17556.828       21.099        7.987      511.782      169.759        0.110      348.452       28.153      865.689
05/12/2013  14:31:00     -401.417     -132.903        2.767      164.308      144.633       85.260    26997.054    20918.641     7269.349       11.699        2.759      422.846       86.262        0.042      348.595       28.401      865.712
05/12/2013  14:32:00     -273.270      -60.500       -3.641      177.243      170.944       78.529    31415.070    29221.903     6166.839        7.257        3.340      279.887       77.247        0.076      348.630       28.463      865.762
05/12/2013  14:33:00     -313.045     -263.151       -7.799      210.095      181.125      101.542    44139.982    32806.142    10310.770       12.727        4.363      408.956      108.446        0.070      348.295       27.884      865.716
05/12/2013  14:34:00     -422.700     -156.576      -35.743      222.215      145.077       97.868    49379.528    21047.478     9578.064       14.222        4.000      450.768      101.375        0.051      348.395       28.056      865.669
05/12/2013  14:35:00     -327.899      -50.993       -0.981      236.151      174.618       97.115    55767.181    30491.575     9431.315       10.289        4.785      331.841      107.758        0.105      348.627       28.458      865.725
05/12/2013  14:36:00     -491.564      -62.422       -1.479      190.239      145.699       96.430    36190.920    21228.231     9298.810       15.611        3.336      495.511      100.353        0.041      348.407       28.078      865.711
05/12/2013  14:37:00     -321.215      -88.908       -6.728      208.492      148.476       90.039    43468.875    22045.121     8106.960        9.236        3.681      333.292       86.580        0.067      348.434       28.125      865.690
05/12/2013  14:38:00     -558.865     -101.410      -32.811      274.655      187.944       88.303    75435.275    35322.864     7797.475       22.110        5.928      567.991      123.945        0.048      348.332       27.946      865.680
05/12/2013  14:39:00     -537.282      -96.883      -28.623      160.106      153.541       86.786    25633.951    23574.904     7531.894       17.780        2.837      545.948       85.028        0.024      348.206       27.729      865.673
05/12/2013  14:40:00     -444.154     -118.563      -14.700      260.733      189.465       94.945    67981.452    35897.118     9014.616       16.220        5.645      459.707       97.399        0.045      348.294       27.881      865.608
05/12/2013  14:41:00     -541.819      -56.560       -8.887      215.780      195.526       92.447    46560.918    38230.367     8546.372       19.508        4.667      544.763       97.293        0.032      348.545       28.315      865.590
05/12/2013  14:42:00     -391.659     -220.051        3.538      283.675      171.918      101.301    80471.338    29555.921    10261.830       16.104        6.014      449.243      132.042        0.086      348.525       28.281      865.622
05/12/2013  14:43:00     -450.791     -215.516      -18.875      238.696      168.010      106.380    56975.937    28227.338    11316.751       17.325        4.826      499.660      123.807        0.061      348.384       28.036      865.624
05/12/2013  14:44:00     -603.647     -125.482      -52.628      199.673      185.680       88.100    39869.415    34477.119     7761.647       23.249        4.105      616.551       62.134        0.010      348.333       27.948      865.612
05/12/2013  14:45:00     -412.848     -148.957      -23.207      278.213      185.585      106.044    77402.233    34441.824    11245.348       15.811        6.154      438.898      136.309        0.096      348.418       28.096      865.570
05/12/2013  14:46:00     -443.623       31.964      -10.891      193.990      143.265       87.306    37631.961    20524.784     7622.403       13.185        3.289      444.773       91.409        0.042      348.573       28.365      865.583
05/12/2013  14:47:00     -379.297       12.838      -17.920      194.117      162.235       78.881    37681.321    26320.332     6222.253       10.728        3.511      379.514       85.980        0.051      348.470       28.185      865.554
05/12/2013  14:48:00     -234.575     -133.179        4.071      185.142      157.335       91.117    34277.429    24754.243     8302.311        7.005        3.367      269.744       83.027        0.095      348.469       28.185      865.536
05/12/2013  14:49:00     -158.761      -66.160        4.740      122.542      119.645       65.086    15016.485    14314.977     4236.148        3.158        1.678      171.995       78.231        0.207      348.412       28.088      865.507
05/12/2013  14:50:00     -302.721      -53.475       -5.512      325.320      110.592       80.791   105832.967    12230.589     6527.194       10.954        6.230      307.408      138.298        0.202      348.783       28.727      865.508
05/12/2013  14:51:00     -356.757      -24.753       -1.809      212.907      182.478       92.476    45329.465    33298.243     8551.900       10.752        4.359      357.615       92.349        0.067      348.858       28.858      865.496
05/12/2013  14:52:00     -492.496      -18.133      -22.569      334.445      211.977      105.938   111853.722    44934.235    11222.918       20.567        8.401      492.830      118.872        0.058      348.527       28.284      865.525
05/12/2013  14:53:00     -449.775      -99.740      -24.228      233.520      205.509       84.001    54531.585    42233.882     7056.221       15.831        5.191      460.701       68.326        0.022      348.329       27.942      865.526
05/12/2013  14:54:00     -202.588      -26.530      -19.943      190.025      136.787       64.256    36109.362    18710.616     4128.820        5.054        2.947      204.318       64.970        0.101      348.609       28.428      865.527
05/12/2013  14:55:00     -455.320     -255.475      -34.961      262.823      259.526      110.162    69075.976    67353.608    12135.625       21.116        7.428      522.095      117.655        0.051      348.245       27.798      865.516
05/12/2013  14:56:00     -310.707     -250.085       -8.584      210.686      181.188      115.870    44388.392    32829.261    13425.741       12.488        4.532      398.850      118.534        0.088      348.402       28.068      865.507
05/12/2013  14:57:00     -433.168     -183.047      -24.916      296.415      173.933      102.249    87861.980    30252.576    10454.797       17.514        6.428      470.257       98.534        0.044      348.401       28.067      865.520
05/12/2013  14:58:00     -288.117     -130.223      -16.509      168.259      162.080       74.146    28311.080    26269.954     5497.674        8.015        3.004      316.179       83.723        0.070      348.399       28.064      865.520
05/12/2013  14:59:00     -235.587       -2.982        3.258      153.731      148.601       66.528    23633.196    22082.253     4425.990        5.282        2.507      235.606       66.275        0.079      348.560       28.343      865.471
05/12/2013  15:00:00     -302.941        3.901      -17.427      197.756      129.535       64.813    39107.573    16779.408     4200.721        7.608        3.004      302.966       62.148        0.042      348.417       28.096      865.437
05/12/2013  15:01:00     -509.399     -206.333      -13.452      280.371      275.134      115.414    78607.675    75698.720    13320.297       23.491        8.381      549.601      135.709        0.061      348.545       28.315      865.394
05/12/2013  15:02:00     -456.129     -281.537        5.166      286.425      207.247      129.240    82039.279    42951.218    16702.940       21.449        7.085      536.019      144.095        0.072      348.436       28.128      865.379
05/12/2013  15:03:00     -512.613     -412.521      -22.779      318.175      255.489      153.403   101235.440    65274.586    23532.518       31.172        9.502      657.986      183.021        0.077      348.306       27.903      865.376
05/12/2013  15:04:00     -450.465     -192.355       -6.007      223.860      202.434       95.381    50113.482    40979.574     9097.559       17.006        5.010      489.815       99.387        0.041      348.323       27.933      865.462
05/12/2013  15:05:00     -345.603     -112.847       -5.193      184.964      182.666       88.110    34211.626    33366.960     7763.409       10.376        3.767      363.560       84.141        0.054      348.554       28.332      865.465
05/12/2013  15:06:00     -389.084     -169.783       -8.329      199.910      147.626       88.261    39963.875    21793.565     7790.043       12.490        3.477      424.514       95.707        0.051      348.408       28.077      865.476
05/12/2013  15:07:00     -365.948     -259.116       -4.148      242.747      187.676      110.863    58926.292    35222.104    12290.707       15.374        5.322      448.396      123.651        0.076      348.383       28.036      865.447
05/12/2013  15:08:00     -531.006     -376.527      -28.568      220.647      168.460       94.411    48685.105    28378.697     8913.476       25.525        4.299      650.953      104.542        0.026      347.996       27.366      865.427
05/12/2013  15:09:00     -390.862     -187.836      -20.462      178.767      153.932       91.824    31957.572    23695.044     8431.701       12.627        3.204      433.654       97.517        0.051      348.249       27.802      865.410
05/12/2013  15:10:00     -174.346      -29.259       -9.198      134.534      100.990       61.910    18099.451    10199.070     3832.789        3.173        1.607      176.784       71.709        0.165      348.665       28.523      865.395
05/12/2013  15:11:00     -128.559      -27.888        5.365      155.768       89.214       61.911    24263.721     7959.170     3832.956        2.669        1.803      131.549       68.678        0.273      349.089       29.261      865.343
05/12/2013  15:12:00     -323.384     -112.160       14.616      277.927      210.060      108.762    77243.415    44125.117    11829.113       12.526        6.660      342.282      137.516        0.161      348.682       28.552      865.273
05/12/2013  15:13:00     -378.252      -87.061       -2.062      253.001      164.892       86.774    64009.727    27189.294     7529.806       12.468        4.936      388.142      104.602        0.073      348.740       28.652      865.322
05/12/2013  15:14:00     -362.636      -12.066      -12.401      207.951      151.481       91.748    43243.692    22946.548     8417.663       10.319        3.730      362.837      105.414        0.084      348.630       28.463      865.307
05/12/2013  15:15:00     -522.066      -58.122      -30.473      277.086      253.929      110.562    76776.674    64479.745    12223.873       21.514        7.674      525.291      115.090        0.048      348.598       28.407      865.262
05/12/2013  15:16:00     -601.949     -108.891      -17.344      272.423      207.101      111.866    74214.166    42891.009    12514.080       25.204        6.481      611.719      127.016        0.043      348.431       28.117      865.237
05/12/2013  15:17:00     -431.927      -99.980      -15.749      245.205      220.804      109.857    60125.516    48754.308    12068.588       15.886        6.047      443.347      118.774        0.072      348.492       28.224      865.236
05/12/2013  15:18:00     -266.878     -150.591       -9.061      147.439      153.709       73.362    21738.260    23626.368     5381.969        7.236        2.537      306.434       83.047        0.073      348.820       28.791      865.240
05/12/2013  15:19:00     -399.795     -238.802       -3.268      252.282      220.951      111.303    63646.001    48819.407    12388.300       17.084        6.243      465.685      124.731        0.072      348.572       28.364      865.231
05/12/2013  15:20:00     -364.512     -281.233       -5.682      229.594      201.207      114.373    52713.507    40484.423    13081.242       15.912        5.314      460.392      124.074        0.073      348.532       28.293      865.190
05/12/2013  15:21:00     -388.646     -206.463        5.489      294.096      253.194      133.109    86492.231    64107.367    17717.998       18.098        8.416      440.083      153.280        0.121      348.638       28.477      865.204
05/12/2013  15:22:00     -471.343     -258.962       -3.195      311.672      248.534      140.133    97139.425    61769.332    19637.135       23.386        8.927      537.797      173.217        0.104      348.463       28.175      865.191
05/12/2013  15:23:00     -484.741     -236.342      -18.816      296.074      197.478      114.030    87659.965    38997.608    13002.757       21.540        6.983      539.288      121.620        0.051      348.371       28.015      865.196
05/12/2013  15:24:00     -450.081     -231.393       -7.031      401.837      186.280      142.558   161473.174    34700.099    20322.794       23.629       10.825      506.079      161.231        0.101      348.372       28.016      865.173
05/12/2013  15:25:00     -426.095     -154.588        4.524      316.397      240.601      151.811   100106.785    57888.763    23046.724       19.323        9.052      453.271      191.672        0.179      348.367       28.008      865.178
05/12/2013  15:26:00     -441.511     -142.909      -35.245      249.778      202.534      104.642    62389.181    41019.857    10950.006       16.546        5.718      464.063      109.465        0.056      348.403       28.070      865.163
05/12/2013  15:27:00     -511.643     -122.874      -38.028      321.145      269.357      119.022   103134.201    72553.331    14166.328       23.406        9.493      526.191      139.823        0.071      348.337       27.955      865.157
05/12/2013  15:28:00     -245.195      -63.176       11.346      169.941      134.801       93.381    28879.825    18171.394     8719.930        6.000        2.789      253.203       81.603        0.104      348.591       28.395      865.205
05/12/2013  15:29:00     -490.288     -163.626      -23.601      235.667      230.539       97.709    55538.708    53148.370     9547.001       19.295        5.912      516.871       92.587        0.032      348.452       28.154      865.183
05/12/2013  15:30:00     -635.580     -164.749      -20.385      231.225      199.104       93.259    53464.878    39642.344     8697.175       26.664        5.090      656.585      101.264        0.024      348.192       27.704      865.171
05/12/2013  15:31:00     -362.365      -67.859        0.879      257.015      170.020       98.611    66056.878    28906.683     9724.140       12.028        5.234      368.664      113.084        0.094      348.513       28.261      865.168
05/12/2013  15:32:00     -269.148     -105.369       14.034      213.497      187.883      116.226    45580.907    35300.024    13508.507        8.905        4.719      289.038      123.715        0.183      348.534       28.296      865.135
05/12/2013  15:33:00     -335.746      -78.499      -10.252      170.607      161.713       72.804    29106.788    26151.164     5300.364        8.977        3.028      344.801       80.249        0.054      348.607       28.425      865.151
05/12/2013  15:34:00     -327.351        4.827      -21.622      174.032      136.280       72.595    30287.024    18572.207     5269.962        8.088        2.706      327.387       87.263        0.071      348.670       28.532      865.137
05/12/2013  15:35:00     -326.955     -253.038        3.806      274.155      203.733      108.593    75160.916    41507.274    11792.340       14.968        6.423      413.434      134.849        0.106      348.529       28.287      865.097
05/12/2013  15:36:00     -292.897       20.685       13.757      242.779      136.523       87.149    58941.746    18638.622     7594.916        8.578        4.259      293.627      110.956        0.143      348.786       28.733      865.062
05/12/2013  15:37:00     -348.842     -160.231        9.859      250.099      201.958       99.768    62549.443    40787.194     9953.731       13.036        5.665      383.881      121.866        0.101      348.750       28.671      865.046
05/12/2013  15:38:00     -516.566     -161.827      -32.123      267.237      242.755       95.582    71415.667    58929.968     9135.921       21.675        6.974      541.321      115.826        0.046      348.563       28.348      865.090
05/12/2013  15:39:00     -531.415     -211.370      -11.640      279.621      237.576      120.691    78187.888    56442.341    14566.317       23.818        7.460      571.909      125.589        0.048      348.326       27.937      865.076
05/12/2013  15:40:00     -423.536      -91.197       -9.442      255.982      181.716      102.509    65526.620    33020.721    10508.193       14.840        5.453      433.243      114.949        0.070      348.376       28.024      865.074
05/12/2013  15:41:00     -321.361     -209.600       -3.211      260.114      198.555      106.239    67659.049    39424.013    11286.796       13.277        5.918      383.673      132.064        0.118      348.379       28.029      865.066
05/12/2013  15:42:00     -308.159     -185.103        0.309      263.195      211.042      112.199    69271.609    44538.530    12588.663       12.779        6.320      359.479      145.506        0.164      348.360       27.996      865.065
05/12/2013  15:43:00     -257.139     -138.662        9.782      266.004      150.409       96.771    70758.364    22622.869     9364.642        9.408        5.137      292.143      136.369        0.218      348.444       28.142      865.026
05/12/2013  15:44:00     -672.033     -225.069      -45.007      240.336      177.318      117.073    57761.537    31441.739    13706.075       30.359        5.145      708.721      128.938        0.033      348.248       27.802      864.988
05/12/2013  15:45:00     -360.280      -98.818      -28.635      182.266      141.406       78.784    33220.799    19995.757     6206.968        9.990        2.971      373.586       72.927        0.038      348.370       28.013      864.999
05/12/2013  15:46:00     -328.581     -108.736       -0.053      200.586      166.775       92.150    40234.889    27813.799     8491.598        9.815        3.827      346.105       94.112        0.074      348.493       28.225      864.940
05/12/2013  15:47:00     -514.547     -106.603      -19.043      235.873      203.742       77.186    55635.856    41510.615     5957.670       18.978        5.155      525.474       80.066        0.023      348.439       28.131      864.941
05/12/2013  15:48:00     -479.055     -155.494      -13.844      266.476      238.460      105.717    71009.332    56863.265    11175.993       19.643        6.952      503.659      103.164        0.042      348.413       28.087      864.931
05/12/2013  15:49:00     -307.983     -230.090       -3.910      260.084      219.364      122.266    67643.661    48120.428    14948.856       13.924        6.536      384.440      130.074        0.114      348.344       27.969      864.906
05/12/2013  15:50:00     -427.698     -311.044      -29.994      250.729      202.567      126.179    62865.038    41033.542    15921.121       20.018        5.991      528.842      134.194        0.064      348.242       27.792      864.930
05/12/2013  15:51:00     -504.038     -161.425      -11.233      259.449      230.431      116.929    67313.703    53098.224    13672.375       20.714        6.704      529.257      133.902        0.064      348.234       27.779      864.920
05/12/2013  15:52:00     -483.560     -140.890       -0.686      282.702      217.696      112.088    79920.315    47391.605    12563.642       19.675        6.994      503.667      127.020        0.064      348.196       27.711      864.927
05/12/2013  15:53:00     -605.964     -261.744      -15.007      228.543      185.414      103.125    52231.687    34378.346    10634.758       26.657        4.862      660.078      106.854        0.026      348.211       27.737      864.887
05/12/2013  15:54:00     -261.752     -130.817       26.974      280.242      173.880      111.245    78535.322    30234.252    12375.554       10.373        6.057      292.621      130.471        0.199      348.466       28.178      864.869
05/12/2013  15:55:00     -576.395     -287.082      -28.735      285.830      230.825      105.001    81698.802    53280.396    11025.299       28.071        7.300      643.931      130.351        0.041      348.262       27.825      864.883
05/12/2013  15:56:00     -362.142     -224.836       -7.029      275.717      177.567      102.514    76019.856    31529.923    10509.147       14.988        5.903      426.260      110.476        0.067      348.388       28.045      864.887
05/12/2013  15:57:00     -260.398      -79.226       15.144      186.384      139.072       81.510    34739.082    19341.124     6643.961        6.751        3.036      272.184       98.428        0.131      348.642       28.483      864.898
05/12/2013  15:58:00     -301.236     -224.125      -16.676      223.262      153.196       96.323    49845.783    23469.012     9278.049       11.191        4.130      375.467      116.371        0.096      348.531       28.292      864.871
05/12/2013  15:59:00     -294.089     -180.777        5.861      254.183      180.359       91.655    64609.015    32529.197     8400.689       11.235        5.277      345.208      113.206        0.108      348.484       28.211      864.866
05/12/2013  16:00:00     -425.259     -190.146      -16.710      237.955      154.535       93.294    56622.553    23880.916     8703.860       15.323        4.460      465.833      102.537        0.048      348.375       28.021      864.843
05/12/2013  16:01:00     -425.887     -239.876      -24.336      238.496      132.380       79.600    56880.352    17524.354     6336.217       16.011        4.037      488.795       82.037        0.028      348.490       28.219      864.824
05/12/2013  16:02:00     -455.906     -302.849      -16.909      196.824      186.082      103.326    38739.766    34626.375    10676.190       19.193        4.202      547.328      104.308        0.036      348.365       28.004      864.806
05/12/2013  16:03:00     -468.707     -200.751      -15.854      288.850      216.376      124.216    83434.451    46818.746    15429.678       20.294        7.284      509.889      147.140        0.083      348.427       28.113      864.800
05/12/2013  16:04:00     -562.747     -186.175       -5.450      242.619      267.959      116.334    58863.838    71802.292    13533.696       24.776        7.210      592.744      127.051        0.046      348.189       27.700      864.798
05/12/2013  16:05:00     -474.133     -163.175      -27.271      198.659      156.976       90.078    39465.389    24641.384     8114.034       16.218        3.611      501.426       90.616        0.033      348.273       27.846      864.808
05/12/2013  16:06:00     -157.962      -62.069        6.956      132.892      105.459       70.712    17660.203    11121.511     5000.171        3.131        1.689      169.719       69.673        0.169      348.554       28.331      864.796
05/12/2013  16:07:00     -208.970     -137.438        3.061      132.647      170.639       77.107    17595.320    29117.639     5945.429        5.760        2.633      250.115       66.358        0.070      348.659       28.512      864.794
05/12/2013  16:08:00     -551.865     -280.589      -37.357      281.291      232.677      110.910    79124.612    54138.503    12301.022       26.510        7.278      619.101      116.823        0.036      348.347       27.975      864.730
05/12/2013  16:09:00     -596.565     -167.181      -20.175      205.779      177.514       93.885    42345.061    31511.127     8814.320       23.344        4.134      619.547       87.397        0.020      348.392       28.051      864.733
05/12/2013  16:10:00     -467.102     -165.965      -10.865      276.371      233.739      113.330    76381.154    54633.884    12843.612       19.483        7.193      495.710      128.355        0.067      348.452       28.153      864.720
05/12/2013  16:11:00     -685.327     -239.287      -37.518      303.990      213.702      115.516    92410.179    45668.735    13343.975       33.986        7.571      725.900      116.750        0.026      348.157       27.645      864.717
05/12/2013  16:12:00     -370.102     -105.697        1.135      260.053      217.372      100.623    67627.572    47250.456    10124.947       13.655        6.250      384.899      114.467        0.088      348.363       28.000      864.740
05/12/2013  16:13:00     -480.449     -208.692      -19.952      237.413      241.944      113.812    56365.144    58537.016    12953.103       20.130        6.393      523.817      131.370        0.063      348.373       28.019      864.754
05/12/2013  16:14:00     -404.884     -219.592      -14.281      178.543      184.830       72.908    31877.551    34162.159     5315.557       14.184        3.568      460.599       72.113        0.025      348.255       27.814      864.772
05/12/2013  16:15:00     -327.016     -273.852       11.710      217.368      169.043      115.469    47248.839    28575.457    13333.019       13.560        4.458      426.538      121.229        0.081      348.301       27.894      864.763
05/12/2013  16:16:00     -334.261     -276.504        4.703      257.697      166.660      107.453    66407.697    27775.589    11546.047       14.695        5.286      433.803      138.541        0.102      348.337       27.957      864.795
05/12/2013  16:17:00     -359.441     -172.889       -4.366      279.874      162.711      112.537    78329.228    26474.896    12664.661       13.827        5.873      398.859      131.612        0.109      348.376       28.023      864.783
05/12/2013  16:18:00     -428.382     -177.808      -14.957      261.567      202.811      103.508    68417.191    41132.203    10713.924       16.779        6.013      463.817      127.492        0.076      348.212       27.740      864.788
05/12/2013  16:19:00     -421.694     -255.021       -1.434      240.182      179.107      103.894    57687.610    32079.369    10793.962       17.170        5.028      492.810      116.476        0.056      348.065       27.487      864.767
05/12/2013  16:20:00     -364.109     -178.779      -21.338      202.001      208.009       97.206    40804.530    43267.911     9449.096       12.924        4.676      405.632      114.328        0.079      348.208       27.733      864.752
05/12/2013  16:21:00     -206.361      -70.071       -4.430      169.162       91.448       80.116    28615.873     8362.768     6418.546        4.545        2.170      217.933       85.957        0.156      348.330       27.944      864.772
05/12/2013  16:22:00     -387.184     -308.606      -13.617      227.301      167.134      100.814    51665.698    27933.614    10163.484       16.753        4.488      495.125      106.027        0.046      348.338       27.959      864.767
05/12/2013  16:23:00     -283.767     -131.196        6.033      190.743      137.398       81.214    36382.888    18878.341     6595.652        7.980        3.093      312.628       89.222        0.081      348.476       28.197      864.746
05/12/2013  16:24:00     -391.908     -245.278      -18.642      183.686      124.245       83.812    33740.519    15436.848     7024.492       13.514        2.810      462.335       93.470        0.041      348.229       27.769      864.721
05/12/2013  16:25:00     -291.062     -222.175        2.184      217.928      155.334       99.155    47492.425    24128.657     9831.770       10.775        4.073      366.167      114.872        0.098      348.494       28.227      864.712
05/12/2013  16:26:00     -366.305     -220.513      -11.500      197.636      167.933      104.995    39060.053    28201.630    11023.891       13.060        3.914      427.558      106.478        0.062      348.440       28.134      864.746
05/12/2013  16:27:00     -437.288     -226.694      -10.761      228.334      177.784       86.169    52136.427    31607.178     7425.077       16.693        4.558      492.556       98.244        0.040      348.122       27.585      864.715
05/12/2013  16:28:00     -398.804     -113.197       -8.960      145.609      174.934       87.879    21201.938    30601.879     7722.659       11.572        2.976      414.557       78.776        0.036      348.437       28.128      864.734
05/12/2013  16:29:00     -234.309      -82.695       -7.234      136.375      120.635       71.770    18598.188    14552.894     5150.928        5.004        1.915      248.474       72.264        0.085      348.485       28.212      864.748
05/12/2013  16:30:00     -453.750     -297.503      -16.689      182.439      172.551       88.677    33284.074    29773.944     7863.527       18.279        3.546      542.584       88.141        0.026      348.310       27.911      864.728
05/12/2013  16:31:00     -315.216     -166.901       22.656      181.533      152.931       91.345    32954.055    23387.955     8343.993        9.620        3.234      356.675      104.397        0.086      348.349       27.977      864.709
05/12/2013  16:32:00     -337.420     -313.395        0.510      187.680      165.393       92.330    35223.635    27354.762     8524.863       14.157        3.555      460.509       98.756        0.046      348.413       28.087      864.715
05/12/2013  16:33:00     -367.997     -148.248        1.138      253.410      161.592      108.483    64216.657    26111.974    11768.660       12.973        5.105      396.736      122.405        0.095      348.287       27.871      864.735
05/12/2013  16:34:00     -435.594     -281.130      -10.881      243.561      207.197      113.554    59322.200    42930.573    12894.617       19.200        5.757      518.436      121.120        0.055      348.149       27.630      864.690
05/12/2013  16:35:00     -397.017     -273.001       11.762      293.125      209.202      114.716    85922.322    43765.528    13159.782       18.755        7.142      481.822      142.408        0.087      348.066       27.488      864.695
05/12/2013  16:36:00     -280.901     -179.373       -9.805      145.169      122.372       82.028    21074.045    14974.968     6728.665        7.697        2.139      333.286       72.688        0.048      348.315       27.919      864.717
05/12/2013  16:37:00     -510.664     -204.133      -29.836      312.514      186.444      112.180    97665.145    34761.339    12584.336       22.415        7.251      549.952      138.487        0.063      348.278       27.854      864.753
05/12/2013  16:38:00     -462.490     -316.420       -7.796      254.827      187.869      114.453    64936.748    35294.698    13099.390       21.369        5.667      560.374      131.975        0.055      348.224       27.760      864.724
05/12/2013  16:39:00     -625.329     -175.333      -34.124      237.948      266.713       98.880    56619.141    71135.723     9777.278       28.021        6.877      649.444      107.371        0.027      348.182       27.688      864.739
05/12/2013  16:40:00     -420.733     -125.261       -8.170      234.273      188.987       97.103    54884.048    35716.164     9429.063       14.638        5.001      438.983      108.263        0.061      348.281       27.860      864.731
05/12/2013  16:41:00     -474.675        4.863      -35.386      254.952      175.988       83.978    65000.709    30971.861     7052.264       16.479        5.151      474.700      110.020        0.054      348.255       27.814      864.696
05/12/2013  16:42:00     -387.060      -35.817      -19.908      251.166      154.320       82.819    63084.498    23814.629     6858.936       12.261        4.688      388.714      113.286        0.085      348.495       28.229      864.749
05/12/2013  16:43:00     -252.815      -67.535       -7.097      248.751      139.622       83.989    61877.091    19494.391     7054.177        7.846        4.421      261.680      100.475        0.147      348.481       28.206      864.750
05/12/2013  16:44:00     -221.559      -61.076       11.070      182.906      146.780       73.154    33454.648    21544.372     5351.467        5.664        3.018      229.823       76.599        0.111      348.394       28.057      864.717
05/12/2013  16:45:00     -781.852     -130.710      -54.293      202.313      230.157       97.457    40930.647    52972.412     9497.956       36.735        5.170      792.702       85.316        0.012      348.182       27.688      864.733
05/12/2013  16:46:00     -424.987     -117.437      -24.645      172.218      161.803       82.594    29658.929    26180.253     6821.786       12.883        3.133      440.914       79.985        0.033      348.249       27.802      864.742
05/12/2013  16:47:00     -334.462     -113.502       -4.132      180.489      132.673       81.922    32576.185    17602.084     6711.280        9.082        2.844      353.196       89.549        0.064      348.311       27.910      864.708
05/12/2013  16:48:00     -412.134      -74.246      -28.737      228.236      115.250       84.976    52091.537    13282.572     7220.856       12.438        3.630      418.768       90.812        0.047      348.401       28.067      864.698
05/12/2013  16:49:00     -532.987     -137.611      -13.545      321.274      201.573      100.295   103216.955    40631.560    10059.088       22.853        7.695      550.465      139.804        0.065      348.294       27.881      864.674
05/12/2013  16:50:00     -391.158     -311.455      -15.700      251.406      222.639      127.872    63204.738    49568.250    16351.308       18.967        6.456      500.009      132.799        0.071      348.187       27.697      864.688
05/12/2013  16:51:00     -511.514     -336.603      -10.970      318.985      216.176      123.941   101751.225    46732.190    15361.255       26.943        8.192      612.330      148.181        0.059      348.004       27.380      864.648
05/12/2013  16:52:00     -323.685     -154.719       16.572      241.524      211.735      102.467    58333.746    44831.662    10499.490       12.131        5.683      358.762      110.734        0.095      348.130       27.598      864.684
05/12/2013  16:53:00     -493.778      -41.317      -15.633      264.038      222.004      106.000    69715.907    49285.966    11235.948       18.798        6.512      495.503      102.710        0.043      348.087       27.524      864.701
05/12/2013  16:54:00     -248.990     -115.228       12.312      242.068      189.503       94.525    58597.066    35911.539     8935.061        8.942        5.172      274.360      104.153        0.144      348.206       27.728      864.697
05/12/2013  16:55:00     -525.058     -234.300      -24.663      258.016      157.439      104.048    66572.016    24787.035    10825.929       21.667        5.109      574.963      110.734        0.037      348.068       27.491      864.682
05/12/2013  16:56:00     -339.844     -192.438        2.303      220.054      130.615       94.856    48423.934    17060.252     8997.672       11.349        3.724      390.546      101.675        0.068      348.128       27.595      864.667
05/12/2013  16:57:00     -324.549      -46.508      -16.110      124.719      114.935       61.078    15554.837    13209.981     3730.553        7.012        1.625      327.864       50.616        0.024      348.379       28.028      864.671
05/12/2013  16:58:00     -530.042     -247.775      -13.714      177.021      191.139       86.202    31336.280    36534.097     7430.734       20.890        3.765      585.095       94.389        0.026      348.342       27.966      864.686
05/12/2013  16:59:00     -385.747     -335.999        1.630      265.406      234.556      122.459    70440.223    55016.723    14996.217       20.105        7.023      511.562      134.699        0.069      348.076       27.505      864.693
05/12/2013  17:00:00     -588.418     -349.414      -30.760      212.292      269.473      117.165    45067.809    72615.471    13727.720       30.032        6.571      684.343      118.549        0.030      347.953       27.291      864.674
05/12/2013  17:01:00     -475.244     -259.046       -6.414      296.349      235.041      112.652    87822.570    55244.467    12690.552       22.435        7.788      541.259      136.669        0.064      347.958       27.301      864.689
05/12/2013  17:02:00     -312.759     -189.406        3.704      211.627      129.830       93.218    44785.973    16855.919     8689.503       10.201        3.517      365.641      100.959        0.076      347.991       27.356      864.677
05/12/2013  17:03:00     -320.925     -132.846       -7.138      168.060      144.386       69.603    28244.169    20847.348     4844.553        8.731        2.697      347.334       78.187        0.051      348.050       27.460      864.659
05/12/2013  17:04:00     -296.648     -174.721       -9.072      186.346      200.813       78.030    34724.695    40325.824     6088.620        9.986        4.057      344.278       87.727        0.065      348.098       27.544      864.638
05/12/2013  17:05:00     -223.200     -137.867        4.111      154.106      150.378       84.171    23748.809    22613.613     7084.712        6.114        2.672      262.347       91.293        0.121      348.104       27.552      864.596
05/12/2013  17:06:00     -254.834     -151.687       15.138      294.356      207.350      130.844    86645.664    42993.965    17120.133       11.744        7.338      296.562      163.754        0.305      348.146       27.627      864.593
05/12/2013  17:07:00     -520.155     -233.356      -37.137      259.472      219.421      117.172    67325.925    48145.564    13729.251       22.778        6.460      570.102      133.694        0.055      348.006       27.384      864.609
05/12/2013  17:08:00     -460.101     -171.072       -2.774      257.276      227.992       95.295    66190.719    51980.242     9081.218       18.409        6.363      490.875      101.876        0.043      348.040       27.443      864.583
05/12/2013  17:09:00     -494.558     -345.282      -11.380      226.170      191.055      107.641    51153.019    36502.002    11586.497       23.157        4.962      603.164      113.378        0.035      348.016       27.401      864.523
05/12/2013  17:10:00     -415.408      -49.036      -18.744      191.171      134.327       74.322    36546.403    18043.668     5523.805       11.771        3.006      418.292       70.573        0.028      348.249       27.805      864.587
05/12/2013  17:11:00     -502.715     -180.808      -15.002      351.160      293.075      124.273   123313.274    85892.751    15443.829       25.511       11.232      534.241      151.241        0.080      348.036       27.435      864.578
05/12/2013  17:12:00     -377.743     -164.341       16.152      284.444      209.322      117.008    80908.242    43815.778    13690.822       15.416        6.921      411.944      143.167        0.121      348.043       27.448      864.568
05/12/2013  17:13:00     -366.991      -21.718       -0.977      296.699      238.063      102.930    88030.467    56674.157    10594.600       14.520        7.765      367.633      119.700        0.106      348.052       27.464      864.602
05/12/2013  17:14:00     -290.037     -154.110       16.655      248.565      171.218      110.773    61784.349    29315.574    12270.599       10.574        5.169      328.437      136.885        0.174      347.990       27.356      864.567
05/12/2013  17:15:00     -220.046     -119.713        6.097      201.210      147.909       97.190    40485.526    21877.177     9445.830        6.729        3.590      250.502      113.241        0.204      348.037       27.438      864.565
05/12/2013  17:16:00     -356.775      -93.480       -1.947      252.434      198.662       95.488    63722.742    39466.663     9118.043       12.415        5.615      368.818      109.736        0.089      348.075       27.503      864.563
05/12/2013  17:17:00     -413.101     -175.006       -4.193      268.559      185.735      103.166    72123.771    34497.348    10643.226       15.926        5.863      448.641      129.565        0.083      348.023       27.415      864.559
05/12/2013  17:18:00     -541.013     -145.483      -18.387      242.104      197.937       89.415    58614.373    39179.200     7995.114       20.998        5.289      560.232      101.102        0.033      347.965       27.314      864.566
05/12/2013  17:19:00     -452.389      -56.921      -22.980      267.344      162.524      104.154    71472.567    26414.052    10848.053       15.856        5.437      455.956      125.868        0.076      347.979       27.337      864.531
05/12/2013  17:20:00     -436.033     -103.922       -4.288      273.857      187.724      102.171    74997.452    35240.268    10439.002       16.079        6.034      448.246      127.970        0.082      347.981       27.341      864.537
05/12/2013  17:21:00     -356.683      -87.894      -15.076      227.186      180.688       85.379    51613.369    32648.062     7289.575       11.335        4.578      367.353      103.138        0.079      348.004       27.380      864.499
05/12/2013  17:22:00     -334.344     -186.668        6.414      236.183      202.984       85.781    55782.428    41202.321     7358.329       12.549        5.217      382.924      103.785        0.073      348.064       27.483      864.485
05/12/2013  17:23:00     -608.542     -350.756      -50.136      230.601      181.080      104.949    53177.033    32789.945    11014.334       29.641        4.849      702.391      100.848        0.021      347.885       27.174      864.438
05/12/2013  17:24:00     -474.055      -11.314      -35.426      234.822      215.668       98.813    55141.291    46512.601     9764.008       16.875        5.571      474.190       84.999        0.032      347.987       27.352      864.485
05/12/2013  17:25:00     -218.750     -120.299        9.432      229.909      171.221       81.078    52858.294    29316.491     6573.690        7.557        4.437      249.647      103.997        0.174      348.150       27.634      864.471
05/12/2013  17:26:00     -534.036     -209.790      -17.163      232.518      201.010      109.252    54064.497    40404.950    11936.051       21.794        5.320      573.765      119.362        0.043      347.980       27.339      864.451
05/12/2013  17:27:00     -356.923     -137.032      -13.960      234.288      172.280      100.913    54890.828    29680.466    10183.527       12.054        4.738      382.324      115.660        0.092      348.052       27.462      864.457
05/12/2013  17:28:00     -338.909     -194.639        4.764      229.300      165.604       94.930    52578.581    27424.850     9011.739       12.088        4.451      390.824      102.419        0.069      348.094       27.535      864.490
05/12/2013  17:29:00     -280.625     -210.735        5.837      217.081      174.881       90.369    47124.136    30583.336     8166.517       10.452        4.294      350.941      113.896        0.105      348.151       27.634      864.510
05/12/2013  17:30:00     -479.385     -364.680      -12.711      218.787      216.833      128.340    47867.868    47016.674    16471.181       23.714        5.568      602.330      131.945        0.048      347.834       27.087      864.497
05/12/2013  17:31:00     -536.310     -323.009       -3.138      232.086      208.999      117.081    53863.838    43680.760    13708.045       25.159        5.563      626.070      131.876        0.044      347.763       26.965      864.484
05/12/2013  17:32:00     -389.160     -317.122        4.424      227.412      173.595      106.351    51716.379    30135.093    11310.479       17.258        4.658      502.008      118.297        0.056      347.845       27.107      864.442
05/12/2013  17:33:00     -316.048     -161.534        8.821      207.859      148.774       94.391    43205.371    22133.653     8909.655       10.014        3.712      354.936      113.601        0.102      348.055       27.469      864.477
05/12/2013  17:34:00     -723.737     -138.321      -43.845      266.304      195.730      100.162    70917.844    38310.132    10032.347       33.204        5.963      736.837      119.248        0.026      347.909       27.217      864.459
05/12/2013  17:35:00     -592.904     -172.295      -38.857      200.142      160.348       89.141    40056.791    25711.482     7946.119       22.821        3.686      617.430       93.559        0.023      347.826       27.073      864.472
05/12/2013  17:36:00     -266.119      -64.437      -12.329      163.906      138.398       77.615    26865.099    19153.887     6024.160        6.357        2.602      273.809       87.817        0.103      347.976       27.333      864.455
05/12/2013  17:37:00     -428.786     -228.233       -6.172      180.360      188.507       99.932    32529.895    35534.779     9986.482       15.701        3.903      485.745      102.028        0.044      347.963       27.312      864.445
05/12/2013  17:38:00     -207.245     -179.433        0.629      185.633      145.726       98.239    34459.562    21236.111     9650.934        7.024        3.267      274.129      101.991        0.138      348.039       27.441      864.402
05/12/2013  17:39:00     -273.093     -131.409       -3.331      188.320      140.215       70.199    35464.296    19660.299     4927.929        7.595        3.003      303.065       69.965        0.053      348.141       27.617      864.439
05/12/2013  17:40:00     -233.344      -87.330       12.685      164.398      157.843       90.189    27026.866    24914.384     8134.088        6.115        3.004      249.151       95.655        0.147      348.080       27.512      864.418
05/12/2013  17:41:00     -381.350     -348.384       11.506      267.923      198.227      118.700    71782.568    39293.904    14089.678       19.603        6.258      516.526      149.821        0.084      347.841       27.099      864.387
05/12/2013  17:42:00     -213.315        3.267       11.498      250.295      180.946       79.708    62647.476    32741.408     6353.326        7.368        5.087      213.340       98.989        0.215      348.159       27.649      864.401
05/12/2013  17:43:00     -511.384      -69.083      -22.923      251.003      184.050       98.817    63002.377    33874.351     9764.711       18.671        5.332      516.029      113.165        0.048      347.963       27.311      864.403
05/12/2013  17:44:00     -226.289     -100.881       11.281      199.735      139.666       77.233    39894.049    19506.646     5964.861        6.343        3.268      247.757       88.278        0.127      347.996       27.368      864.398
05/12/2013  17:45:00     -298.307     -260.044       -0.308      214.937      189.069      108.852    46198.113    35747.088    11848.793       12.519        4.690      395.740      121.336        0.094      347.891       27.186      864.380
05/12/2013  17:46:00     -333.612     -173.478      -27.961      216.200      162.782       89.622    46742.589    26498.086     8032.146       11.171        4.064      376.020       89.455        0.057      347.868       27.145      864.355
05/12/2013  17:47:00     -420.231     -312.047      -17.407      270.283      198.494      123.934    73052.643    39399.926    15359.550       20.102        6.391      523.419      144.047        0.076      347.860       27.133      864.370
05/12/2013  17:48:00     -467.689     -183.272      -22.437      306.209      170.306      116.274    93763.790    29004.002    13519.606       19.453        6.814      502.316      146.958        0.086      347.755       26.952      864.356
05/12/2013  17:49:00     -316.022     -211.451       12.563      215.502      171.247       86.418    46440.972    29325.689     7468.005       11.397        4.162      380.239       71.213        0.035      347.816       27.055      864.349
05/12/2013  17:50:00     -505.215      -98.447      -31.955      268.573      185.788       98.552    72131.353    34517.179     9712.589       19.114        5.818      514.718      126.448        0.060      347.787       27.006      864.348
05/12/2013  17:51:00     -334.843      -82.635       -8.344      142.694      134.446       80.278    20361.659    18075.698     6444.632        8.194        2.244      344.889       70.736        0.042      347.953       27.294      864.371
05/12/2013  17:52:00     -290.070      -90.548      -10.267      220.042      178.350       94.055    48418.567    31808.616     8846.330        9.074        4.454      303.874       89.159        0.086      347.949       27.286      864.376
05/12/2013  17:53:00     -447.156      -16.709       -4.013      264.873      181.948       98.152    70157.566    33104.963     9633.809       15.655        5.645      447.468      124.145        0.077      347.853       27.121      864.358
05/12/2013  17:54:00     -517.087     -255.447      -34.084      239.330      178.818      116.375    57278.612    31975.858    13543.044       21.828        5.140      576.743      119.980        0.043      347.733       26.913      864.354
05/12/2013  17:55:00     -502.479      -48.536      -20.779      248.584      180.755       86.073    61794.144    32672.219     7408.580       17.856        5.094      504.818       99.831        0.039      347.763       26.964      864.338
05/12/2013  17:56:00     -375.732     -138.386       -1.572      251.766      172.575       94.202    63386.035    29782.125     8873.960       13.117        5.102      400.407      105.414        0.069      347.775       26.986      864.353
05/12/2013  17:57:00     -279.763      -91.278       11.674      150.084      138.887       79.261    22525.350    19289.469     6282.379        6.741        2.405      294.278       75.025        0.065      347.805       27.037      864.365
05/12/2013  17:58:00     -311.659     -118.944       -8.490      202.726      164.118       90.055    41097.906    26934.854     8109.988        9.373        3.807      333.585       96.152        0.083      347.819       27.061      864.366
05/12/2013  17:59:00     -396.774     -192.516       -9.743      279.494      220.759      111.771    78116.949    48734.390    12492.688       16.694        6.967      441.012      122.134        0.077      347.837       27.091      864.378
05/12/2013  18:00:00     -462.013     -251.229       -5.260      195.456      188.654       97.039    38202.981    35590.436     9416.520       17.989        4.160      525.901      102.429        0.038      347.631       26.738      864.360
05/12/2013  18:01:00     -393.720      -42.017      -21.389      230.901      185.366       88.904    53315.410    34360.375     7903.889       12.639        4.779      395.956      102.749        0.067      347.652       26.774      864.365
05/12/2013  18:02:00     -439.417     -167.419      -18.131      150.603      168.142       77.989    22681.274    28271.692     6082.349       13.923        2.852      470.230       75.720        0.026      347.663       26.791      864.355
05/12/2013  18:03:00     -271.090     -164.011      -18.094      221.032      160.278       82.477    48855.105    25689.009     6802.436        9.102        4.067      316.843      106.594        0.113      347.715       26.881      864.351
05/12/2013  18:04:00     -525.564     -117.562      -27.685      211.868      144.747       81.187    44888.035    20951.711     6591.354       18.161        3.622      538.552       96.292        0.032      347.711       26.874      864.352
05/12/2013  18:05:00     -222.306      -50.268        6.979      219.607      107.722       71.714    48227.206    11604.093     5142.963        5.847        3.249      227.919       83.097        0.133      347.819       27.062      864.329
05/12/2013  18:06:00     -346.101     -146.513      -30.296      186.598      153.438       76.499    34818.651    23543.129     5852.032       10.318        3.211      375.835       63.208        0.028      347.748       26.939      864.324
05/12/2013  18:07:00     -509.371     -149.885      -25.597      219.130      145.125       81.605    48017.899    21061.378     6659.443       17.915        3.787      530.965       68.835        0.017      347.727       26.904      864.323
05/12/2013  18:08:00     -328.585     -244.356      -19.358      288.257      240.045      124.570    83092.069    57621.421    15517.593       16.212        7.812      409.486      140.569        0.118      347.673       26.809      864.322
05/12/2013  18:09:00     -393.188     -145.890      -15.079      262.791      197.124      110.188    69058.984    38857.819    12141.311       14.806        6.003      419.381      145.057        0.120      347.719       26.890      864.300
05/12/2013  18:10:00     -552.514     -191.158      -25.577      292.476      232.210      109.089    85542.348    53921.499    11900.392       24.689        7.568      584.647      142.441        0.059      347.628       26.731      864.353
05/12/2013  18:11:00     -422.585      -59.256       -6.557      282.779      180.680       93.738    79964.012    32645.313     8786.802       15.174        6.070      426.719      123.356        0.084      347.684       26.828      864.349
05/12/2013  18:12:00     -382.113      -53.921        9.536      303.971      171.481       87.698    92398.602    29405.834     7690.865       13.923        6.475      385.899       93.129        0.058      347.698       26.854      864.346
05/12/2013  18:13:00     -468.496     -160.647      -13.992      253.601      181.520      101.621    64313.501    32949.409    10326.796       17.652        5.379      495.273      110.517        0.050      347.632       26.737      864.305
05/12/2013  18:14:00     -540.657      -69.917      -24.918      201.921      144.782      104.202    40772.040    20961.806    10858.156       18.519        3.630      545.159       98.884        0.033      347.643       26.756      864.295
05/12/2013  18:15:00     -666.473      -33.999      -47.479      237.203      138.074       96.650    56265.113    19064.345     9341.175       26.612        4.234      667.340      107.862        0.026      347.578       26.644      864.286
05/12/2013  18:16:00     -368.900     -301.686        1.440      220.944      218.810      135.001    48816.152    47877.802    18225.191       17.099        5.746      476.552      138.610        0.085      347.577       26.644      864.286
05/12/2013  18:17:00     -357.854     -204.229        3.872      236.425      194.918      109.667    55896.738    37993.135    12026.827       13.783        5.296      412.030      129.208        0.098      347.522       26.549      864.266
05/12/2013  18:18:00     -326.468     -198.131        6.576      210.329      140.017       90.080    44238.348    19604.649     8114.325       10.891        3.598      381.887      102.205        0.072      347.606       26.695      864.279
05/12/2013  18:19:00     -575.553       86.853      -19.252      213.723      201.176       99.069    45677.694    40471.634     9814.740       21.755        4.798      582.070       95.018        0.027      347.645       26.761      864.296
05/12/2013  18:20:00     -299.880     -182.662        1.794      199.252      168.535      105.766    39701.343    28404.147    11186.538       10.128        3.965      351.132      116.632        0.110      347.683       26.827      864.301
05/12/2013  18:21:00     -279.467     -196.773       10.736      221.502      165.672      117.828    49063.044    27447.214    13883.339       10.365        4.520      341.792      137.943        0.163      347.652       26.773      864.322
05/12/2013  18:22:00     -311.074     -133.519      -15.602      135.903      147.573       73.393    18469.693    21777.747     5386.568        8.023        2.282      338.518       69.415        0.042      347.636       26.744      864.321
05/12/2013  18:23:00     -185.422      -78.804        9.920      187.058      146.897       84.053    34990.661    21578.712     7064.943        5.215        3.182      201.473       88.727        0.194      347.667       26.800      864.321
05/12/2013  18:24:00     -420.428     -316.325       -9.381      251.335      190.595      125.165    63169.410    36326.339    15666.399       19.602        5.758      526.138      130.795        0.062      347.509       26.525      864.277
05/12/2013  18:25:00     -295.271      -44.602       10.874      206.109      149.363       86.338    42480.998    22309.205     7454.186        8.076        3.612      298.621       93.262        0.098      347.613       26.706      864.315
05/12/2013  18:26:00     -213.406      -19.831       -2.445      133.155      108.488       69.243    17730.161    11769.600     4794.545        4.011        1.715      214.326       64.334        0.090      347.656       26.780      864.327
05/12/2013  18:27:00     -278.722     -120.635      -16.431      148.625      118.333       68.637    22089.351    14002.815     4711.105        6.665        2.040      303.709       70.458        0.054      347.628       26.732      864.299
05/12/2013  18:28:00     -298.667      -52.782       -6.315      146.434      137.764       67.382    21442.965    18978.950     4540.333        6.849        2.248      303.295       66.413        0.048      347.659       26.784      864.282
05/12/2013  18:29:00     -345.653     -117.932       -1.873      249.959      165.022       89.734    62479.315    27232.344     8052.196       11.556        4.888      365.218      114.920        0.099      347.601       26.685      864.252
05/12/2013  18:30:00     -540.497     -102.357      -18.608      256.796      160.366       98.071    65944.399    25717.195     9617.962       20.210        5.064      550.103      120.121        0.048      347.474       26.466      864.215
05/12/2013  18:31:00     -463.374     -138.472      -23.810      165.023      142.836       81.084    27232.497    20402.053     6574.615       14.432        2.710      483.622       81.535        0.028      347.471       26.460      864.231
05/12/2013  18:32:00     -414.671     -102.246      -13.186      251.929      160.861       79.606    63468.074    25876.117     6337.088       13.911        4.784      427.091       96.420        0.051      347.492       26.498      864.237
05/12/2013  18:33:00     -568.847     -183.360      -18.132      179.832      142.910       82.530    32339.688    20423.265     6811.260       20.855        2.979      597.668       87.066        0.021      347.427       26.384      864.239
05/12/2013  18:34:00     -335.354     -121.418      -19.519      176.378      136.888       76.723    31109.370    18738.294     5886.411        9.165        2.787      356.657       87.857        0.061      347.461       26.443      864.238
05/12/2013  18:35:00     -558.001      -97.047      -32.223      168.195      180.661       78.276    28289.632    32638.516     6127.127       19.443        3.353      566.377       75.722        0.018      347.299       26.164      864.201
05/12/2013  18:36:00     -532.029     -129.859      -41.549      195.810      155.761       85.750    38341.657    24261.431     7353.027       18.579        3.498      547.648       79.883        0.021      347.363       26.274      864.207
05/12/2013  18:37:00     -333.667      -87.594       -1.314      168.170      156.683       68.971    28281.120    24549.592     4756.974        8.829        2.879      344.973       74.353        0.046      347.377       26.299      864.213
05/12/2013  18:38:00     -518.839      -84.978      -37.900      243.139      146.041      106.177    59116.779    21327.942    11273.654       18.477        4.586      525.752      119.829        0.052      347.315       26.193      864.216
05/12/2013  18:39:00     -440.907      -70.894       -3.701      234.898      153.606       97.363    55177.133    23594.667     9479.607       14.383        4.413      446.570      114.339        0.066      347.323       26.206      864.212
05/12/2013  18:40:00     -249.676      -56.042       15.532      180.524      123.592       79.803    32588.829    15274.868     6368.550        5.997        2.712      255.888       83.378        0.106      347.430       26.392      864.228
05/12/2013  18:41:00     -415.154     -106.626      -21.233      226.427      160.300       91.256    51269.007    25696.227     8327.642       13.472        4.265      428.628      108.469        0.064      347.346       26.245      864.226
05/12/2013  18:42:00     -353.566      -81.049      -12.021      180.127      150.284       89.750    32445.629    22585.334     8055.147        9.739        3.154      362.737       74.215        0.042      347.349       26.249      864.217
05/12/2013  18:43:00     -395.786     -116.461       -9.971      196.494      162.337       94.078    38610.015    26353.431     8850.757       12.205        3.691      412.565       95.584        0.054      347.247       26.075      864.225
05/12/2013  18:44:00     -327.398     -105.902        9.031      311.270      226.285      118.049    96889.133    51204.941    13935.599       14.023        8.101      344.100      140.783        0.167      347.226       26.038      864.166
05/12/2013  18:45:00     -561.217     -114.461      -12.568      250.951      179.216       98.973    62976.419    32118.201     9795.610       21.654        5.245      572.770      109.834        0.037      347.160       25.924      864.163
05/12/2013  18:46:00     -331.712     -170.178       -5.139      182.413      168.191       84.049    33274.657    28288.107     7064.215       10.381        3.431      372.818       83.835        0.051      347.205       26.003      864.182
05/12/2013  18:47:00     -479.049     -169.047      -14.314      223.559      194.325       83.560    49978.835    37762.267     6982.343       17.648        4.736      508.001       87.286        0.030      347.172       25.946      864.183
05/12/2013  18:48:00     -305.753     -109.353       -1.226      226.494      191.742       92.409    51299.381    36764.981     8539.491       10.101        4.830      324.720      105.173        0.105      347.193       25.981      864.166
05/12/2013  18:49:00     -357.422     -160.197      -11.283      174.177      166.799       89.169    30337.506    27821.836     7951.078       10.981        3.306      391.680       78.279        0.040      347.187       25.971      864.207
05/12/2013  18:50:00     -280.807      -22.951      -12.711      138.309       99.466       65.927    19129.251     9893.581     4346.331        5.645        1.668      281.744       58.945        0.044      347.248       26.077      864.211
05/12/2013  18:51:00     -319.083     -108.479        5.861      208.161      141.682       75.325    43330.801    20073.858     5673.903        9.134        3.454      337.018       87.590        0.068      347.215       26.022      864.234
05/12/2013  18:52:00     -466.892     -252.803      -11.159      268.454      166.486      105.488    72067.287    27717.571    11127.689       19.645        5.546      530.940      112.945        0.045      347.163       25.930      864.196
05/12/2013  18:53:00     -430.436     -212.701      -15.925      203.629      179.744      104.240    41464.760    32307.804    10866.023       15.769        4.232      480.122      101.391        0.045      347.176       25.952      864.215
05/12/2013  18:54:00     -243.960     -149.598       30.249      220.812      217.888      102.124    48758.148    47475.082    10429.369        9.472        5.333      286.174      120.401        0.177      347.197       25.989      864.201
05/12/2013  18:55:00     -582.548     -197.293      -40.238      254.867      161.124      109.637    64957.009    25960.846    12020.200       24.140        5.147      615.050      115.585        0.035      347.110       25.838      864.220
05/12/2013  18:56:00     -446.513      -98.727      -10.486      215.465      191.906       81.451    46425.055    36828.020     6634.188       14.954        4.494      457.297       75.256        0.027      347.135       25.881      864.213
05/12/2013  18:57:00     -189.097     -120.272       20.828      188.590      216.212       81.722    35566.238    46747.790     6678.564        6.981        4.450      224.105       86.750        0.150      347.176       25.953      864.206
05/12/2013  18:58:00     -482.974     -156.501      -40.073      205.196      234.371       86.961    42105.530    54929.555     7562.159       18.196        5.230      507.697       80.616        0.025      347.123       25.860      864.169
05/12/2013  18:59:00     -598.139     -148.384      -34.075      251.753      192.894      113.176    63379.711    37208.196    12808.853       24.715        5.670      616.269      125.011        0.041      347.046       25.726      864.154
05/12/2013  19:00:00     -407.056     -138.200      -10.211      215.774      159.214      103.828    46558.290    25349.118    10780.182       13.378        4.134      429.877      116.083        0.073      347.059       25.750      864.199
05/12/2013  19:01:00     -167.569     -104.389       17.431      153.598      143.286       80.863    23592.223    20530.832     6538.776        4.496        2.533      197.424       89.998        0.208      347.122       25.859      864.215
05/12/2013  19:02:00     -468.937     -124.477      -28.111      318.801      177.574      100.259   101634.381    31532.516    10051.852       18.968        7.161      485.177      127.310        0.069      347.025       25.692      864.210
05/12/2013  19:03:00     -387.708      -56.375      -12.469      297.993      161.639       95.848    88799.857    26127.236     9186.784       13.886        6.206      391.785      133.858        0.117      347.024       25.690      864.219
05/12/2013  19:04:00     -539.184      -67.689      -32.215      141.600      185.100       81.622    20050.527    34262.171     6662.215       17.865        3.049      543.416       69.142        0.016      346.987       25.626      864.225
05/12/2013  19:05:00     -273.190      -88.269       -0.120      276.138      174.847       93.414    76252.286    30571.360     8726.205        9.897        5.777      287.096      117.338        0.167      347.016       25.677      864.232
05/12/2013  19:06:00     -140.572     -101.692        9.272      146.953      131.856       87.587    21595.177    17386.088     7671.487        3.841        2.333      173.498       72.492        0.175      347.046       25.730      864.213
05/12/2013  19:07:00     -116.804      -28.840       20.788      131.806      104.720       65.758    17372.837    10966.259     4324.104        2.378        1.633      120.312       68.764        0.327      347.119       25.855      864.218
05/12/2013  19:08:00     -434.612     -141.417       -5.075      260.943      243.839      102.634    68091.426    59457.318    10533.791       17.347        6.904      457.040      124.714        0.074      346.967       25.592      864.211
05/12/2013  19:09:00     -337.915     -150.087      -10.470      304.396      148.222       96.381    92656.788    21969.776     9289.331       13.035        6.196      369.747      126.935        0.118      346.980       25.614      864.213
05/12/2013  19:10:00     -446.837      -88.813      -47.169      177.395      184.871       91.837    31468.934    34177.254     8434.055       14.192        3.704      455.577      101.315        0.049      346.967       25.591      864.204
05/12/2013  19:11:00     -385.684     -185.256       -2.029      236.547      183.801       99.128    55954.704    33782.975     9826.440       14.130        4.978      427.869      110.104        0.066      346.919       25.509      864.191
05/12/2013  19:12:00     -350.683      -50.366      -13.591      150.174      126.991       76.048    22552.082    16126.795     5783.334        8.507        2.223      354.281       78.378        0.049      346.952       25.566      864.183
05/12/2013  19:13:00     -255.369     -102.227       -9.493      123.578      139.646       88.697    15271.511    19501.135     7867.098        5.919        2.132      275.071       74.573        0.073      346.985       25.621      864.191
05/12/2013  19:14:00     -189.766      -98.822       -0.067      158.036      109.426       53.119    24975.296    11974.049     2821.588        4.277        1.989      213.956       67.588        0.100      347.003       25.654      864.221
05/12/2013  19:15:00     -359.750       71.478      -19.148      172.730      132.798       70.738    29835.589    17635.298     5003.863        9.368        2.624      366.782       75.745        0.043      346.928       25.525      864.233
05/12/2013  19:16:00     -568.636     -214.885      -19.488      288.421      178.265      101.760    83186.846    31778.533    10355.102       24.759        6.266      607.884      106.617        0.031      346.824       25.345      864.217
05/12/2013  19:17:00     -433.340     -133.482       -4.756      195.426      154.914       80.328    38191.218    23998.464     6452.638       13.712        3.432      453.432       87.312        0.037      346.832       25.359      864.230
05/12/2013  19:18:00     -446.761     -103.107      -19.001      129.269      116.732       65.613    16710.429    13626.327     4305.050       12.261        1.732      458.504       65.017        0.020      346.827       25.351      864.226
05/12/2013  19:19:00     -258.459      -78.267      -13.579      173.228      199.612       85.676    30008.028    39844.935     7340.295        7.514        3.860      270.049       79.208        0.086      346.846       25.383      864.202
05/12/2013  19:20:00     -266.043     -100.202      -20.149      198.133      149.111       71.198    39256.794    22234.239     5069.096        7.388        3.328      284.288       62.511        0.048      346.821       25.341      864.208
05/12/2013  19:21:00     -289.895      -61.733        8.282      124.096      134.638       69.280    15399.917    18127.358     4799.784        6.312        1.916      296.395       65.679        0.049      346.766       25.245      864.201
05/12/2013  19:22:00     -306.994     -103.649      -12.319      132.860      119.064       67.673    17651.810    14176.315     4579.589        7.077        1.820      324.019       63.814        0.039      346.766       25.246      864.223
05/12/2013  19:23:00     -447.706     -172.510      -21.108      179.652      209.846       90.014    32274.983    44035.214     8102.551       15.752        4.221      479.792       75.755        0.025      346.723       25.171      864.230
05/12/2013  19:24:00     -334.923     -180.625       -6.153      199.858      165.665       77.677    39943.416    27444.790     6033.753       10.912        3.671      380.524       95.634        0.063      346.701       25.135      864.228
05/12/2013  19:25:00     -295.315     -138.061      -11.293      168.066      124.885       76.953    28246.020    15596.167     5921.799        7.807        2.488      325.994       87.107        0.071      346.706       25.140      864.247
05/12/2013  19:26:00     -271.027     -216.444        3.545      192.473      171.832       97.301    37046.048    29526.377     9467.450        9.817        3.802      346.849      114.508        0.109      346.706       25.143      864.264
05/12/2013  19:27:00     -201.270     -147.782       -2.967      194.952      124.100       65.722    38006.303    15400.744     4319.408        6.003        2.886      249.698       65.077        0.068      346.682       25.102      864.270
05/12/2013  19:28:00     -315.032      -84.790      -13.810      159.470      157.933       74.118    25430.718    24942.678     5493.452        8.124        2.793      326.243       77.554        0.057      346.671       25.081      864.264
05/12/2013  19:29:00     -408.179      -41.997      -21.556      177.335      156.894       82.452    31447.580    24615.673     6798.268       11.584        3.143      410.334       78.395        0.037      346.640       25.029      864.282
05/12/2013  19:30:00     -270.153      -49.324       -5.565      206.911      103.463       70.266    42812.140    10704.629     4937.374        6.694        2.923      274.619       79.114        0.083      346.628       25.008      864.257
05/12/2013  19:31:00     -549.573     -117.174      -21.040      289.281      171.900       98.218    83683.743    29549.684     9646.716       21.952        6.144      561.925      119.719        0.045      346.553       24.880      864.217
05/12/2013  19:32:00     -339.681      -56.033        9.729      203.095      119.641       78.962    41247.732    14314.061     6235.017        9.020        3.090      344.272      100.697        0.086      346.557       24.888      864.243
05/12/2013  19:33:00     -444.501     -162.681        0.829      236.609      207.857      124.878    55983.781    43204.454    15594.591       16.940        5.739      473.335      125.398        0.070      346.526       24.833      864.230
05/12/2013  19:34:00     -451.508     -157.742       -2.949      284.534      212.599      131.470    80959.381    45198.160    17284.365       18.607        7.172      478.269      149.664        0.098      346.502       24.792      864.238
05/12/2013  19:35:00     -460.042     -158.838      -18.230      242.253      200.772      105.300    58686.303    40309.341    11088.128       17.362        5.504      486.691      122.156        0.063      346.485       24.763      864.262
05/12/2013  19:36:00     -488.987      -86.325       -8.311      211.382      202.958      113.176    44682.554    41191.950    12808.777       17.264        4.934      496.549      115.804        0.054      346.453       24.707      864.278
05/12/2013  19:37:00     -361.936       11.747       -7.694      184.645      163.988       95.066    34093.666    26892.002     9037.491       10.060        3.501      362.126       80.329        0.049      346.451       24.705      864.271
05/12/2013  19:38:00     -399.738      -41.225      -25.136      229.090      128.962       77.335    52482.096    16631.069     5980.768       11.860        3.755      401.858      100.349        0.062      346.455       24.712      864.302
05/12/2013  19:39:00     -237.802      -82.136        5.859      166.668      139.947       79.262    27778.199    19585.095     6282.509        5.848        2.682      251.587       77.977        0.096      346.443       24.691      864.320
05/12/2013  19:40:00     -366.166      -70.759        2.047      242.234      172.281       99.959    58677.500    29680.901     9991.848       11.870        4.918      372.940      110.938        0.088      346.422       24.654      864.337
05/12/2013  19:41:00     -279.359      -87.495       -8.620      211.505      158.337       98.827    44734.388    25070.453     9766.819        8.266        3.979      292.740      104.915        0.128      346.394       24.607      864.365
05/12/2013  19:42:00     -331.477      -46.081       -6.254      133.265      115.026       65.072    17759.534    13231.011     4234.302        7.363        1.761      334.665       67.078        0.040      346.387       24.593      864.355
05/12/2013  19:43:00     -225.660      -80.291      -10.230      148.562      152.377       79.484    22070.676    23218.777     6317.675        5.453        2.580      239.518       73.161        0.093      346.369       24.563      864.319
05/12/2013  19:44:00     -337.793      -10.034      -18.823      150.721      131.956       69.108    22716.927    17412.397     4775.856        7.972        2.245      337.942       53.770        0.025      346.306       24.454      864.316
05/12/2013  19:45:00     -419.018     -132.540      -22.475      147.787      186.291       86.741    21840.934    34704.216     7523.950       12.885        3.203      439.480       86.538        0.039      346.309       24.460      864.329
05/12/2013  19:46:00     -365.082     -171.628      -17.087      206.790      226.685       81.249    42761.985    51386.016     6601.448       13.187        5.037      403.412      102.180        0.064      346.287       24.424      864.291
05/12/2013  19:47:00     -336.934     -172.386      -24.531      265.432      159.286      104.604    70454.009    25372.087    10942.087       12.529        5.338      378.473      128.894        0.116      346.281       24.412      864.270
05/12/2013  19:48:00     -406.694      -56.385      -12.325      202.900      168.262       88.962    41168.275    28312.104     7914.160       12.305        3.870      410.584       99.107        0.058      346.250       24.358      864.235
05/12/2013  19:49:00     -278.282      -84.393       -6.508      175.539      148.763       74.000    30813.809    22130.368     5476.059        7.150        2.921      290.798       71.139        0.060      346.246       24.351      864.248
05/12/2013  19:50:00     -297.973     -180.380       -2.928      204.583      186.933       95.104    41854.162    34943.856     9044.732       10.357        4.292      348.317      109.656        0.099      346.218       24.302      864.280
05/12/2013  19:51:00     -263.564     -102.088       -5.000      198.908      143.355       93.053    39564.495    20550.748     8658.787        7.433        3.439      282.644       93.253        0.109      346.230       24.324      864.290
05/12/2013  19:52:00     -501.543      -82.625      -25.257      201.373      153.630       84.469    40551.213    23602.238     7135.056       16.514        3.564      508.303       96.598        0.036      346.204       24.277      864.261
05/12/2013  19:53:00     -567.116     -120.808      -36.295      207.240      173.292       99.663    42948.520    30030.049     9932.688       21.021        4.146      579.840      111.699        0.037      346.180       24.237      864.241
05/12/2013  19:54:00     -583.499     -190.784      -14.196      238.470      183.758       96.817    56868.137    33766.951     9373.590       23.852        5.000      613.897       97.838        0.025      346.166       24.213      864.250
05/12/2013  19:55:00     -540.725      -32.390      -29.132      247.100      137.712       87.988    61058.327    18964.652     7741.961       19.101        4.388      541.694      112.544        0.043      346.151       24.188      864.219
05/12/2013  19:56:00     -515.701      -86.187      -19.224      338.455      148.538       99.129   114551.600    22063.503     9826.525       21.007        7.322      522.854      137.748        0.069      346.140       24.171      864.193
05/12/2013  19:57:00     -455.502      -97.369       -5.180      198.093      143.657       89.534    39240.719    20637.411     8016.336       14.243        3.395      465.793       91.053        0.038      346.106       24.111      864.208
05/12/2013  19:58:00     -256.232     -112.240        7.386      206.524      159.518       76.653    42652.263    25446.084     5875.638        7.613        3.699      279.737       90.953        0.106      346.077       24.061      864.223
05/12/2013  19:59:00     -471.181      -90.457      -21.057      237.556      169.569       92.221    56432.827    28753.652     8504.716       16.215        4.685      479.785       88.475        0.034      346.089       24.081      864.223
05/12/2013  20:00:00     -563.157     -208.342       -9.324      282.333      186.104      102.912    79711.890    34634.606    10590.911       24.277        6.247      600.460      111.436        0.034      346.067       24.044      864.193
05/12/2013  20:01:00     -436.340     -169.429      -34.991      164.585      219.790       84.973    27088.301    48307.619     7220.474       15.146        4.131      468.080       85.082        0.033      346.074       24.055      864.211
05/12/2013  20:02:00     -512.992     -131.408      -31.866      197.452      179.730      101.341    38987.259    32303.005    10269.996       18.149        4.078      529.556       79.432        0.022      346.036       23.990      864.261
05/12/2013  20:03:00     -347.479     -104.502       -5.316      213.382      147.488      110.924    45531.903    21752.797    12304.176       10.563        3.979      362.853      127.894        0.124      346.042       24.002      864.276
05/12/2013  20:04:00     -150.614      -60.189       -6.762      101.226      116.587       63.002    10246.687    13592.535     3969.282        2.708        1.390      162.196       57.805        0.127      346.030       23.981      864.248
05/12/2013  20:05:00     -448.999      -71.857      -27.980      263.710      173.858       93.386    69542.869    30226.521     8721.038       15.800        5.425      454.712      114.155        0.063      345.972       23.882      864.197
05/12/2013  20:06:00     -495.577     -132.373      -10.135      300.647      211.163      111.830    90388.591    44589.720    12505.913       20.533        7.374      512.951      139.809        0.074      345.980       23.896      864.212
05/12/2013  20:07:00     -446.102      -95.696      -12.710      210.515      146.847       94.209    44316.608    21564.157     8875.246       14.153        3.738      456.251       99.539        0.048      345.977       23.890      864.217
05/12/2013  20:08:00     -303.891      -26.401        2.367      196.079      129.860       89.213    38447.139    16863.549     7959.021        7.815        3.163      305.035       91.402        0.090      345.939       23.824      864.244
05/12/2013  20:09:00     -395.038       19.340      -18.035      224.937      122.602       83.641    50596.457    15031.273     6995.830       11.468        3.631      395.512       81.454        0.042      345.929       23.807      864.215
05/12/2013  20:10:00     -467.363      -64.688      -21.078      214.457      162.136       86.771    45991.739    26288.181     7529.256       15.142        3.990      471.818       95.983        0.041      345.947       23.840      864.228
05/12/2013  20:11:00     -394.743      -73.103      -21.969      228.959      123.906       77.706    52422.028    15352.654     6038.168       11.772        3.691      401.455      102.299        0.065      345.933       23.815      864.266
05/12/2013  20:12:00     -421.143      -65.594      -24.788      172.868      140.391       83.724    29883.387    19709.748     7009.667       11.943        2.830      426.221       83.395        0.038      345.936       23.819      864.267
05/12/2013  20:13:00     -326.482      -34.986      -12.044      228.778      132.226       93.146    52339.558    17483.658     8676.225        9.322        3.925      328.351      115.280        0.123      345.918       23.787      864.250
05/12/2013  20:14:00     -314.843      -54.105       -3.938      219.440      148.864       96.690    48153.912    22160.459     9348.880        9.085        3.983      319.458      113.351        0.126      345.887       23.736      864.251
05/12/2013  20:15:00     -573.819      -47.162      -32.768      243.731      179.082      101.345    59404.732    32070.248    10270.808       21.714        5.087      575.754      115.912        0.041      345.884       23.731      864.281
05/12/2013  20:16:00     -574.699      -37.680      -54.331      298.173      153.613       93.366    88907.166    23596.979     8717.222       22.792        6.061      575.932      117.824        0.042      345.893       23.747      864.312
05/12/2013  20:17:00     -418.009     -182.026      -12.344      280.677      208.563      118.060    78779.585    43498.700    13938.103       17.209        6.811      455.922      140.201        0.095      345.900       23.757      864.299
05/12/2013  20:18:00     -344.437     -130.772       -0.762      230.183      124.118       83.712    52984.170    15405.334     7007.762       10.556        3.770      368.427      103.319        0.079      345.881       23.726      864.341
05/12/2013  20:19:00     -413.573      -26.874      -16.063      258.363      170.550       92.686    66751.320    29087.161     8590.708       13.821        5.221      414.446      113.062        0.074      345.835       23.648      864.340
05/12/2013  20:20:00     -382.063      -69.222      -26.420      139.092      104.975       70.521    19346.608    11019.647     4973.181        9.339        1.767      388.283       68.340        0.031      345.812       23.607      864.341
05/12/2013  20:21:00     -391.319      -26.912      -13.992      183.701      130.689       83.875    33746.039    17079.629     7035.024       10.595        2.893      392.243       92.424        0.056      345.804       23.593      864.322
05/12/2013  20:22:00     -290.744      -92.415      -15.221      147.429      152.480       69.375    21735.301    23250.108     4812.875        7.154        2.490      305.078       65.864        0.047      345.791       23.571      864.343
05/12/2013  20:23:00     -268.991      -69.344       14.858      254.089      170.757       93.602    64561.075    29157.969     8761.369        8.992        5.124      277.785      122.545        0.195      345.765       23.528      864.354
05/12/2013  20:24:00     -330.984     -104.949       -2.271      119.451      139.839       69.873    14268.627    19554.824     4882.260        7.963        1.935      347.225       61.247        0.031      345.757       23.512      864.391
05/12/2013  20:25:00     -488.630      -14.473      -31.692      233.064      189.947       86.183    54318.955    36079.920     7427.479       16.888        4.891      488.844       98.903        0.041      345.804       23.593      864.367
05/12/2013  20:26:00     -450.722     -171.494      -17.263      291.498      165.228       89.671    84971.007    27300.220     8040.932       17.656        6.016      482.245      121.741        0.064      345.787       23.564      864.356
05/12/2013  20:27:00     -517.995     -157.515       -5.930      218.937      160.893       89.296    47933.233    25886.458     7973.744       18.747        4.090      541.415       91.442        0.029      345.748       23.497      864.381
05/12/2013  20:28:00     -288.924     -141.332       -2.238      187.356      154.369       91.561    35102.330    23829.680     8383.451        8.537        3.366      321.640       97.000        0.091      345.739       23.482      864.452
05/12/2013  20:29:00     -223.619     -103.307      -16.680      128.943      102.860       60.602    16626.393    10580.203     3672.579        4.591        1.544      246.329       71.275        0.084      345.767       23.529      864.492
05/12/2013  20:30:00     -343.287        1.838      -47.446      212.735      110.768       62.867    45255.980    12269.624     3952.284        9.078        3.074      343.292       78.214        0.052      345.779       23.551      864.454
05/12/2013  20:31:00     -274.479      -89.977      -15.990      150.233      127.434       61.026    22570.042    16239.418     3724.172        6.310        2.127      288.851       65.069        0.051      345.747       23.497      864.417
05/12/2013  20:32:00     -378.386     -133.123      -12.551      168.388      150.218       64.100    28354.638    22565.384     4108.869       10.803        2.751      401.121       68.903        0.030      345.746       23.494      864.467
05/12/2013  20:33:00     -159.532      -63.701       -1.053      148.095      123.316       63.900    21932.089    15206.784     4083.174        3.536        2.061      171.780       63.675        0.137      345.699       23.413      864.536
05/12/2013  20:34:00     -190.924      -73.792      -15.159       95.604      110.136       48.401     9140.218    12130.014     2342.679        3.287        1.181      204.688       35.740        0.030      345.694       23.404      864.571
05/12/2013  20:35:00       24.850      -98.656        6.871       87.282      126.650       50.283     7618.179    16040.298     2528.404        1.829        1.309      101.737       39.363        0.150      345.715       23.443      864.538
05/12/2013  20:36:00       -2.377       29.252       -4.828       49.020       49.753       38.592     2402.974     2475.389     1489.358        0.363        0.318       29.349       40.237        1.880      345.706       23.429      864.516
05/12/2013  20:37:00     -181.081      -16.580       -8.510      123.329       69.424       42.550    15209.949     4819.702     1810.543        2.749        1.092      181.838       49.337        0.074      345.672       23.368      864.586
05/12/2013  20:38:00     -107.247      -37.830        6.396      116.650       93.314       48.829    13607.197     8707.463     2384.305        1.883        1.235      113.723       43.424        0.146      345.651       23.332      864.674
05/12/2013  20:39:00     -125.342     -172.408        7.020      108.298       88.784       48.895    11728.549     7882.519     2390.766        3.374        1.100      213.155       46.170        0.047      345.649       23.327      864.722
05/12/2013  20:40:00      -66.305        6.120       13.365      123.249      108.712       69.537    15190.296    11818.302     4835.349        1.822        1.592       66.587       67.639        1.032      345.563       23.181      864.682
05/12/2013  20:41:00      -63.077      -57.586      -15.806       60.486       65.848       42.095     3658.590     4335.940     1771.966        0.865        0.488       85.410       19.328        0.051      345.610       23.263      864.690
05/12/2013  20:42:00     -238.560     -213.608        5.364      180.324      214.193       71.832    32516.860    45878.751     5159.875        9.305        4.178      320.218       86.290        0.073      345.626       23.286      864.648
05/12/2013  20:43:00       -2.382      -14.113       30.877       69.505       54.833       43.088     4830.986     3006.710     1856.564        0.542        0.485       14.313       37.338        6.805      345.548       23.157      864.721
05/12/2013  20:44:00       32.555      -61.516       67.118       80.294       82.194       56.351     6447.119     6755.841     3175.410        1.286        0.819       69.599       48.424        0.484      345.557       23.173      864.707
05/12/2013  20:45:00      -68.590      -14.796      -11.272       66.031       66.005       47.194     4360.068     4356.648     2227.255        0.800        0.547       70.168       31.724        0.204      345.615       23.271      864.718
05/12/2013  20:46:00      -26.663      -95.391       -1.158       75.254       68.225       40.693     5663.212     4654.666     1655.907        1.089        0.599       99.048       37.960        0.147      345.606       23.257      864.793
05/12/2013  20:47:00     -222.790     -244.761        3.203      139.250      120.079       77.694    19390.635    14418.959     6036.290        7.469        1.992      330.973       70.767        0.046      345.623       23.282      864.793
05/12/2013  20:48:00     -140.549      -61.495       -8.777       88.238       92.024       48.613     7785.954     8468.342     2363.231        2.111        0.931      153.413       24.327        0.025      345.585       23.219      864.760
05/12/2013  20:49:00        2.793     -108.746       -8.396       77.328       61.253       43.852     5979.651     3751.986     1922.978        1.178        0.583      108.782       32.067        0.087      345.614       23.270      864.851
05/12/2013  20:50:00      -76.317     -196.485        2.802       80.385       57.849       46.622     6461.771     3346.464     2173.604        2.821        0.599      210.786       41.072        0.038      345.614       23.267      864.887
05/12/2013  20:51:00      -34.341     -117.448      -14.594       90.954       53.952       45.294     8272.581     2910.783     2051.587        1.421        0.662      122.365       34.455        0.079      345.532       23.128      864.940
05/12/2013  20:52:00       43.756      -25.277       37.401      101.101      117.729       81.896    10221.348    13860.183     6707.015        1.737        1.539       50.532       77.393        2.346      345.488       23.053      864.859
05/12/2013  20:53:00       19.815       20.682       63.180       77.292       84.436       64.397     5974.091     7129.464     4147.012        1.103        0.863       28.642       61.713        4.642      345.498       23.071      864.805
05/12/2013  20:54:00      -77.028      -59.173       12.723       65.940       62.416       32.385     4348.137     3895.789     1048.769        0.944        0.465       97.133       33.909        0.122      345.524       23.114      864.882
05/12/2013  20:55:00      -24.036      -66.266        8.393       67.717       50.456       31.145     4585.556     2545.791      970.038        0.657        0.405       70.491       22.548        0.102      345.500       23.074      864.978
05/12/2013  20:56:00     -126.641      -67.448      -10.613      122.832       85.167       50.508    15087.792     7253.408     2551.035        2.279        1.245      143.483       45.718        0.102      345.555       23.167      864.969
05/12/2013  20:57:00        3.628      -44.543       13.435      103.785       71.309       59.054    10771.381     5084.980     3487.427        1.076        0.967       44.691       42.772        0.916      345.507       23.086      864.947
05/12/2013  20:58:00       38.809       20.202       65.519       62.169       60.332       28.231     3865.013     3639.983      796.972        0.725        0.415       43.752       25.888        0.350      345.494       23.066      864.867
05/12/2013  20:59:00      -81.997        3.233       22.103      105.776       59.272       65.670    11188.619     3513.171     4312.586        1.312        0.951       82.060       69.845        0.724      345.515       23.101      864.887
05/12/2013  21:00:00      -57.769      -46.182       -6.850       58.140       49.123       31.901     3380.299     2413.030     1017.644        0.616        0.341       73.959       23.489        0.101      345.539       23.142      864.994
05/12/2013  21:01:00       -2.813      -25.617       -4.175       41.669       40.506       29.749     1736.270     1640.736      885.004        0.247        0.213       25.771       26.031        1.020      345.470       23.023      865.011
05/12/2013  21:02:00     -141.161     -121.321        2.217      111.529       92.764       44.347    12438.716     8605.233     1966.619        2.883        1.151      186.132       59.422        0.102      345.495       23.064      865.008
05/12/2013  21:03:00     -140.208      -49.945        2.587       97.669       55.352       36.247     9539.286     3063.883     1313.855        1.804        0.696      148.838       42.093        0.080      345.446       22.979      864.987
05/12/2013  21:04:00     -104.119     -128.738        2.220      101.489       83.057       42.339    10299.920     6898.514     1792.579        2.320        0.950      165.573       42.721        0.067      345.478       23.033      865.009
05/12/2013  21:05:00     -142.822      -72.252       -9.844       99.785       75.940       45.095     9957.053     5766.959     2033.536        2.173        0.888      160.058       48.152        0.091      345.466       23.014      864.964
05/12/2013  21:06:00      -16.033      -25.739       20.031       58.706       42.730       32.828     3446.388     1825.863     1077.690        0.383        0.317       30.325       35.173        1.345      345.383       22.876      864.970
05/12/2013  21:07:00     -116.228     -108.080       -3.722       90.936      103.344       40.702     8269.314    10679.945     1656.686        2.290        1.030      158.714       34.836        0.048      345.454       22.993      865.033
05/12/2013  21:08:00      -62.931      -52.927       15.247      105.039       71.289       56.192    11033.087     5082.091     3157.513        1.313        0.964       82.229       58.303        0.503      345.394       22.891      865.060
05/12/2013  21:09:00     -276.497      -59.518      -23.653      128.238       80.902       54.988    16444.964     6545.096     3023.668        5.328        1.301      282.830       61.917        0.048      345.461       23.004      865.054
05/12/2013  21:10:00     -147.702      -13.818       -0.150       94.405       84.388       38.882     8912.235     7121.268     1511.801        1.977        0.877      148.347       36.227        0.060      345.417       22.930      865.061
05/12/2013  21:11:00     -133.102       14.891       -1.486      143.138       68.779       51.765    20488.356     4730.510     2679.660        2.291        1.395      133.932       58.811        0.193      345.448       22.985      865.044
05/12/2013  21:12:00     -275.112      -14.621      -12.333      114.585      107.979       59.471    13129.834    11659.444     3536.800        5.218        1.416      275.500       61.815        0.050      345.397       22.895      865.040
05/12/2013  21:13:00     -214.618      -27.760       -4.301      115.280       87.706       56.039    13289.538     7692.428     3140.328        3.548        1.206      216.406       60.491        0.078      345.348       22.810      865.066
05/12/2013  21:14:00     -216.766      -40.329        2.680      148.578       98.805       57.751    22075.561     9762.480     3335.198        4.189        1.759      220.486       71.854        0.106      345.343       22.804      865.074
05/12/2013  21:15:00     -131.414      -27.537       21.331      143.543       87.546       58.836    20604.735     7664.264     3461.648        2.510        1.587      134.268       70.766        0.278      345.358       22.827      865.078
05/12/2013  21:16:00      -47.772      -24.926       13.320       66.866       55.489       45.831     4471.010     3078.984     2100.468        0.636        0.483       53.884       29.351        0.297      345.351       22.820      865.070
05/12/2013  21:17:00     -171.607     -141.579        0.372      142.617      117.544       58.547    20339.473    13816.566     3427.695        4.353        1.879      222.471       68.310        0.094      345.344       22.805      865.101
05/12/2013  21:18:00     -202.311     -116.125       -7.082      115.465      113.837       55.412    13332.178    12958.822     3070.491        4.191        1.468      233.270       57.270        0.060      345.353       22.820      865.131
05/12/2013  21:19:00     -189.247     -110.849        9.356      136.433       96.265       67.709    18613.988     9266.916     4584.564        4.032        1.623      219.322       65.748        0.090      345.338       22.794      865.134
05/12/2013  21:20:00     -298.803     -189.825       -2.836      177.808      134.807       74.092    31615.688    18172.871     5489.654        9.029        2.764      354.002       74.720        0.045      345.393       22.886      865.121
05/12/2013  21:21:00     -158.831      -25.279       -3.946       57.047       61.265       39.222     3254.309     3753.399     1538.343        1.721        0.427      160.830       32.592        0.041      345.374       22.856      865.106
05/12/2013  21:22:00     -205.031      -35.260        1.623      110.157       90.712       46.645    12134.641     8228.699     2175.721        3.291        1.127      208.041       52.617        0.064      345.294       22.718      865.126
05/12/2013  21:23:00     -232.152     -163.477        1.462      169.760      178.943       88.197    28818.501    32020.588     7778.764        7.461        3.431      283.936       93.813        0.109      345.335       22.788      865.120
05/12/2013  21:24:00      -64.101      -94.638        7.022      111.011      107.150       63.908    12323.521    11481.228     4084.214        2.050        1.394      114.303       66.275        0.336      345.300       22.731      865.159
05/12/2013  21:25:00     -207.234       22.037       -4.648      208.036       84.008       51.862    43279.019     7057.282     2689.675        4.823        2.651      208.402       86.009        0.170      345.305       22.739      865.160
05/12/2013  21:26:00     -313.744      -83.804       -0.488      172.819      146.442       68.139    29866.540    21445.233     4642.870        8.070        2.798      324.744       75.831        0.055      345.333       22.784      865.173
05/12/2013  21:27:00     -281.963      -93.436      -13.992       68.960       75.532       40.187     4755.416     5705.150     1615.034        5.025        0.604      297.042       31.506        0.011      345.317       22.755      865.199
05/12/2013  21:28:00     -168.561      -47.184       -9.714      154.979       97.936       62.294    24018.350     9591.502     3880.528        3.411        1.875      175.040       73.731        0.177      345.318       22.760      865.177
05/12/2013  21:29:00     -163.693      -91.869       -3.035      109.022       87.876       47.090    11885.787     7722.186     2217.458        2.853        1.091      187.711       51.757        0.076      345.273       22.682      865.181
05/12/2013  21:30:00     -109.582       45.564        4.240      130.223       73.596       61.711    16958.119     5416.423     3808.295        2.014        1.309      118.677       72.651        0.375      345.225       22.601      865.207
05/12/2013  21:31:00     -300.227       -2.586       -0.070      168.974      123.829       76.215    28552.093    15333.568     5808.761        6.991        2.485      300.238       75.605        0.063      345.262       22.663      865.210
05/12/2013  21:32:00     -361.198      -73.944      -22.034      122.272      129.101       71.770    14950.324    16667.149     5150.972        8.659        1.838      368.689       65.900        0.032      345.297       22.721      865.213
05/12/2013  21:33:00     -243.372      -67.225        6.719      120.340      113.875       65.467    14481.648    12967.565     4285.901        4.776        1.587      252.486       59.982        0.056      345.248       22.639      865.221
05/12/2013  21:34:00     -232.770      -69.276      -11.643      109.638       86.792       50.874    12020.520     7532.775     2588.174        4.063        1.107      242.861       54.118        0.050      345.247       22.637      865.233
05/12/2013  21:35:00     -344.497      -53.589       -9.344      140.336      103.594       65.599    19694.270    10731.792     4303.188        7.818        1.736      348.641       71.168        0.042      345.249       22.639      865.249
05/12/2013  21:36:00     -388.646      -20.848      -14.605      176.774      122.392       67.760    31248.945    14979.900     4591.441       10.125        2.541      389.205       75.111        0.037      345.254       22.649      865.256
05/12/2013  21:37:00     -286.923     -142.947        0.444      161.834      150.902       84.699    26190.095    22771.405     7173.987        7.944        2.807      320.560       82.403        0.066      345.288       22.710      865.248
05/12/2013  21:38:00     -263.619      -60.214       -3.248      180.770      116.763       77.768    32677.776    13633.660     6047.796        6.274        2.618      270.408       89.638        0.110      345.247       22.637      865.244
05/12/2013  21:39:00     -290.749      -42.647       -3.142      182.738       99.153       64.775    33393.122     9831.263     4195.823        6.688        2.371      293.860       79.316        0.073      345.219       22.590      865.249
05/12/2013  21:40:00     -355.836     -118.465      -14.671      106.794       95.982       60.375    11405.059     9212.590     3645.133        8.256        1.213      375.037       49.257        0.017      345.226       22.600      865.236
05/12/2013  21:41:00     -271.375     -124.486       -2.209      168.684      113.048       70.480    28454.416    12779.848     4967.459        6.767        2.310      298.566       71.665        0.058      345.215       22.584      865.253
05/12/2013  21:42:00     -336.868      -43.630      -13.460      133.563      116.364       63.613    17839.080    13540.579     4046.563        7.549        1.771      339.682       65.593        0.037      345.176       22.515      865.254
05/12/2013  21:43:00     -454.598      -20.388      -12.526      189.353      152.081       83.928    35854.599    23128.748     7043.975       13.662        3.301      455.055       89.147        0.038      345.237       22.621      865.264
05/12/2013  21:44:00     -306.843      -94.613      -15.137      147.662      121.975       74.848    21803.937    14877.866     5602.231        7.280        2.114      321.098       66.654        0.043      345.216       22.584      865.226
05/12/2013  21:45:00     -547.163      -68.936      -30.329      204.742      156.097       89.150    41919.393    24366.122     7947.777       18.963        3.712      551.489       91.176        0.027      345.234       22.615      865.228
05/12/2013  21:46:00     -463.948      -93.124      -14.803      160.728      148.948       87.483    25833.555    22185.595     7653.263       13.990        2.784      473.202       90.287        0.036      345.253       22.647      865.277
05/12/2013  21:47:00     -206.246       -5.830        0.085      142.785       83.895       50.059    20387.564     7038.447     2505.953        3.625        1.497      206.328       44.924        0.047      345.199       22.556      865.286
05/12/2013  21:48:00     -264.589      -90.442       -6.623      132.739      132.352       59.950    17619.749    17517.009     3594.012        5.847        1.937      279.619       54.735        0.038      345.176       22.517      865.268
05/12/2013  21:49:00     -487.993      -57.835      -33.509      200.047      117.257       73.772    40018.788    13749.267     5442.361       15.090        2.961      491.408       88.398        0.032      345.205       22.567      865.269
05/12/2013  21:50:00     -293.387      -67.434       -6.152      155.095      108.277       68.532    24054.340    11723.886     4696.600        6.556        2.024      301.037       70.626        0.055      345.176       22.516      865.259
05/12/2013  21:51:00     -331.847        8.837      -20.374      139.471      109.998       65.193    19452.126    12099.466     4250.106        7.320        1.790      331.964       64.040        0.037      345.153       22.477      865.263
05/12/2013  21:52:00     -394.260      -69.824      -16.256      187.665      122.986       75.149    35218.174    15125.516     5647.447       10.828        2.800      400.395       86.220        0.046      345.172       22.510      865.257
05/12/2013  21:53:00     -295.806      -58.338       -5.571      124.084       87.823       55.942    15396.868     7712.862     3129.520        5.858        1.312      301.504       59.358        0.039      345.153       22.476      865.263
05/12/2013  21:54:00     -203.599      -40.049       -5.628      130.929       81.496       44.960    17142.348     6641.657     2021.378        3.444        1.290      207.500       51.224        0.061      345.101       22.387      865.249
05/12/2013  21:55:00     -331.315     -152.960      -12.623      179.363      136.754       73.384    32171.061    18701.676     5385.138        9.478        2.813      364.920       77.214        0.045      345.155       22.480      865.280
05/12/2013  21:56:00     -280.837      -56.423       -6.945      131.377      103.566       54.660    17259.918    10725.895     2987.704        5.653        1.549      286.449       54.032        0.036      345.145       22.462      865.288
05/12/2013  21:57:00     -329.967        1.927      -12.327      160.329      113.327       59.397    25705.272    12843.073     3527.981        7.555        2.104      329.973       75.566        0.052      345.171       22.506      865.258
05/12/2013  21:58:00     -369.564      -61.476      -24.871      159.084      145.207       72.923    25307.577    21084.976     5317.791        9.633        2.586      374.642       63.133        0.028      345.115       22.412      865.227
05/12/2013  21:59:00     -479.323     -145.279      -14.522      219.661      147.093       81.164    48250.800    21636.308     6587.586       16.376        3.824      500.856       96.005        0.037      345.148       22.468      865.244
05/12/2013  22:00:00     -330.614      -51.196       -2.340      279.546      111.728       87.491    78146.128    12483.071     7654.633       10.509        4.914      334.555      118.725        0.126      345.217       22.585      865.284
05/12/2013  22:01:00     -224.007      -63.662       -1.373      119.548       94.720       50.779    14291.618     8971.931     2578.524        4.003        1.292      232.877       49.347        0.045      345.133       22.444      865.302
05/12/2013  22:02:00     -334.294      -20.685       -1.441      169.798       89.750       65.912    28831.217     8055.000     4344.361        7.670        2.062      334.933       78.625        0.055      345.156       22.483      865.304
05/12/2013  22:03:00     -498.006     -154.346      -31.581      182.460      114.853       75.008    33291.645    13191.312     5626.244       16.246        2.605      521.376       77.386        0.022      345.157       22.483      865.290
05/12/2013  22:04:00     -398.225     -154.666       -7.844      191.799      154.013       70.749    36786.755    23719.986     5005.439       12.403        3.276      427.206       88.273        0.043      345.131       22.438      865.319
05/12/2013  22:05:00     -223.792      -25.943        2.706      191.765      122.958       59.985    36773.703    15118.691     3598.216        5.312        2.775      225.291       69.413        0.095      345.141       22.456      865.314
05/12/2013  22:06:00     -339.056      -17.851      -22.605      154.759      126.191       59.532    23950.348    15924.123     3544.114        7.960        2.171      339.526       64.865        0.036      345.188       22.537      865.282
05/12/2013  22:07:00     -304.618      -21.816       -7.628      138.118      120.293       55.662    19076.489    14470.483     3098.261        6.498        1.832      305.398       53.288        0.030      345.097       22.382      865.269
05/12/2013  22:08:00     -441.902     -112.844      -10.482      202.628      156.015       90.032    41058.094    24340.783     8105.746       14.080        3.675      456.082      102.849        0.051      345.150       22.470      865.267
05/12/2013  22:09:00     -411.320     -199.764      -10.650      265.818      205.800      115.926    70659.400    42353.558    13438.734       16.781        6.323      457.264      138.291        0.091      345.221       22.592      865.279
05/12/2013  22:10:00     -443.697        3.694      -26.809      151.747      123.075       67.081    23027.042    15147.527     4499.829       12.013        2.134      443.712       66.618        0.023      345.263       22.665      865.355
05/12/2013  22:11:00     -306.364      -19.753      -26.220       99.728      112.088       53.320     9945.668    12563.700     2843.059        6.014        1.268      307.000       44.272        0.021      345.281       22.694      865.270
05/12/2013  22:12:00     -273.799      -36.519       -5.949      194.500      118.938       63.332    37830.073    14146.160     4010.962        6.615        2.799      276.223       85.080        0.095      345.173       22.511      865.241
05/12/2013  22:13:00     -382.687      -45.885      -24.487      203.876      145.044       84.716    41565.372    21037.850     7176.737       10.946        3.489      385.428       95.982        0.062      345.155       22.480      865.252
05/12/2013  22:14:00     -432.811      -63.981      -17.283      173.521      144.245       71.741    30109.643    20806.541     5146.719       12.388        2.803      437.515       81.020        0.034      345.192       22.543      865.266
05/12/2013  22:15:00     -340.243      -74.921      -16.498      157.937      123.035       73.812    24944.085    15137.565     5448.142        8.358        2.276      348.394       84.111        0.058      345.170       22.505      865.279
05/12/2013  22:16:00     -527.096      -91.990      -37.720      170.763      190.808       58.391    29159.976    36407.630     3409.472       17.833        3.449      535.063       47.112        0.008      345.256       22.651      865.263
05/12/2013  22:17:00     -192.386      -46.866       -2.041      129.653      118.985       62.462    16809.957    14157.391     3901.509        3.704        1.743      198.012       64.298        0.105      345.139       22.453      865.266
05/12/2013  22:18:00     -420.902      -81.506      -22.052      221.383      148.331       66.854    49010.513    22001.966     4469.404       12.987        3.774      428.721       70.339        0.027      345.147       22.465      865.263
05/12/2013  22:19:00     -510.271      -75.104       -0.857      205.638      165.507       83.021    42286.781    27392.614     6892.439       17.128        3.829      515.769       85.795        0.028      345.199       22.555      865.266
05/12/2013  22:20:00     -360.657      -56.318      -17.565      195.073      140.602       71.918    38053.368    19768.892     5172.145        9.826        3.150      365.028       78.181        0.046      345.183       22.529      865.271
05/12/2013  22:21:00     -192.433     -102.444        7.461      155.099      131.804       66.033    24055.702    17372.293     4360.301        4.668        2.289      218.003       81.312        0.139      345.110       22.406      865.243
05/12/2013  22:22:00     -375.618     -117.907        3.142      166.360      127.519       78.430    27675.769    16261.091     6151.298       10.254        2.504      393.688       81.453        0.043      345.098       22.382      865.249
05/12/2013  22:23:00     -394.355     -139.401      -25.560      141.339      121.042       71.535    19976.642    14651.140     5117.261       10.767        1.987      418.268       56.626        0.018      345.147       22.465      865.276
05/12/2013  22:24:00     -363.810       13.445      -19.758      175.628      114.487       73.516    30845.307    13107.296     5404.541        9.113        2.468      364.059       93.543        0.066      345.140       22.454      865.307
05/12/2013  22:25:00     -220.572      -42.661      -18.264      158.078      106.596       57.728    24988.763    11362.660     3332.494        4.524        1.984      224.660       76.740        0.117      345.157       22.485      865.298
05/12/2013  22:26:00     -150.066      -27.165       -5.840      118.844       78.836       42.877    14123.923     6215.149     1838.398        2.273        1.109      152.505       50.810        0.111      345.089       22.369      865.279
05/12/2013  22:27:00     -307.294      -83.609      -15.243      162.179      129.129       62.371    26302.008    16674.219     3890.165        7.425        2.343      318.465       75.423        0.056      345.099       22.386      865.269
05/12/2013  22:28:00     -141.159      -92.281        0.314      129.855      110.458       53.739    16862.432    12201.074     2887.874        3.019        1.598      168.647       50.569        0.090      345.062       22.323      865.258
05/12/2013  22:29:00     -294.164     -138.206      -16.923      166.839       73.493       56.763    27835.229     5401.291     3222.007        7.118        1.823      325.013       70.579        0.047      345.046       22.295      865.276
05/12/2013  22:30:00     -236.833      -47.046      -10.343      100.627      115.000       69.669    10125.708    13225.021     4853.798        4.330        1.410      241.460       46.812        0.038      345.048       22.298      865.275
05/12/2013  22:31:00     -136.511      -28.796       13.891      112.972       85.143       66.291    12762.637     7249.329     4394.475        2.203        1.220      139.515       71.845        0.265      345.012       22.237      865.256
05/12/2013  22:32:00     -381.684      -75.895      -24.074      182.481      113.213       63.850    33299.274    12817.078     4076.822       10.110        2.510      389.157       72.702        0.035      345.058       22.315      865.245
05/12/2013  22:33:00     -266.732      -79.166        2.786      144.359      147.560       65.894    20839.514    21774.018     4341.962        6.218        2.348      278.232       66.803        0.058      345.029       22.265      865.237
05/12/2013  22:34:00     -312.669      -64.820      -16.541      176.449      165.439       76.187    31134.382    27370.190     5804.471        8.326        3.215      319.317       89.984        0.079      345.076       22.345      865.251
05/12/2013  22:35:00     -238.189     -186.641        1.373      123.264      126.484       62.534    15194.113    15998.140     3910.483        6.333        1.755      302.604       58.572        0.037      345.140       22.454      865.250
05/12/2013  22:36:00     -203.917      -30.390        6.344      107.697      107.171       53.796    11598.593    11485.565     2894.027        3.426        1.299      206.169       55.847        0.073      345.080       22.352      865.258
05/12/2013  22:37:00     -317.892      -84.289       -3.940      155.261      112.856       67.557    24105.862    12736.490     4563.982        7.478        2.070      328.876       69.413        0.045      345.082       22.356      865.243
05/12/2013  22:38:00     -372.505      -52.125       -3.068      168.991      128.941       75.757    28558.091    16625.842     5739.115        9.620        2.546      376.134       80.168        0.045      345.090       22.370      865.243
05/12/2013  22:39:00     -358.253      -93.570      -22.457      154.393      157.001       64.019    23837.220    24649.448     4098.453        9.509        2.629      370.271       78.551        0.045      345.113       22.409      865.236
05/12/2013  22:40:00     -242.750      -19.727       -9.372      105.279       76.515       49.421    11083.593     5854.482     2442.431        3.939        0.969      243.550       45.268        0.035      345.058       22.314      865.259
05/12/2013  22:41:00     -295.615      -27.629      -24.141      128.677       85.987       57.485    16557.753     7393.786     3304.513        5.799        1.363      296.903       60.117        0.041      345.053       22.307      865.267
05/12/2013  22:42:00     -361.705      -33.445       -2.137      160.262       96.061       71.735    25684.049     9227.727     5145.966        8.600        2.003      363.248       69.282        0.036      345.067       22.328      865.252
05/12/2013  22:43:00     -194.857      -55.159       11.862      114.696       97.521       50.390    13155.131     9510.335     2539.188        3.317        1.260      202.514       57.293        0.080      345.013       22.239      865.242
05/12/2013  22:44:00     -390.351     -189.421      -18.872      144.418      130.969       71.368    20856.437    17152.866     5093.329       11.585        2.155      433.883       80.186        0.034      345.096       22.380      865.237
05/12/2013  22:45:00     -168.162      -55.350       17.231      133.655      138.006       72.776    17863.565    19045.744     5296.284        3.692        2.110      177.037       74.068        0.175      345.091       22.371      865.220
05/12/2013  22:46:00     -278.734      -39.197       -8.338      121.039       83.683       50.671    14650.393     7002.771     2567.565        5.176        1.211      281.477       44.956        0.026      345.093       22.375      865.242
05/12/2013  22:47:00     -297.040      -83.244      -10.782      146.453      126.607       63.556    21448.537    16029.227     4039.383        6.839        2.076      308.484       67.631        0.048      345.076       22.346      865.253
05/12/2013  22:48:00     -239.957      -38.024        0.845      180.849      113.356       65.047    32706.367    12849.515     4231.145        5.440        2.489      242.951       83.353        0.118      345.059       22.319      865.259
05/12/2013  22:49:00     -139.463      -83.920       15.077      110.620      101.293       56.077    12236.696    10260.245     3144.632        2.618        1.282      162.765       58.440        0.129      345.038       22.280      865.265
05/12/2013  22:50:00     -207.531     -134.046       -2.277      156.748      108.449       71.425    24569.984    11761.290     5101.596        5.123        2.072      247.058       85.275        0.119      345.096       22.379      865.279
05/12/2013  22:51:00     -169.886     -152.239        1.684      130.457       89.384       57.660    17018.924     7989.443     3324.690        4.018        1.417      228.118       65.075        0.081      345.191       22.540      865.280
05/12/2013  22:52:00     -173.661      -87.457        3.976      126.559       72.413       49.251    16017.085     5243.651     2425.671        3.075        1.184      194.440       60.252        0.096      345.125       22.430      865.293
05/12/2013  22:53:00      -91.175      -81.579       19.192      100.753      101.559       47.655    10151.107    10314.139     2271.038        1.903        1.137      122.343       50.294        0.169      345.079       22.352      865.300
05/12/2013  22:54:00      -92.312      -76.675       -0.665       73.473       77.983       40.573     5398.346     6081.397     1646.180        1.376        0.656      120.003       39.585        0.109      345.089       22.371      865.295
05/12/2013  22:55:00     -128.474      -44.582       -4.743       61.617       61.988       40.788     3796.646     3842.468     1663.650        1.391        0.465      135.989       39.133        0.083      345.111       22.409      865.300
05/12/2013  22:56:00      -81.915      -51.419        0.823       71.248       53.559       42.439     5076.248     2868.587     1801.049        0.955        0.487       96.716       37.415        0.150      345.100       22.390      865.289
05/12/2013  22:57:00     -122.618      -58.609        0.708       64.770       54.523       32.869     4195.213     2972.766     1080.390        1.336        0.412      135.905       28.320        0.043      345.074       22.346      865.296
05/12/2013  22:58:00     -133.361     -113.486       -5.960       62.855       53.483       38.656     3950.801     2860.413     1494.276        1.950        0.415      175.112       40.441        0.053      345.044       22.291      865.320
05/12/2013  22:59:00      -32.523      -63.288        8.688       40.940       76.988       19.679     1676.044     5927.105      387.268        0.656        0.400       71.156       26.133        0.135      344.968       22.163      865.337
05/12/2013  23:00:00      -71.194      -43.701        7.610       60.158       42.587       30.221     3618.982     1813.623      913.327        0.669        0.317       83.536       23.754        0.081      345.052       22.309      865.351
05/12/2013  23:01:00      -14.676      -91.492        7.910       39.908       33.475       18.550     1592.641     1120.597      344.109        0.585        0.153       92.662       16.206        0.031      345.065       22.329      865.369
05/12/2013  23:02:00      -16.312     -105.167      -14.412       62.895       37.232       22.589     3955.736     1386.195      510.264        0.869        0.293      106.425       26.359        0.061      344.976       22.178      865.378
05/12/2013  23:03:00        2.410      -10.688       24.170       34.034       41.346       24.548     1158.315     1709.508      602.599        0.209        0.174       10.956       16.597        2.295      344.767       21.818      865.383
05/12/2013  23:04:00       36.906       11.142       53.056       51.482       83.098       38.441     2650.421     6905.308     1477.739        0.767        0.552       38.551       49.366        1.640      344.799       21.872      865.372
05/12/2013  23:05:00       55.909     -112.863      -10.358       54.348       46.396       24.859     2953.746     2152.610      617.961        1.085        0.286      125.952       20.899        0.028      344.862       21.982      865.372
05/12/2013  23:06:00       42.519      -55.750        5.144       38.916       47.085       30.627     1514.456     2217.032      938.040        0.481        0.233       70.113       29.995        0.183      344.824       21.916      865.371
05/12/2013  23:07:00       36.469      -73.103       12.940       54.577       57.084       30.571     2978.613     3258.567      934.558        0.701        0.359       81.695       33.100        0.164      344.788       21.856      865.371
05/12/2013  23:08:00      -26.712      -72.973      -10.732       63.962       41.512       22.107     4091.197     1723.280      488.725        0.623        0.315       77.708       13.126        0.029      344.765       21.816      865.366
05/12/2013  23:09:00      -19.986      -61.201      -15.432       39.449       37.864       20.725     1556.193     1433.678      429.536        0.390        0.171       64.382       13.592        0.045      344.793       21.864      865.368
05/12/2013  23:10:00      -24.132      -29.939        3.044       25.276       24.996       12.749      638.877      624.818      162.528        0.146        0.071       38.454       14.493        0.142      344.722       21.741      865.355
05/12/2013  23:11:00       16.417      -16.415       10.869       24.057       39.385       30.143      578.723     1551.190      908.595        0.185        0.152       23.216       17.232        0.551      344.599       21.531      865.354
05/12/2013  23:12:00       11.870       25.795       51.888       21.865       21.913       15.904      478.064      480.170      252.928        0.235        0.061       28.395       13.645        0.231      344.446       21.271      865.352
05/12/2013  23:13:00        8.096       56.503       64.679       15.481       27.250       15.667      239.670      742.567      245.457        0.433        0.061       57.080       16.233        0.081      344.477       21.324      865.347
05/12/2013  23:14:00      -20.453      -31.381        8.723       18.777       33.446       22.914      352.592     1118.646      525.029        0.174        0.100       37.458       23.593        0.397      344.529       21.413      865.350
05/12/2013  23:15:00        8.056       32.817       35.343       20.688       34.690       28.246      428.011     1203.409      797.826        0.241        0.121       33.791       29.643        0.770      344.422       21.231      865.347
05/12/2013  23:16:00        6.043       32.834       49.376       18.462       38.937       30.715      340.843     1516.076      943.430        0.318        0.140       33.385       32.187        0.929      344.260       20.951      865.342
05/12/2013  23:17:00       -3.161       51.453       71.380       18.245       44.558       38.103      332.894     1985.385     1451.844        0.576        0.189       51.550       38.100        0.546      344.237       20.913      865.355
05/12/2013  23:18:00       13.947       53.837       85.682       35.487       48.393       31.496     1259.335     2341.913      991.968        0.751        0.230       55.615       18.817        0.114      344.295       21.014      865.350
05/12/2013  23:19:00       61.268      -13.200       45.491       65.317       84.408       55.946     4266.278     7124.711     3129.978        1.026        0.726       62.674       59.217        0.893      344.312       21.042      865.347
05/12/2013  23:20:00       61.496       37.553       59.405       64.287       53.017       53.282     4132.793     2810.750     2838.989        0.925        0.489       72.055       52.830        0.538      344.213       20.871      865.335
05/12/2013  23:21:00       10.617      -15.971       61.907       45.034       85.444       63.869     2028.105     7300.762     4079.295        0.880        0.670       19.178       67.731       12.474      344.272       20.973      865.350
05/12/2013  23:22:00       57.544      -36.786       31.802       54.548       68.320       59.472     2975.501     4667.648     3536.944        0.843        0.559       68.297       62.344        0.833      344.253       20.940      865.364
05/12/2013  23:23:00       21.663       71.727       89.425       37.226       54.807       36.501     1385.773     3003.828     1332.290        0.967        0.286       74.927       39.648        0.280      344.229       20.901      865.363
05/12/2013  23:24:00       69.620       96.742       79.531       53.523       53.916       40.458     2864.759     2906.948     1636.890        1.397        0.370      119.188       36.844        0.096      344.213       20.874      865.351
05/12/2013  23:25:00       28.002       16.709       23.479       42.574       46.751       32.470     1812.520     2185.698     1054.323        0.333        0.253       32.608       24.728        0.575      344.056       20.605      865.360
05/12/2013  23:26:00       -6.510       65.337       97.402       43.301       45.888       30.908     1874.962     2105.715      955.318        0.937        0.247       65.660       25.472        0.150      344.138       20.744      865.352
05/12/2013  23:27:00       24.541       81.866       87.214       35.623       44.395       29.434     1268.987     1970.947      866.332        0.951        0.205       85.465       26.961        0.100      344.138       20.745      865.343
05/12/2013  23:28:00       58.251      -20.483       23.351       28.883       33.657       26.805      834.233     1132.771      718.496        0.352        0.134       61.747       27.702        0.201      344.114       20.702      865.348
05/12/2013  23:29:00        9.291       62.172       80.212       29.095       34.879       26.533      846.533     1216.556      704.014        0.658        0.138       62.863       27.094        0.186      344.065       20.620      865.331
05/12/2013  23:30:00        6.138       13.616       50.503       28.695       51.790       28.915      823.393     2682.244      836.072        0.356        0.217       14.935       34.635        5.378      343.980       20.475      865.324
05/12/2013  23:31:00       53.905      -51.811        5.419       19.283       25.130       20.431      371.848      631.522      417.446        0.352        0.071       74.767       14.008        0.035      344.163       20.787      865.336
05/12/2013  23:32:00       73.214       35.016       29.021       33.912       30.122       26.819     1149.999      907.336      719.244        0.510        0.139       81.157       16.725        0.042      343.949       20.420      865.326
05/12/2013  23:33:00       55.928       27.548       30.991       45.742       38.009       30.708     2092.353     1444.668      942.952        0.466        0.224       62.344       35.722        0.328      343.865       20.279      865.326
05/12/2013  23:34:00       52.600       77.840       77.117       38.300       36.849       25.676     1466.864     1357.869      659.280        0.913        0.174       93.946       15.109        0.026      343.842       20.238      865.304
05/12/2013  23:35:00       60.075      113.884       94.290       38.442       30.831       25.600     1477.826      950.537      655.342        1.428        0.154      128.758        7.615        0.003      343.940       20.406      865.291
05/12/2013  23:36:00       37.030       64.626       63.916       35.026       36.661       27.743     1226.840     1344.009      769.695        0.649        0.167       74.484       25.054        0.113      343.938       20.402      865.303
05/12/2013  23:37:00        3.358       12.665       44.068       20.203       50.564       28.276      408.179     2556.721      799.505        0.294        0.188       13.103       32.422        6.123      343.906       20.350      865.314
05/12/2013  23:38:00       14.022      -62.922       11.462       26.530       51.129       19.097      703.815     2614.134      364.677        0.398        0.184       64.466       20.598        0.102      343.972       20.462      865.340
05/12/2013  23:39:00        4.757       29.609       48.695       25.909       26.479       18.854      671.273      701.162      355.491        0.250        0.086       29.988       19.559        0.425      343.914       20.361      865.364
05/12/2013  23:40:00        0.174       38.638       54.857       13.878       25.286       19.252      192.594      639.390      370.647        0.285        0.060       38.638       19.691        0.260      343.873       20.291      865.362
05/12/2013  23:41:00       68.968       37.593       18.573       32.754       20.665       31.623     1072.814      427.050     1000.010        0.451        0.125       78.549       24.879        0.100      343.924       20.378      865.338
05/12/2013  23:42:00       71.430       31.193       13.477       36.218       21.785       22.821     1311.707      474.590      520.796        0.428        0.115       77.944       11.728        0.023      343.826       20.210      865.342
05/12/2013  23:43:00       68.091       41.141       25.455       37.183       26.959       19.800     1382.555      726.794      392.029        0.474        0.125       79.554       16.636        0.044      343.819       20.200      865.327
05/12/2013  23:44:00       30.455       18.502       27.559       25.451       17.827       13.491      647.765      317.793      181.996        0.159        0.057       35.634        6.929        0.038      343.693       19.984      865.340
05/12/2013  23:45:00       56.930       60.844       41.188       21.970       19.982       22.462      482.698      399.285      504.527        0.501        0.069       83.325       16.882        0.041      343.772       20.121      865.341
05/12/2013  23:46:00       15.093       52.712       54.656       25.205       26.939       15.772      635.316      725.705      248.771        0.380        0.080       54.831       17.668        0.104      343.749       20.079      865.343
05/12/2013  23:47:00       23.348       63.553       60.287       20.716       25.006       14.527      429.165      625.307      211.034        0.474        0.063       67.706       13.158        0.038      343.772       20.121      865.338
05/12/2013  23:48:00        1.300       36.571       54.412       16.935       25.597       11.602      286.799      655.196      134.614        0.269        0.054       36.594       11.313        0.096      343.803       20.172      865.336
05/12/2013  23:49:00       41.655       54.293       55.321       31.188       29.721       16.651      972.715      883.317      277.253        0.494        0.107       68.431       14.315        0.044      343.835       20.227      865.330
05/12/2013  23:50:00       67.252       52.441       35.608       39.510       27.211       27.008     1561.004      740.417      729.445        0.579        0.152       85.281       18.943        0.049      343.857       20.264      865.303
05/12/2013  23:51:00       50.545       46.258       44.260       26.060       19.345       17.769      679.132      374.224      315.741        0.401        0.068       68.518        4.727        0.005      343.793       20.153      865.317
05/12/2013  23:52:00       92.432       50.339       32.526       24.848       21.068       17.363      617.420      443.868      301.484        0.675        0.068      105.251       14.338        0.019      343.747       20.076      865.326
05/12/2013  23:53:00      100.859       63.273       25.289       24.975       23.516       25.353      623.733      553.006      642.796        0.832        0.091      119.063       13.823        0.013      343.686       19.973      865.323
05/12/2013  23:54:00       57.385       42.730       32.926       17.295       14.037       23.508      299.113      197.034      552.619        0.363        0.052       71.546        8.146        0.013      343.518       19.688      865.322
05/12/2013  23:55:00       63.865       22.774       10.393       17.793       22.480       16.610      316.589      505.371      275.881        0.290        0.055       67.804        9.031        0.018      343.444       19.560      865.327
05/12/2013  23:56:00       38.520       28.577       20.655       17.943       14.518       14.032      321.949      210.759      196.901        0.173        0.036       47.963       11.557        0.058      343.256       19.239      865.329
05/12/2013  23:57:00       70.015       40.255       18.007       21.296       13.861       14.985      453.511      192.118      224.535        0.386        0.044       80.762        6.790        0.007      343.404       19.492      865.329
05/12/2013  23:58:00       91.578       54.712       23.874       22.582       19.459       21.035      509.958      378.669      442.464        0.664        0.067      106.676        9.807        0.008      343.463       19.592      865.336
05/12/2013  23:59:00       48.522       23.937        7.112       28.173       29.738       16.659      793.710      884.371      277.525        0.247        0.098       54.105        7.088        0.017      343.381       19.452      865.339
